[[{"header":{"parameterUnit":"m.s-1","parameterCategory":1,"la1":30.6,"la2":29.2853,"lo1":-89.7004,"lo2":-87.6739,"dy":0.0162,"dx":0.0183,"nx":112,"ny":82,"refTime":"2026-02-26T12:00:00:Z","depth":0,"parameterNumber":2,"parameterNumberName":"U-component_of_WINDS"},"data":[0.0,0.0,0.0,0.0,0.0,0.0,0.0,0.0,0.0,0.0,0.0,0.0,0.0,0.0,0.0,0.0,0.0,0.0,0.0,0.0,0.0,0.0,0.0,0.0,0.0,0.0,0.0,0.0,0.0,0.0,0.0,0.0,0.0,0.0,0.0,0.0,0.0,0.0,0.0,0.0,0.0,0.0,0.0,0.0,0.0,0.0,0.0,0.0,0.0,0.0,0.0,0.0,0.0,0.0,0.0,0.0,0.0,0.0,0.0,0.0,0.0,0.0,0.0,0.0,0.0,0.0,0.0,0.0,0.0,0.0,0.0,0.0,0.0,0.0,0.0,0.0,0.0,0.0,0.0,0.0,0.0,0.0,0.0,0.0,0.0,0.0,0.0,0.0,0.0,0.0,-1.4424,-1.5987,-1.8372,-1.9564,-1.895,-1.8414,-1.7356,-1.5604,0.0,0.0,0.0,0.0,0.0,0.0,0.0,0.0,0.0,0.0,0.0,0.0,0.0,0.0,0.0,0.0,0.0,0.0,0.0,0.0,0.0,0.0,0.0,0.0,0.0,0.0,0.0,0.0,0.0,0.0,0.0,0.0,0.0,0.0,0.0,0.0,0.0,0.0,0.0,0.0,0.0,0.0,0.0,0.0,0.0,0.0,0.0,0.0,0.0,0.0,0.0,0.0,0.0,0.0,0.0,0.0,0.0,0.0,0.0,0.0,0.0,0.0,0.0,0.0,0.0,0.0,0.0,0.0,0.0,0.0,0.0,0.0,0.0,0.0,0.0,0.0,0.0,0.0,0.0,0.0,0.0,0.0,0.0,0.0,0.0,0.0,0.0,0.0,0.0,0.0,0.0,0.0,0.0,0.0,0.0,0.0,0.0,0.0,0.0,0.0,0.0,0.0,0.0,0.0,-1.4284,-1.7432,-1.855,-1.9025,-1.8911,-1.8414,-1.7356,-1.5604,0.0,0.0,0.0,0.0,0.0,0.0,0.0,0.0,0.0,0.0,0.0,0.0,0.0,0.0,0.0,0.0,0.0,0.0,0.0,0.0,0.0,0.0,0.0,0.0,0.0,0.0,0.0,0.0,0.0,0.0,0.0,0.0,0.0,0.0,0.0,0.0,0.0,0.0,0.0,0.0,0.0,0.0,0.0,0.0,0.0,0.0,0.0,0.0,0.0,0.0,0.0,0.0,0.0,0.0,0.0,0.0,0.0,0.0,0.0,0.0,0.0,0.0,0.0,0.0,0.0,0.0,0.0,0.0,0.0,0.0,0.0,0.0,0.0,0.0,0.0,0.0,0.0,0.0,0.0,0.0,0.0,0.0,0.0,0.0,0.0,0.0,0.0,0.0,0.0,0.0,0.0,0.0,0.0,0.0,0.0,0.0,0.0,0.0,0.0,0.0,0.0,0.0,0.0,-1.4219,-1.5716,-1.827,-1.9054,-1.9264,-1.8937,-1.8114,-1.7003,-1.5578,-1.3752,0.0,0.0,0.0,0.0,0.0,0.0,0.0,0.0,0.0,0.0,0.0,0.0,0.0,0.0,0.0,0.0,0.0,0.0,0.0,0.0,0.0,0.0,0.0,0.0,0.0,0.0,0.0,0.0,0.0,0.0,0.0,0.0,0.0,0.0,0.0,0.0,0.0,0.0,0.0,0.0,0.0,0.0,0.0,0.0,0.0,0.0,0.0,0.0,0.0,0.0,0.0,0.0,0.0,0.0,0.0,0.0,0.0,0.0,0.0,0.0,0.0,0.0,0.0,0.0,0.0,0.0,0.0,0.0,0.0,0.0,0.0,0.0,0.0,0.0,0.0,0.0,0.0,0.0,0.0,0.0,0.0,0.0,0.0,0.0,0.0,0.0,0.0,0.0,0.0,0.0,0.0,0.0,0.0,0.0,0.0,0.0,0.0,0.0,0.0,0.0,0.0,0.0,-1.5533,-1.6943,-1.8554,-1.912,-1.9211,-1.8754,-1.7669,-1.6571,-1.5552,-1.368,0.0,0.0,0.0,0.0,0.0,0.0,0.0,0.0,0.0,0.0,0.0,0.0,0.0,0.0,0.0,0.0,0.0,0.0,0.0,0.0,0.0,0.0,0.0,0.0,0.0,0.0,0.0,0.0,0.0,0.0,0.0,0.0,0.0,0.0,0.0,0.0,0.0,0.0,0.0,0.0,0.0,0.0,0.0,0.0,0.0,0.0,0.0,0.0,0.0,0.0,0.0,0.0,0.0,0.0,0.0,0.0,0.0,0.0,0.0,0.0,0.0,0.0,0.0,0.0,0.0,0.0,0.0,0.0,0.0,0.0,0.0,0.0,0.0,0.0,0.0,0.0,0.0,0.0,0.0,0.0,0.0,0.0,0.0,0.0,0.0,0.0,0.0,0.0,0.0,0.0,0.0,0.0,0.0,0.0,0.0,0.0,0.0,0.0,0.0,0.0,0.0,0.0,-1.5261,-1.6874,-1.8113,-1.8232,-1.8192,-1.8166,-1.7107,-1.6179,-1.5539,-1.368,0.0,0.0,0.0,0.0,0.0,0.0,0.0,0.0,0.0,0.0,0.0,0.0,0.0,0.0,0.0,0.0,0.0,0.0,0.0,0.0,0.0,0.0,0.0,0.0,0.0,0.0,0.0,0.0,0.0,0.0,0.0,0.0,0.0,0.0,0.0,0.0,0.0,0.0,0.0,0.0,0.0,0.0,0.0,0.0,0.0,0.0,0.0,0.0,0.0,0.0,0.0,0.0,0.0,0.0,0.0,0.0,0.0,0.0,0.0,0.0,0.0,0.0,0.0,0.0,0.0,0.0,0.0,0.0,0.0,0.0,0.0,0.0,0.0,0.0,0.0,0.0,0.0,0.0,0.0,0.0,0.0,0.0,0.0,0.0,0.0,0.0,0.0,0.0,0.0,0.0,0.0,0.0,0.0,0.0,0.0,0.0,0.0,0.0,0.0,0.0,0.0,0.0,-1.4995,-1.6441,-1.8029,-1.814,-1.8109,-1.8149,-1.7083,-1.5925,-1.482,0.0,0.0,0.0,0.0,0.0,0.0,0.0,0.0,0.0,0.0,0.0,0.0,0.0,0.0,0.0,0.0,0.0,0.0,0.0,0.0,0.0,0.0,0.0,0.0,0.0,0.0,0.0,0.0,0.0,0.0,0.0,0.0,0.0,0.0,0.0,0.0,0.0,0.0,0.0,0.0,0.0,0.0,0.0,0.0,0.0,0.0,0.0,0.0,0.0,0.0,0.0,0.0,0.0,0.0,0.0,0.0,0.0,0.0,0.0,0.0,0.0,0.0,0.0,0.0,0.0,0.0,0.0,0.0,0.0,0.0,0.0,0.0,0.0,0.0,0.0,0.0,0.0,0.0,0.0,0.0,0.0,0.0,0.0,0.0,0.0,0.0,0.0,0.0,0.0,0.0,0.0,0.0,0.0,0.0,0.0,0.0,0.0,0.0,0.0,0.0,0.0,0.0,-1.3648,-1.5149,-1.6474,-1.7597,-1.7695,-1.7549,-1.723,-1.6133,-1.4996,-1.3953,0.0,0.0,0.0,0.0,0.0,0.0,0.0,0.0,0.0,0.0,0.0,0.0,0.0,0.0,0.0,0.0,0.0,0.0,0.0,0.0,0.0,0.0,0.0,0.0,0.0,0.0,0.0,0.0,0.0,0.0,0.0,0.0,0.0,0.0,0.0,0.0,0.0,0.0,0.0,0.0,0.0,0.0,0.0,0.0,0.0,0.0,0.0,0.0,0.0,0.0,0.0,0.0,0.0,0.0,0.0,0.0,0.0,0.0,0.0,0.0,0.0,0.0,0.0,0.0,0.0,0.0,0.0,0.0,0.0,0.0,0.0,0.0,0.0,0.0,0.0,0.0,0.0,0.0,0.0,0.0,0.0,0.0,0.0,0.0,0.0,0.0,0.0,0.0,0.0,0.0,0.0,0.0,0.0,0.0,0.0,0.0,0.0,0.0,0.0,0.0,0.0,0.0,-1.3693,-1.5805,-1.7059,-1.6704,-1.6749,-1.6332,-1.5216,-1.4062,-1.3293,0.0,0.0,0.0,0.0,0.0,0.0,0.0,0.0,0.0,0.0,0.0,0.0,0.0,0.0,0.0,0.0,0.0,0.0,0.0,0.0,0.0,0.0,0.0,0.0,0.0,0.0,0.0,0.0,0.0,0.0,0.0,0.0,0.0,0.0,0.0,0.0,0.0,0.0,0.0,0.0,0.0,0.0,0.0,0.0,0.0,0.0,0.0,0.0,0.0,0.0,0.0,0.0,0.0,0.0,0.0,0.0,0.0,0.0,0.0,0.0,0.0,0.0,0.0,0.0,0.0,0.0,0.0,0.0,0.0,0.0,0.0,0.0,0.0,0.0,0.0,0.0,0.0,0.0,0.0,0.0,0.0,0.0,0.0,0.0,0.0,0.0,0.0,0.0,0.0,0.0,0.0,0.0,0.0,0.0,0.0,0.0,0.0,0.0,0.0,0.0,0.0,0.0,0.0,-1.2676,-1.4432,-1.5681,-1.5964,-1.615,-1.6099,-1.5754,-1.4467,-1.3343,-1.256,0.0,0.0,0.0,0.0,0.0,0.0,0.0,0.0,0.0,0.0,0.0,0.0,0.0,0.0,0.0,0.0,0.0,0.0,0.0,0.0,0.0,0.0,0.0,0.0,0.0,0.0,0.0,0.0,0.0,0.0,0.0,0.0,0.0,0.0,0.0,0.0,0.0,0.0,0.0,0.0,0.0,0.0,0.0,0.0,0.0,0.0,0.0,0.0,0.0,0.0,0.0,0.0,0.0,0.0,0.0,0.0,0.0,0.0,0.0,0.0,0.0,0.0,0.0,0.0,0.0,0.0,0.0,0.0,0.0,0.0,0.0,0.0,0.0,0.0,0.0,0.0,0.0,0.0,0.0,0.0,0.0,0.0,0.0,0.0,0.0,0.0,0.0,0.0,0.0,0.0,0.0,0.0,0.0,0.0,0.0,0.0,0.0,0.0,0.0,0.0,0.0,0.0,-1.2724,-1.4498,-1.56,-1.5585,-1.5703,-1.5633,-1.5241,-1.3748,-1.2481,-1.168,0.0,0.0,0.0,0.0,0.0,0.0,0.0,0.0,0.0,0.0,0.0,0.0,0.0,0.0,0.0,0.0,0.0,0.0,0.0,0.0,0.0,0.0,0.0,0.0,0.0,0.0,0.0,0.0,0.0,0.0,0.0,0.0,0.0,0.0,0.0,0.0,0.0,0.0,0.0,0.0,0.0,0.0,0.0,0.0,0.0,0.0,0.0,0.0,0.0,0.0,0.0,0.0,0.0,0.0,0.0,0.0,0.0,0.0,0.0,0.0,0.0,0.0,0.0,0.0,0.0,0.0,0.0,0.0,0.0,0.0,0.0,0.0,0.0,0.0,0.0,0.0,0.0,0.0,0.0,0.0,0.0,0.0,0.0,0.0,0.0,0.0,0.0,0.0,0.0,0.0,0.0,0.0,0.0,0.0,0.0,0.0,0.0,0.0,0.0,0.0,0.0,0.0,-1.3301,-1.5267,-1.6163,-1.5357,-1.5369,-1.5074,-1.4094,-1.2477,-1.1276,-1.066,0.0,0.0,0.0,0.0,0.0,0.0,0.0,0.0,0.0,0.0,0.0,0.0,0.0,0.0,0.0,0.0,0.0,0.0,0.0,0.0,0.0,0.0,0.0,0.0,0.0,0.0,0.0,0.0,0.0,0.0,0.0,0.0,0.0,0.0,0.0,0.0,0.0,0.0,0.0,0.0,0.0,0.0,0.0,0.0,0.0,0.0,0.0,0.0,0.0,0.0,0.0,0.0,0.0,0.0,0.0,0.0,0.0,0.0,0.0,0.0,-1.4132,-1.3521,0.0,0.0,0.0,0.0,0.0,0.0,0.0,0.0,0.0,0.0,0.0,0.0,0.0,0.0,0.0,0.0,0.0,0.0,0.0,0.0,0.0,0.0,0.0,0.0,0.0,0.0,0.0,0.0,0.0,0.0,0.0,0.0,0.0,0.0,0.0,0.0,0.0,0.0,0.0,0.0,-1.2123,-1.3753,-1.4651,-1.4249,-1.4788,-1.4849,-1.407,-1.3089,-1.2048,-1.0982,-0.9764,0.0,0.0,0.0,0.0,0.0,0.0,0.0,0.0,0.0,0.0,0.0,0.0,0.0,0.0,0.0,0.0,0.0,0.0,0.0,0.0,0.0,0.0,0.0,0.0,0.0,0.0,0.0,0.0,0.0,0.0,0.0,0.0,0.0,0.0,0.0,0.0,0.0,0.0,0.0,0.0,0.0,0.0,0.0,0.0,0.0,0.0,0.0,0.0,0.0,0.0,0.0,0.0,0.0,0.0,0.0,0.0,0.0,0.0,0.0,-1.5475,-1.497,0.0,0.0,0.0,0.0,0.0,0.0,0.0,0.0,0.0,0.0,0.0,0.0,0.0,0.0,0.0,0.0,0.0,0.0,0.0,0.0,0.0,0.0,0.0,0.0,0.0,0.0,0.0,0.0,0.0,0.0,0.0,0.0,0.0,0.0,0.0,0.0,0.0,0.0,0.0,0.0,-1.2555,-1.3658,-1.4381,-1.4606,-1.4966,-1.4938,-1.4293,-1.3356,-1.233,-1.1209,-0.9962,0.0,0.0,0.0,0.0,0.0,0.0,0.0,0.0,0.0,0.0,0.0,0.0,0.0,0.0,0.0,0.0,0.0,0.0,0.0,0.0,0.0,0.0,0.0,0.0,0.0,0.0,0.0,0.0,0.0,0.0,0.0,0.0,0.0,0.0,0.0,0.0,0.0,0.0,0.0,0.0,0.0,0.0,0.0,0.0,0.0,0.0,0.0,0.0,0.0,0.0,0.0,0.0,0.0,-1.7656,-1.826,-1.9264,-1.8453,-1.8322,-1.8696,-1.7404,-1.7037,-1.7315,-1.6118,0.0,0.0,0.0,0.0,0.0,0.0,0.0,0.0,0.0,0.0,0.0,0.0,0.0,0.0,0.0,0.0,0.0,0.0,0.0,0.0,0.0,0.0,-1.3383,-1.3785,-1.3857,-1.3374,-1.1641,0.0,0.0,0.0,0.0,0.0,0.0,0.0,0.0,0.0,0.0,0.0,-1.3411,-1.4055,-1.4558,-1.5249,-1.5355,-1.5134,-1.4578,-1.3586,-1.255,-1.1543,-1.0233,-0.9196,0.0,0.0,0.0,0.0,0.0,0.0,0.0,0.0,0.0,0.0,0.0,0.0,0.0,0.0,0.0,0.0,0.0,0.0,0.0,0.0,0.0,0.0,0.0,0.0,0.0,0.0,0.0,0.0,0.0,0.0,0.0,0.0,-1.0824,-1.1292,0.0,0.0,0.0,0.0,0.0,0.0,0.0,0.0,0.0,0.0,0.0,0.0,0.0,-1.5583,-1.6109,-1.7423,-1.8283,-1.8688,-1.9834,-2.0577,-2.0891,-2.0753,-2.0951,-2.1355,-2.0745,0.0,-1.7419,-1.7618,0.0,0.0,0.0,0.0,0.0,0.0,0.0,0.0,0.0,0.0,0.0,0.0,0.0,0.0,0.0,0.0,0.0,0.0,0.0,0.0,0.0,0.0,-1.4832,-1.489,-1.4901,-1.4718,-1.404,-1.3308,-1.2204,-1.0265,-1.0347,-1.0413,0.0,0.0,0.0,0.0,0.0,0.0,-1.3367,-1.3983,-1.4474,-1.4911,-1.5377,-1.5393,-1.4719,-1.407,-1.324,-1.2234,-1.144,-1.058,-0.9643,-0.9163,0.0,0.0,0.0,0.0,0.0,0.0,0.0,0.0,0.0,0.0,0.0,0.0,0.0,0.0,0.0,0.0,0.0,0.0,0.0,0.0,0.0,0.0,0.0,0.0,0.0,0.0,0.0,0.0,0.0,-1.1048,-1.188,-1.1853,-1.2036,-1.1926,0.0,0.0,0.0,0.0,0.0,0.0,0.0,0.0,0.0,-1.7162,-1.7365,-1.7992,-1.9213,-1.986,-2.0572,-2.1328,-2.1597,-2.2001,-2.2432,-2.2145,-2.2178,-2.234,-2.2144,-2.1259,-1.9907,-1.9533,-1.8501,-1.7137,0.0,0.0,0.0,0.0,-1.6531,-1.6738,-1.677,-1.6773,-1.666,-1.6234,0.0,0.0,0.0,0.0,0.0,0.0,0.0,-1.4947,-1.5177,-1.559,-1.5933,-1.5933,-1.5994,-1.5927,-1.5475,-1.5133,-1.4281,-1.2106,-1.192,-1.1842,-1.0918,-1.0961,0.0,0.0,0.0,-1.3083,-1.3843,-1.4389,-1.489,-1.5353,-1.5616,-1.5467,-1.4761,-1.4451,-1.3828,-1.2707,-1.2079,-1.1296,-1.0298,-1.0057,-0.9414,0.0,0.0,0.0,0.0,0.0,0.0,0.0,0.0,0.0,0.0,0.0,0.0,0.0,0.0,0.0,0.0,0.0,0.0,0.0,0.0,0.0,0.0,0.0,0.0,0.0,0.0,0.0,0.0,-1.2174,-1.2854,-1.2459,-1.3038,-1.3075,0.0,0.0,0.0,0.0,0.0,0.0,-1.5426,-1.635,-1.7722,-1.9586,-1.9634,-2.0296,-2.1654,-2.1699,-2.2241,-2.3255,-2.2844,-2.3005,-2.3591,-2.3236,-2.3064,-2.3064,-2.3064,-2.2788,-2.2204,-2.1183,-1.9945,-1.8696,-1.8696,-1.8157,-1.7435,-1.7829,-1.8047,-1.8196,-1.8421,-1.8368,-1.8166,-1.8039,-1.7025,-1.5853,-1.5853,0.0,0.0,0.0,0.0,-1.6153,-1.6407,-1.6635,-1.6816,-1.6954,-1.6986,-1.6854,-1.6519,-1.6572,-1.6067,-1.3903,-1.3505,-1.327,-1.2561,-1.2441,0.0,-1.2511,-1.3192,-1.3891,-1.4402,-1.4782,-1.5217,-1.5732,-1.5792,-1.5592,-1.5036,-1.4818,-1.4275,-1.324,-1.2627,-1.1854,-1.081,-1.0775,-1.0125,-0.8702,0.0,0.0,0.0,0.0,0.0,0.0,0.0,0.0,0.0,0.0,0.0,0.0,0.0,0.0,0.0,0.0,0.0,0.0,0.0,0.0,0.0,0.0,0.0,0.0,0.0,0.0,0.0,0.0,0.0,-1.3277,-1.4598,0.0,0.0,0.0,0.0,-1.3819,-1.4252,-1.5294,-1.7071,-1.783,-1.9082,-2.1019,-2.1812,-2.2253,-2.2355,-2.2537,-2.288,-2.3407,-2.3349,-2.3625,-2.4154,-2.4131,-2.412,-2.412,-2.412,-2.3833,-2.3258,-2.2238,-2.1238,-2.0297,-2.0297,-1.9987,-1.9539,-1.9562,-1.9861,-2.0194,-1.9769,-1.9895,-2.0182,-1.9723,-1.885,-1.7962,-1.7962,-1.7275,0.0,0.0,-1.6933,-1.6782,-1.7745,-1.7691,-1.7461,-1.7928,-1.7691,-1.7361,-1.7338,-1.7442,-1.7002,-1.5154,-1.4857,-1.4749,-1.4265,0.0,-1.4168,-1.4168,-1.4236,-1.4426,-1.4893,-1.4989,-1.5217,-1.5732,-1.5792,-1.578,-1.5756,-1.5116,-1.4469,-1.3972,-1.3259,-1.2383,-1.1314,-1.1268,-1.0775,-0.9747,-0.9276,0.0,0.0,0.0,0.0,0.0,0.0,0.0,0.0,0.0,0.0,0.0,0.0,0.0,0.0,0.0,0.0,0.0,0.0,0.0,0.0,0.0,0.0,0.0,0.0,0.0,0.0,0.0,0.0,-1.5194,-1.5505,0.0,-1.5267,-1.5539,-1.5813,-1.6011,-1.7241,-1.8443,-1.9562,-2.0316,-2.1426,-2.2893,-2.3002,-2.3406,-2.4181,-2.4156,-2.4384,-2.4863,-2.4863,-2.4992,-2.5164,-2.482,-2.4659,-2.4636,-2.4326,-2.4097,-2.3902,-2.3534,-2.2593,-2.139,-2.1743,-2.1365,-2.0707,-2.1009,-2.1206,-2.1332,-2.1161,-2.1032,-2.073,-1.9551,-1.916,-1.908,-1.8736,-1.8368,-1.8196,-1.8724,-1.8736,-1.8706,-1.9148,-1.913,-1.8985,-1.8958,-1.8881,-1.8728,-1.8372,-1.8147,-1.7812,-1.7159,-1.6693,-1.6168,-1.5406,-1.5271,-1.5064,-1.4397,-1.4847,-1.519,-1.5025,-1.5301,-1.5588,-1.5768,-1.5792,-1.577,-1.5738,-1.5183,-1.4577,-1.3976,-1.3322,-1.2642,-1.1913,-1.1509,-1.0993,-1.0332,-0.952,-0.875,0.0,0.0,0.0,0.0,0.0,0.0,0.0,0.0,0.0,0.0,0.0,0.0,0.0,0.0,0.0,0.0,0.0,0.0,0.0,0.0,0.0,0.0,0.0,0.0,0.0,-1.4983,-1.601,-1.6251,-1.667,-1.6807,-1.6541,-1.6784,-1.7124,-1.7467,-1.863,-1.9748,-2.0735,-2.1299,-2.2183,-2.3545,-2.3756,-2.4203,-2.5013,-2.5252,-2.5538,-2.5897,-2.5897,-2.5858,-2.5808,-2.5439,-2.5214,-2.5164,-2.4843,-2.4602,-2.4441,-2.4441,-2.3752,-2.2674,-2.288,-2.2421,-2.1753,-2.2053,-2.218,-2.218,-2.218,-2.1847,-2.1282,-2.024,-1.993,-1.9872,-1.9516,-1.9298,-1.9229,-1.9597,-1.9688,-1.9718,-1.9795,-1.9883,-1.9849,-1.9626,-1.9686,-1.9657,-1.9124,-1.8839,-1.8608,-1.8428,-1.7791,-1.7087,-1.644,-1.6343,-1.6185,-1.569,-1.6029,-1.6223,-1.5852,-1.5948,-1.5984,-1.5816,-1.5792,-1.577,-1.5738,-1.5393,-1.4829,-1.4016,-1.3552,-1.2961,-1.2233,-1.1988,-1.1624,-1.1113,-1.0275,-0.9586,-0.9069,0.0,0.0,0.0,0.0,0.0,0.0,0.0,0.0,0.0,0.0,0.0,0.0,0.0,0.0,0.0,0.0,0.0,0.0,0.0,0.0,0.0,0.0,0.0,-1.4558,-1.6266,-1.7229,-1.6514,-1.8109,-1.8669,-1.7147,-1.7706,-1.8164,-1.8183,-1.8192,-1.8919,-2.0561,-2.0592,-2.1318,-2.2977,-2.4092,-2.4657,-2.4708,-2.5731,-2.6253,-2.6303,-2.6303,-2.6227,-2.6073,-2.605,-2.5947,-2.5727,-2.5716,-2.5417,-2.4935,-2.4935,-2.4659,-2.4166,-2.3625,-2.3167,-2.2765,-2.2765,-2.2753,-2.273,-2.273,-2.2375,-2.1917,-2.1917,-2.1252,-2.0481,-2.0458,-2.0136,-1.9757,-1.9775,-1.9764,-1.9764,-1.9775,-1.9871,-1.9947,-1.9965,-2.0112,-2.0087,-1.954,-1.9523,-1.9456,-1.8917,-1.808,-1.7435,-1.7436,-1.7411,-1.7604,-1.8097,-1.7724,0.0,-1.7387,-1.6943,-1.6439,-1.5924,-1.5864,-1.5864,-1.584,-1.5784,-1.5276,-1.4188,-1.3981,-1.34,-1.2268,-1.2703,-1.2677,-1.2102,-1.1555,-1.1073,-1.0631,0.0,0.0,0.0,0.0,0.0,0.0,0.0,0.0,0.0,0.0,0.0,0.0,0.0,0.0,0.0,0.0,0.0,0.0,0.0,0.0,0.0,-1.5065,-1.6248,-1.6248,-1.6963,-1.7853,-1.8786,-1.865,-1.8585,-1.9015,-1.9026,-1.9256,-2.0008,-2.0379,-2.096,-2.187,-2.202,-2.2452,-2.3175,-2.3501,-2.4004,-2.4711,-2.4832,-2.5422,-2.6449,-2.6449,-2.6783,-2.7355,-2.6956,-2.678,-2.6691,-2.6317,-2.6071,-2.5893,-2.5768,-2.5402,-2.4916,-2.4261,-2.3902,-2.3775,-2.3775,-2.3546,-2.3201,-2.3201,-2.2903,-2.2478,-2.2478,-2.2283,-2.1996,-2.1617,-2.1486,-2.1429,-2.1035,-2.1036,-2.1183,-2.1263,-2.1313,-2.1292,-2.1063,-2.1039,-2.0925,-2.0399,-1.9985,-1.9717,-1.9545,-1.8996,-1.8434,-1.8049,-1.7989,-1.7905,-1.7664,-1.7483,-1.7387,-1.7387,-1.7267,-1.7267,-1.7495,-1.7531,-1.7375,-1.6991,-1.6584,-1.5867,-1.4743,-1.4275,-1.3686,-1.289,-1.2626,-1.2192,-1.152,-1.1371,-1.1245,0.0,0.0,0.0,0.0,0.0,0.0,0.0,0.0,0.0,0.0,0.0,0.0,0.0,0.0,0.0,0.0,0.0,0.0,0.0,0.0,0.0,0.0,-1.6422,-1.7706,-1.855,-1.8577,-1.8861,-1.9774,-1.9417,-1.9363,-2.0067,-1.9952,-2.007,-2.062,-2.1008,-2.1524,-2.2144,-2.2261,-2.2567,-2.3053,-2.3433,-2.3898,-2.4451,-2.5209,-2.5969,-2.6816,-2.7144,-2.7563,-2.803,-2.7699,-2.7518,-2.7399,-2.7003,-2.6706,-2.648,-2.6275,-2.5985,-2.5512,0.0,0.0,0.0,0.0,-2.4005,-2.3728,-2.3728,-2.342,-2.2995,-2.2995,-2.2857,-2.2627,-2.2329,-2.2315,-2.23,-2.1779,-2.1672,-2.1766,-2.1722,-2.1769,-2.1772,-2.1648,-2.1668,-2.1596,-2.1055,-2.0694,-2.0394,-2.0177,-1.9877,0.0,-1.8951,-1.8674,-1.8506,-1.8422,-1.8217,-1.8073,-1.8073,-1.7881,-1.7772,-1.7869,-1.7869,-1.7748,-1.7436,-1.6907,0.0,0.0,0.0,-1.4156,-1.3455,-1.2894,0.0,0.0,0.0,0.0,0.0,0.0,0.0,0.0,-1.0409,-0.9945,0.0,0.0,0.0,0.0,0.0,0.0,0.0,0.0,0.0,0.0,0.0,0.0,0.0,0.0,0.0,0.0,-1.7807,-1.9063,-2.0796,-2.0521,-2.0095,-2.0095,-2.0323,-2.0521,-2.0521,-2.0558,-2.0627,-2.0627,-2.0885,-2.1291,-2.1835,-2.1864,0.0,0.0,0.0,-2.3963,-2.4006,-2.583,-2.6805,-2.6887,-2.7672,-2.8007,-2.7926,-2.8047,-2.7978,-2.78,-2.7655,-2.7399,-2.699,-2.6792,-2.6468,-2.605,-2.5292,-2.4733,-2.4353,-2.4296,-2.4261,-2.4236,-2.4236,0.0,0.0,-2.3488,-2.3224,-2.288,-2.2811,-2.2833,-2.2764,-2.2212,-2.2073,-2.2035,-2.1754,-2.1772,-2.1875,-2.1989,-2.2097,-2.2065,-2.1596,-2.144,-2.126,-2.0762,-2.0629,-2.0454,-1.9989,-1.9459,-1.9215,-1.9652,-1.9287,-1.8987,-1.8987,-1.8578,-1.8133,-1.7724,-1.7676,0.0,-1.7592,-1.7135,-1.6595,-1.5902,-1.5303,-1.4672,-1.4034,-1.3431,-1.3552,-1.4475,-1.4441,-1.4454,-1.4568,-1.4936,-1.4549,-1.345,-1.1766,-1.0931,0.0,0.0,0.0,0.0,0.0,0.0,0.0,0.0,0.0,0.0,0.0,0.0,0.0,0.0,0.0,-1.7204,-1.9155,-2.0549,-2.0622,-2.1028,-2.1339,-2.1339,-2.0827,-2.0521,-2.0521,-2.0976,-2.1299,-2.1299,-2.1832,-2.2151,-2.2282,-2.2271,-2.245,-2.2809,-2.2965,-2.3135,-2.3309,-2.3681,-2.4274,-2.5041,-2.521,0.0,-2.6287,-2.7051,-2.7348,-2.736,-2.8018,-2.8251,-2.8156,-2.7945,-2.7478,-2.6784,-2.5831,-2.5421,-2.5292,-2.4834,-2.4574,-2.4454,-2.4454,-2.4276,-2.4051,-2.4051,-2.409,-2.4047,-2.3455,-2.3595,0.0,-2.3136,-2.3174,-2.3427,-2.3341,-2.305,-2.2771,-2.2791,-2.2498,-2.2161,-2.2065,-2.1704,-2.1368,-2.1272,-2.0911,-2.0574,-2.047,-2.0001,-1.9516,-1.9191,-1.9086,-1.8987,-1.8987,-1.8903,-1.8963,-1.9287,-1.9351,-1.9143,-1.8722,-1.859,-1.7891,-1.6372,-1.532,-1.4742,-1.4722,-1.4029,-1.4115,-1.5105,-1.4635,-1.4798,-1.5613,-1.528,-1.4937,-1.4642,-1.3384,-1.2698,0.0,0.0,0.0,0.0,0.0,0.0,0.0,0.0,0.0,0.0,0.0,-1.481,-1.5507,0.0,-1.8064,-1.9134,-2.0319,-2.1319,-2.1897,-2.2124,-2.2096,-2.1759,-2.1277,-2.1068,-2.1281,-2.1693,-2.1945,-2.1945,-2.2362,-2.2618,-2.2618,-2.2706,-2.2794,-2.2969,-2.2969,-2.3013,-2.3091,-2.356,-2.4036,-2.4498,-2.4946,-2.5368,-2.583,-2.6287,-2.6505,-2.6505,-2.6835,-2.6999,-2.704,-2.7366,-2.7549,-2.7585,-2.6892,-2.6316,-2.5782,-2.5487,-2.5282,-2.5073,-2.4796,-2.463,-2.451,-2.439,-2.4418,-2.4443,-2.4188,-2.4331,-2.4425,-2.3778,-2.3739,-2.3849,-2.3687,-2.3469,-2.3266,-2.3376,-2.2999,-2.2582,-2.2582,-2.2173,-2.1801,-2.1801,-2.1584,-2.132,-2.106,-2.0767,-2.0418,-1.9877,-1.9805,-1.9708,-1.942,-1.9411,-1.9411,-1.9411,-1.9411,-1.9302,-1.9011,-1.8746,-1.812,-1.6979,-1.611,-1.5637,-1.5593,-1.4987,-1.4949,-1.5603,-1.5292,-1.5521,-1.6243,-1.5968,-1.5818,-1.5794,-1.5153,-1.4608,0.0,0.0,0.0,0.0,0.0,0.0,0.0,0.0,-1.3663,-1.4549,-1.5811,-1.6982,-1.7825,-1.8889,-1.9971,-2.0943,-2.1374,-2.2016,-2.3206,-2.3074,-2.2649,-2.2025,-2.1868,-2.1895,-2.2157,-2.2353,-2.2485,-2.2485,-2.2706,-2.2838,-2.2838,-2.3091,-2.3218,-2.3218,-2.3296,-2.3344,-2.3344,-2.4116,-2.4497,-2.4497,-2.5125,-2.5413,-2.5413,-2.5485,-2.5526,-2.5526,-2.5579,-2.5568,-2.561,-2.6318,-2.7028,-2.7718,-2.7636,-2.7003,-2.6167,-2.6173,-2.6039,-2.58,-2.5362,-2.5211,-2.5131,-2.4804,-2.4714,-2.4774,-2.4789,-2.4861,-2.4791,-2.4319,-2.4236,-2.4199,-2.3933,-2.3776,-2.3738,-2.3917,-2.3553,-2.3168,-2.3168,-2.2714,-2.2342,-2.2342,-2.2258,-2.2053,-2.1632,-2.156,-2.1344,-2.0706,-2.061,-2.0442,-2.0013,-1.9965,-1.976,-1.9203,-1.917,-1.9095,-1.8999,-1.8506,-1.8025,-1.7567,-1.7027,-1.6645,-1.648,-1.5997,-1.5905,-1.6211,-1.6095,-1.6254,-1.6773,-1.6773,-1.6773,-1.6747,-1.6737,-1.6314,-1.2343,-1.1401,-1.1124,-1.2522,-1.2919,-1.3658,0.0,0.0,-1.716,-1.7961,-1.8583,-1.9085,-1.9536,-2.0338,-2.0943,-2.1089,-2.2282,-2.3169,-2.2995,-2.3197,-2.3263,-2.2821,-2.2869,-2.2747,-2.2381,-2.2618,-2.2759,-2.2759,-2.2969,-2.3057,-2.3057,-2.3461,-2.3721,-2.3721,-2.4082,-2.4268,-2.4268,-2.4359,-2.4405,-2.4405,-2.4157,-2.4024,-2.4049,-2.4469,-2.4669,-2.4701,-2.5453,-2.5777,-2.5777,-2.5861,-2.5986,-2.6152,-2.6942,-2.7047,-2.6713,-2.6801,-2.6659,-2.6496,-2.6425,-2.6288,-2.6054,-2.5636,-2.5545,-2.5561,-2.4967,-2.5016,-2.5194,-2.504,-2.5051,-2.5133,-2.5108,-2.476,-2.44,-2.4434,-2.4049,-2.371,-2.371,-2.33,-2.2927,-2.2927,-2.2522,-2.2173,-2.2113,-2.2101,-2.1765,-2.0737,-2.0586,-2.0579,-2.0519,-2.0502,-2.031,-1.9784,-1.9724,-1.9531,-1.9035,-1.8506,-1.8181,-1.8109,-1.7506,-1.7121,-1.7108,-1.6818,-1.688,-1.7401,-1.6834,-1.6795,-1.7315,-1.7315,-1.7315,-1.7327,-1.7733,-1.7319,-1.4321,-1.3855,-1.3665,0.0,-1.5524,-1.6367,-1.7551,-1.8219,-1.8715,-1.9262,-1.9916,-2.0402,-2.0585,-2.1273,-2.1896,-2.2099,-2.2904,-2.3517,-2.3639,-2.3834,-2.3831,-2.343,-2.3469,-2.322,-2.2479,-2.3025,-2.3285,-2.2989,-2.3047,-2.3208,-2.3506,-2.3691,-2.3906,-2.415,-2.4326,-2.4414,-2.4414,-2.4414,-2.4414,-2.4414,-2.3984,-2.3789,-2.3824,-2.3726,-2.3691,-2.3691,-2.4069,-2.4531,-2.5031,-2.5031,-2.5326,-2.5819,-2.6246,-2.6329,-2.6315,-2.7312,-2.7537,-2.7305,-2.6987,-2.683,-2.6709,-2.6316,-2.6225,-2.6253,-2.6076,-2.5888,-2.5769,-2.5709,-2.5517,-2.5312,-2.5312,-2.5143,-2.4975,-2.4975,-2.459,-2.4206,-2.4206,-2.3809,-2.3384,-2.3071,-2.283,-2.242,-2.1679,-2.1557,-2.1292,-2.0449,-2.1016,-2.1434,-2.1091,-2.1067,-2.0863,-2.0322,-2.0273,-2.0177,-1.9961,-1.9732,-1.9612,-1.9612,-1.903,-1.8689,-1.8596,-1.8104,-1.8028,-1.8468,-1.7798,-1.7882,-1.8752,-1.8442,-1.8414,-1.8724,-1.8942,-1.8788,-1.5557,-1.5608,-1.5733,-1.6442,-1.755,-1.8476,-1.8557,-1.9237,-1.9888,-2.0149,-2.0796,-2.1282,-2.1282,-2.1851,-2.2419,-2.284,-2.3242,-2.3684,-2.4196,-2.4242,-2.4079,-2.3758,-2.3794,-2.3525,-2.2577,-2.3162,-2.3525,-2.3286,-2.3276,-2.3457,-2.3769,-2.4014,-2.4277,-2.459,-2.4717,-2.4775,-2.4775,-2.4775,-2.4775,-2.4729,-2.4346,-2.4141,-2.4121,-2.3574,-2.3208,-2.3091,-2.3091,-2.3474,-2.4112,-2.4112,-2.4488,-2.5073,-2.5326,-2.5453,-2.561,-2.704,-2.7429,-2.7313,-2.7172,-2.7123,-2.712,-2.6963,-2.6912,-2.6888,-2.6908,-2.6609,-2.6322,-2.6322,-2.6045,-2.5721,-2.5564,-2.5528,-2.5421,-2.5052,-2.4684,-2.4341,-2.4132,-2.3698,-2.3229,-2.2866,-2.2678,-2.2259,-2.1345,-2.1067,-2.0803,-2.0325,-2.1035,-2.1471,-2.1096,-2.1084,-2.1039,-2.0846,-2.0706,-2.061,-2.0598,-2.0396,-2.0309,-2.0309,-1.993,-1.966,-1.9519,-1.9183,-1.9116,-1.9315,-1.8815,-1.8914,-1.9688,-1.9298,-1.931,-1.9688,-1.9688,-1.9688,-1.5803,-1.5986,-1.6462,-1.7266,-1.8366,-1.9375,-1.9747,-2.0484,-2.1053,-2.1071,-2.1376,-2.1668,-2.1668,-2.2007,-2.2419,-2.284,-2.3242,-2.3733,-2.4375,-2.4135,-2.3869,-2.3729,-2.3886,-2.3698,-2.288,-2.2979,-2.3286,-2.374,-2.3769,-2.3779,-2.3789,-2.458,-2.5086,-2.5096,-2.5469,-2.5645,-2.5645,-2.5645,-2.5645,-2.5645,-2.5244,-2.5077,-2.5047,-2.416,-2.3545,-2.3091,-2.3091,-2.3135,-2.3135,-2.3135,-2.3178,-2.3266,-2.4198,-2.4541,-2.4669,-2.5537,-2.5872,-2.5986,-2.6876,-2.7203,-2.7244,-2.7549,-2.7666,-2.7558,-2.7054,-2.6885,-2.6873,-2.6873,-2.6861,-2.6717,-2.6214,-2.6069,-2.5756,-2.4452,-2.4133,-2.3916,-2.3184,-2.2626,-2.2251,-2.224,-2.1786,-2.1435,-2.1413,-2.1022,-2.0706,-2.0672,-2.0391,-2.0161,-2.015,-2.0239,-2.0602,-2.129,-2.0923,-2.0598,-2.0603,-1.9942,-1.9531,-1.9531,-1.952,-1.9449,-1.932,-1.9802,-1.9989,-1.9878,-1.9731,-1.9666,-1.9688,-1.9677,-1.9677,-1.9688,-1.9688,-1.9688,-1.6853,-1.7385,-1.8164,-1.9237,-2.0008,-2.0613,-2.0991,-2.1293,-2.1403,-2.1163,-2.1218,-2.1236,-2.0927,-2.1431,-2.2025,-2.2428,-2.3202,-2.3927,-2.4424,-2.4485,-2.4307,-2.3953,-2.3895,-2.3751,-2.347,-2.353,-2.3516,-2.3369,-2.3623,-2.3906,-2.4189,-2.4756,-2.5205,-2.5508,-2.5615,-2.5693,-2.5693,-2.5693,-2.5693,-2.5684,-2.5283,-2.4959,-2.4629,-2.4336,-2.3975,-2.3574,-2.3574,-2.3408,-2.3091,-2.3091,-2.3091,-2.3135,-2.344,-2.356,-2.3604,-2.3897,-2.4016,-2.4231,-2.5746,-2.6287,-2.6389,-2.714,-2.7387,-2.7432,-2.7833,-2.7702,-2.7414,-2.7414,-2.7162,-2.6849,-2.6657,-2.6609,-2.628,-2.4974,-2.465,-2.4337,-2.3246,-2.2863,-2.2619,-2.2266,-2.2034,-2.1649,-2.0807,-2.0547,-2.0267,-1.9829,-1.9972,-2.0096,-2.0096,-2.0158,-2.0271,-2.0504,-2.0389,-2.0256,-2.0276,-2.0026,-1.99,-1.99,-1.957,-1.9546,-1.9932,-1.9703,-1.965,-1.984,-1.9714,-1.9723,-1.9954,-1.9994,-2.0263,-2.0707,-2.0707,-2.0707,-1.7779,-1.8531,-1.9363,-2.0466,-2.1034,-2.1401,-2.1632,-2.1577,-2.1348,-2.0979,-2.0787,-2.0567,-2.0163,-2.047,-2.1145,-2.1934,-2.2649,-2.3474,-2.4515,-2.4458,-2.4344,-2.4378,-2.4049,-2.3848,-2.4004,-2.4014,-2.3838,-2.3364,-2.3916,-2.4297,-2.4414,-2.498,-2.5439,-2.5674,-2.5693,-2.5693,-2.5693,-2.5693,-2.5693,-2.5684,-2.5449,-2.5078,-2.4648,-2.4648,-2.4414,-2.4014,-2.4014,-2.3848,-2.3539,-2.3393,-2.3369,-2.3315,-2.3159,-2.3091,-2.3091,-2.3091,-2.3091,-2.3309,-2.4829,-2.5326,-2.5495,-2.6423,-2.6712,-2.6794,-2.7377,-2.7267,-2.7011,-2.7011,-2.6779,-2.6527,-2.6673,-2.6703,-2.6359,-2.5051,-2.4589,-2.4089,-2.2679,-2.225,-2.2039,-2.1718,-2.1618,-2.1376,-2.0545,-2.0289,-1.9945,-1.938,-1.961,-1.9851,-1.9949,-1.9961,-1.9996,-2.0085,-2.0096,-2.0096,-2.0096,-1.9868,-1.9704,-1.9704,-1.9393,-1.9382,-1.9816,-1.9612,-1.959,-1.9805,-1.9601,-1.9588,-1.9802,-1.9972,-2.0312,-2.0796,-2.0999,-2.1126,-1.8586,-1.9372,-2.0195,-2.0979,-2.1475,-2.1714,-2.1668,-2.1383,-2.0952,-2.0512,-2.0076,-1.9664,0.0,0.0,-1.9797,-2.1339,-2.1713,-2.2501,-2.4579,-2.4259,-2.4144,0.0,0.0,0.0,0.0,0.0,-2.4219,-2.3818,-2.4636,-2.493,-2.4473,-2.5216,-2.5693,-2.5693,-2.5693,-2.5693,-2.5693,-2.5693,-2.5693,-2.5693,-2.5693,-2.5518,-2.5145,-2.5145,-2.4863,-2.4453,-2.4453,-2.4434,-2.4385,-2.3984,-2.3828,-2.3779,-2.3325,-2.3159,-2.3159,-2.3159,-2.3149,-2.3251,-2.4153,-2.4433,-2.4584,-2.5453,-2.5746,-2.5735,-2.5788,-2.5777,-2.5777,-2.5777,-2.5777,-2.5887,-2.6256,-2.6382,-2.6018,-2.4682,-2.4033,-2.3249,-2.157,-2.0937,-2.0664,-2.0644,-2.0615,-2.0605,-2.0605,-2.0225,-1.9814,-1.9414,-1.9355,-1.9433,-1.9657,-1.9665,-1.9774,-2.003,-2.0074,-2.0074,-2.0074,-1.9416,-1.9016,-1.9016,-1.8985,-1.9019,-1.9073,-1.9495,-1.9791,-1.9812,-1.9517,-1.9318,-1.9306,-1.9647,-1.9911,-2.0107,-2.0638,-2.0971,-1.9833,-2.0869,-2.1759,-2.1916,-2.2053,-2.197,-2.141,-2.0952,-2.0383,-1.9384,-1.8823,-1.8329,0.0,0.0,0.0,-2.0177,-2.1708,0.0,-2.4287,-2.4861,0.0,-2.5098,0.0,-2.418,-2.3975,-2.3945,-2.3906,-2.3799,-2.4636,-2.5067,-2.4912,-2.543,-2.5693,-2.5693,-2.5693,-2.5693,-2.5693,-2.5693,-2.5693,-2.5693,-2.5693,-2.5625,-2.5566,-2.5566,-2.5322,-2.4902,-2.4902,-2.4717,-2.4414,-2.4307,-2.4258,-2.4248,-2.4131,-2.4092,-2.4092,-2.4092,-2.3896,-2.3668,-2.388,-2.3751,-2.3604,-2.4531,-2.4829,-2.4956,-2.5621,-2.5777,-2.5777,-2.5777,-2.5777,-2.5839,-2.5926,-2.5934,-2.5607,-2.4269,-2.3864,-2.3401,-2.2024,-2.1631,-2.1455,-2.1123,-2.0791,-2.0605,-2.0605,-2.0507,-2.04,-2.0292,-2.0282,-2.0046,-1.9462,-1.9399,-1.9431,-1.949,-1.9515,-1.9515,-1.9515,-1.9338,-1.9231,-1.9231,-1.8889,-1.9083,-1.9932,-1.9474,-1.9466,-1.9988,-1.9978,-1.9785,-1.945,-1.9943,-2.0177,-2.0167,-2.0306,-2.041,-2.0879,-2.1769,-2.251,-2.2327,-2.2282,-2.2025,-2.0851,-2.0273,-1.954,-1.7981,-1.7339,0.0,-1.623,-1.6963,-1.8137,0.0,0.0,0.0,-2.4307,-2.4746,-2.5062,0.0,-2.4795,0.0,-2.4629,-2.4639,-2.4639,-2.4639,-2.4902,-2.5116,-2.5116,-2.5488,-2.5693,-2.5693,-2.5693,-2.5693,-2.5693,-2.5693,-2.5693,-2.5693,-2.5693,-2.5693,-2.5693,-2.5693,-2.5596,-2.5361,-2.5361,-2.5225,-2.498,-2.4785,-2.4697,-2.4687,-2.4492,-2.4414,-2.4414,-2.4414,-2.4268,-2.4062,-2.4062,-2.3906,-2.3677,-2.3864,-2.3897,-2.3983,-2.4488,-2.4606,-2.4606,-2.4606,-2.4606,-2.4691,-2.5115,-2.5242,-2.5052,-2.4294,-2.396,-2.3494,-2.2407,-2.2012,-2.1816,-2.1562,-2.1318,-2.1124,-2.0889,-2.0859,-2.0791,-2.0635,-2.0605,-2.0429,-1.995,-1.9678,-1.9492,-1.9307,-1.9287,-1.9287,-1.9287,-1.9287,-1.9287,-1.9287,-1.9053,-1.9203,-1.9827,-1.9399,-1.9274,-1.9604,-1.9651,-1.9453,-1.9012,-1.9548,-1.9791,-1.9781,-1.9996,-2.0129,-2.1742,-2.2446,-2.295,-2.2483,-2.2318,-2.1842,-2.0186,-1.9439,-1.8513,-1.6526,0.0,-1.534,-1.5001,-1.5652,-1.6985,-1.9181,0.0,-2.2221,-2.4343,-2.4285,-2.4455,-2.5586,-2.4904,-2.4736,-2.5518,-2.5547,-2.5538,-2.5644,-2.5283,-2.5145,-2.5204,-2.5527,-2.5693,-2.5693,-2.5693,-2.5693,-2.5693,-2.5693,-2.5693,-2.5693,-2.5693,-2.5693,-2.5693,-2.5693,-2.5693,-2.5693,-2.5693,-2.5693,-2.5664,-2.5322,-2.5156,-2.5117,-2.4746,-2.459,-2.459,-2.459,-2.4551,-2.4502,-2.4502,-2.4463,-2.4297,-2.351,-2.3266,-2.3247,-2.3198,-2.3179,-2.3169,-2.311,-2.3091,-2.3309,-2.4112,-2.4368,-2.4399,-2.4337,-2.407,-2.3561,-2.2768,-2.2266,-2.1973,-2.1973,-2.1924,-2.1768,-2.1346,-2.1278,-2.1132,-2.0723,-2.0693,-2.0674,-2.0615,-2.0234,-1.9863,-1.9492,-1.9453,-1.9453,-1.9453,-1.9453,-1.9453,-1.9453,-1.9404,-1.9394,-1.9453,-1.9346,-1.9273,-1.9205,-1.912,-1.8926,-1.8602,-1.9038,-1.925,-1.9213,-1.968,-1.9962,-2.2584,-2.3336,-2.3767,-2.2977,-2.2538,-2.1769,-1.9861,-1.8577,0.0,0.0,-1.4717,-1.4205,-1.4131,-1.5161,-1.6645,-1.8433,-2.0294,-2.2121,-2.3929,-2.4287,-2.4652,0.0,-2.4904,-2.4619,-2.5137,-2.4853,-2.4795,-2.5156,-2.5165,-2.5234,-2.5605,-2.5645,-2.5693,-2.5693,-2.5693,-2.5693,-2.5693,-2.5693,-2.5693,-2.5693,-2.5693,-2.5693,-2.5693,-2.5693,-2.5693,-2.5693,-2.5693,-2.5693,-2.5684,-2.5606,-2.5625,-2.5567,-2.5489,-2.546,-2.546,-2.546,-2.5273,-2.4998,-2.4998,-2.4717,-2.4394,-2.4238,-2.4153,-2.4131,-2.3779,-2.3682,-2.3603,-2.3198,-2.3091,-2.3144,-2.3309,-2.3619,-2.3797,-2.3442,-2.357,-2.3634,-2.3105,-2.2705,-2.2402,-2.2402,-2.2129,-2.1865,-2.1787,-2.1777,-2.1621,-2.1142,-2.1123,-2.0986,-2.0654,-2.0537,-2.0458,-2.039,-2.038,-2.038,-2.038,-2.038,-2.038,-2.038,-2.001,-1.9971,-2.037,-1.9668,-1.9619,-2.0294,-1.9773,-1.9535,-1.9646,-1.9578,-1.9451,-1.9286,-1.9364,-1.9433,-2.2858,-2.3547,-2.4009,-2.3105,-2.2593,-2.1641,-1.9246,0.0,0.0,0.0,-1.37,-1.3277,-1.3277,-1.4395,0.0,-1.743,-1.9096,-2.0988,-2.327,-2.329,-2.376,-2.5479,-2.4904,-2.4678,-2.5352,-2.5225,-2.5185,-2.54,-2.541,-2.5508,-2.5674,-2.5693,-2.5693,-2.5693,-2.5693,-2.5693,-2.5693,-2.5693,-2.5693,-2.5693,-2.5693,-2.5693,-2.5693,-2.5693,-2.5693,-2.5693,-2.5693,-2.5693,-2.5693,-2.5693,-2.5693,-2.5693,-2.5693,-2.5693,-2.5693,-2.5693,-2.5605,-2.541,-2.541,-2.5273,-2.506,-2.506,-2.4795,-2.4375,-2.418,-2.4111,-2.4072,-2.3857,-2.3652,-2.3477,-2.3477,-2.3467,-2.3398,-2.314,-2.3257,-2.3344,-2.314,-2.2935,-2.2789,-2.2789,-2.2676,-2.2471,-2.2246,-2.2207,-2.206,-2.1641,-2.1572,-2.1494,-2.1279,-2.129,-2.1114,-2.0654,-2.0605,-2.0605,-2.0605,-2.0605,-2.0605,-2.0605,-2.041,-2.039,-2.0595,-2.0204,-2.0108,-2.045,-2.014,-1.9907,-1.9754,-1.9645,-1.9518,-1.9301,-1.9301,-1.9301,-2.2885,-2.3547,-2.4009,-2.3105,-2.2465,-2.1346,-1.8614,-1.7229,0.0,0.0,-1.2881,-1.2614,-1.2722,0.0,-1.5003,0.0,-1.7887,-1.9733,-2.2415,-2.2253,-2.2803,0.0,-2.4893,0.0,-2.5606,-2.5693,-2.5693,-2.5693,-2.5693,-2.5693,-2.5693,-2.5693,-2.5693,-2.5693,-2.5693,-2.5693,-2.5693,-2.5693,-2.5693,-2.5693,-2.5693,-2.5693,-2.5693,-2.5693,-2.5693,-2.5693,-2.5693,-2.5693,-2.5693,-2.5693,-2.5693,-2.5693,-2.5693,-2.5693,-2.5693,-2.5693,-2.5693,-2.5693,-2.5693,-2.5693,-2.5693,-2.5693,-2.5216,-2.4678,-2.459,-2.456,-2.4531,-2.4443,-2.418,-2.3926,-2.3926,-2.374,-2.3481,-2.3393,-2.3296,-2.3208,-2.311,-2.3091,-2.3091,-2.3091,-2.3091,-2.2994,-2.2662,-2.2646,-2.251,-2.209,-2.2021,-2.1992,-2.1894,-2.1885,-2.1621,-2.0957,-2.0801,-2.0713,-2.0615,-2.0605,-2.0605,-2.0605,-2.0605,-2.0605,-2.0605,-2.0605,-2.0527,-2.0381,-2.0303,-2.0069,-1.9676,-1.9606,-1.9518,-1.9301,-1.9301,-1.9301,-2.2803,-2.3547,-2.4009,-2.3105,-2.2034,-2.0618,-1.8267,0.0,0.0,-1.3263,-1.2508,-1.2291,-1.2779,-1.344,0.0,0.0,0.0,-1.8961,-2.1407,-2.1841,-2.2695,-2.492,0.0,0.0,-2.5606,-2.5693,-2.5693,-2.5693,-2.5693,-2.5693,-2.5693,-2.5693,-2.5693,-2.5693,-2.5693,-2.5693,-2.5693,-2.5693,-2.5693,-2.5693,-2.5693,-2.5693,-2.5693,-2.5693,-2.5693,-2.5693,-2.5693,-2.5693,-2.5693,-2.5693,-2.5693,-2.5693,-2.5693,-2.5693,-2.5693,-2.5693,-2.5693,-2.5693,-2.5693,-2.5693,-2.5693,-2.5693,-2.5635,-2.5489,-2.5137,-2.5057,-2.4969,-2.4531,-2.4385,-2.4355,-2.4355,-2.4629,-2.4795,-2.4394,-2.4014,-2.3623,-2.3179,-2.3091,-2.3091,-2.3091,-2.3091,-2.3081,-2.3042,-2.3033,-2.2896,-2.2519,-2.2451,-2.2314,-2.1934,-2.1885,-2.1855,-2.1768,-2.1406,-2.1006,-2.0635,-2.0605,-2.0605,-2.0605,-2.0605,-2.0605,-2.0605,-2.0605,-2.0605,-2.0566,-2.0381,-2.0147,-1.9863,-1.9676,-1.9518,-1.9301,-1.9301,-1.9301,-2.2107,-2.2767,-2.329,-2.2908,-2.1845,-2.0398,-1.8404,0.0,-1.4934,-1.3242,-1.2528,-1.2305,-1.2513,-1.3006,-1.3747,0.0,0.0,0.0,-1.9329,-1.9809,-2.0918,-2.3594,-2.3984,-2.4492,-2.5577,-2.5693,-2.5693,-2.5693,-2.5693,-2.5693,-2.5693,-2.5693,-2.5693,-2.5693,-2.5693,-2.5693,-2.5693,-2.5693,-2.5693,-2.5693,-2.5693,-2.5693,-2.5693,-2.5693,-2.5693,-2.5693,-2.5693,-2.5693,-2.5693,-2.5693,-2.5693,-2.5693,-2.5693,-2.5693,-2.5693,-2.5693,-2.5693,-2.5693,-2.5693,-2.5693,-2.5693,-2.5693,-2.5693,-2.5654,-2.5527,-2.5469,-2.543,-2.5264,-2.5019,-2.4805,-2.4805,-2.4746,-2.4629,-2.4453,-2.4287,-2.4121,-2.39,-2.3711,-2.3525,-2.3525,-2.3276,-2.3091,-2.3091,-2.3091,-2.3042,-2.2877,-2.2847,-2.2789,-2.2656,-2.2637,-2.2539,-2.2295,-2.1885,-2.1553,-2.1417,-2.1398,-2.1398,-2.1398,-2.1398,-2.1398,-2.1398,-2.1398,-2.1398,-2.1398,-2.1146,-2.0964,-2.0883,-2.0536,-2.0331,-2.024,-2.0117,-2.0035,-2.1418,-2.2189,-2.2806,-2.2582,-2.1603,-2.0202,0.0,-1.6546,-1.4923,-1.3143,-1.2554,-1.2357,-1.2357,-1.2717,-1.3258,0.0,0.0,-1.5654,-1.8064,-1.8634,-1.9805,-2.2409,0.0,-2.3877,-2.5049,-2.546,-2.5693,-2.5693,-2.5693,-2.5693,-2.5693,-2.5693,-2.5693,-2.5693,-2.5693,-2.5693,-2.5693,-2.5693,-2.5693,-2.5693,-2.5693,-2.5693,-2.5693,-2.5693,-2.5693,-2.5693,-2.5693,-2.5693,-2.5693,-2.5693,-2.5693,-2.5693,-2.5693,-2.5693,-2.5693,-2.5693,-2.5693,-2.5693,-2.5693,-2.5693,-2.5693,-2.5693,-2.5693,-2.5693,-2.5693,-2.5693,-2.5693,-2.5693,-2.5508,-2.5264,-2.5264,-2.5039,-2.4775,-2.4639,-2.4609,-2.458,-2.4443,-2.418,-2.3975,-2.3975,-2.3623,-2.3286,-2.3286,-2.3286,-2.3247,-2.311,-2.3208,-2.3247,-2.311,-2.3091,-2.2984,-2.2734,-2.2432,-2.2158,-2.1904,-2.1885,-2.1885,-2.1885,-2.1885,-2.1885,-2.1885,-2.1885,-2.1843,-2.1802,-2.1649,-2.1556,-2.1422,-2.114,-2.0941,-2.0899,-2.0605,-2.0521,-2.0839,-2.1891,-2.2609,-2.2208,-2.1344,-1.9962,-1.756,-1.5983,-1.4535,-1.2856,-1.2505,-1.2505,-1.2505,-1.2603,-1.2955,-1.3755,-1.442,0.0,-1.8064,-1.8932,-1.9932,0.0,-2.2266,-2.2871,-2.3721,-2.498,-2.5693,-2.5693,-2.5693,-2.5693,-2.5693,-2.5693,-2.5693,-2.5693,-2.5693,-2.5693,-2.5693,-2.5693,-2.5693,-2.5693,-2.5693,-2.5693,-2.5693,-2.5693,-2.5693,-2.5693,-2.5693,-2.5693,-2.5693,-2.5693,-2.5693,-2.5693,-2.5693,-2.5693,-2.5693,-2.5693,-2.5693,-2.5693,-2.5693,-2.5693,-2.5693,-2.5693,-2.5693,-2.5693,-2.5693,-2.5693,-2.5693,-2.5693,-2.5684,-2.5684,-2.5684,-2.5674,-2.5567,-2.5166,-2.5106,-2.4988,-2.4512,-2.4414,-2.4414,-2.4414,-2.4072,-2.3779,-2.3779,-2.3779,-2.3633,-2.3159,-2.3506,-2.3623,-2.3149,-2.3091,-2.3091,-2.3091,-2.3081,-2.275,-2.1953,-2.1885,-2.1885,-2.1885,-2.1885,-2.1885,-2.1885,-2.1885,-2.1802,-2.1502,-2.1761,-2.1668,-2.1182,-2.1182,-2.1099,-2.0899,-2.0605,-2.0521,-1.8647,-1.9444,-2.0143,-1.995,-1.9278,-1.8232,-1.6738,-1.5594,-1.4452,-1.294,-1.2627,-1.2627,-1.2627,-1.2676,-1.3173,-1.4571,-1.5022,0.0,0.0,0.0,0.0,-2.1309,-2.3335,-2.4777,-2.505,-2.545,-2.5693,-2.5693,-2.5693,-2.5693,-2.5693,-2.5693,-2.5693,-2.5693,-2.5693,-2.5693,-2.5693,-2.5693,-2.5693,-2.5693,-2.5693,-2.5693,-2.5693,-2.5693,-2.5693,-2.5693,-2.5693,-2.5693,-2.5693,-2.5693,-2.5693,-2.5693,-2.5693,-2.5693,-2.5693,-2.5693,-2.5693,-2.5693,-2.5693,-2.5693,-2.5693,-2.5693,-2.5693,-2.5693,-2.5693,-2.5693,-2.5693,-2.5693,-2.5693,-2.5693,-2.5693,-2.5693,-2.5654,-2.5557,-2.5527,-2.5488,-2.5304,-2.5078,-2.4863,-2.4863,-2.4512,-2.4219,-2.4219,-2.4219,-2.4072,-2.3643,-2.3701,-2.3633,-2.3149,-2.3091,-2.3091,-2.3091,-2.3091,-2.2984,-2.2721,-2.2744,-2.2744,-2.2744,-2.2744,-2.2744,-2.2744,-2.2744,-2.2615,-2.2399,-2.2486,-2.2356,-2.2044,-2.187,-2.1705,-2.1443,-2.1346,-2.1302,0.0,-1.7967,-1.8731,-1.8676,-1.8129,-1.7267,-1.6113,-1.5156,-1.4202,-1.2957,-1.2735,-1.2759,-1.271,-1.2735,-1.3181,-1.4347,-1.475,-1.5439,0.0,0.0,0.0,-2.1492,-2.3617,-2.5021,-2.5177,-2.5499,-2.5693,-2.5693,-2.5693,-2.5693,-2.5693,-2.5693,-2.5693,-2.5693,-2.5693,-2.5693,-2.5693,-2.5693,-2.5693,-2.5693,-2.5693,-2.5693,-2.5693,-2.5693,-2.5693,-2.5693,-2.5693,-2.5693,0.0,-2.5693,-2.5693,-2.5693,-2.5693,-2.5693,-2.5693,-2.5693,-2.5693,-2.5693,-2.5693,-2.5693,-2.5693,-2.5693,-2.5693,-2.5693,-2.5693,-2.5693,-2.5693,-2.5693,-2.5693,-2.5693,-2.5693,-2.5693,-2.5693,-2.5693,-2.5693,-2.5693,-2.5693,-2.5518,-2.5322,-2.5322,-2.4971,-2.4668,-2.4668,-2.4668,-2.4512,-2.4092,-2.4033,-2.3877,-2.3437,-2.3198,-2.3091,-2.3091,-2.3091,-2.3091,-2.3091,-2.3091,-2.3091,-2.3091,-2.3091,-2.3091,-2.3091,-2.3091,-2.3013,-2.2803,-2.2803,-2.2671,-2.2397,-2.2185,-2.1963,-2.1696,-2.1696,-2.1696,0.0,-1.7133,-1.8021,-1.8027,-1.7567,-1.6816,-1.5566,-1.463,0.0,-1.2889,-1.2808,-1.2876,-1.2812,-1.2847,-1.3066,-1.3643,-1.4016,-1.4991,-1.7168,-1.8301,-1.9816,-2.2393,-2.3418,-2.4082,-2.4473,-2.5206,-2.5693,-2.5693,-2.5713,-2.5732,-2.5732,-2.5732,-2.5732,-2.5732,-2.5703,-2.5693,-2.5693,-2.5693,-2.5693,-2.5693,-2.5693,-2.5693,-2.5693,-2.5693,-2.5693,-2.5693,-2.5693,-2.5693,-2.5693,-2.5693,-2.5693,-2.5693,-2.5693,-2.5693,-2.5693,-2.5693,-2.5693,-2.5693,-2.5693,-2.5693,-2.5693,-2.5693,-2.5713,-2.5732,-2.5732,-2.5713,-2.5693,-2.5693,-2.5693,-2.5693,-2.5693,-2.5693,-2.5693,-2.5693,-2.5693,-2.5693,-2.5693,-2.5693,-2.5693,-2.5693,-2.54,-2.5117,-2.5117,-2.5117,-2.4971,-2.4531,-2.4463,-2.4307,-2.3887,-2.3477,-2.3188,-2.3188,-2.3159,-2.3149,-2.3179,-2.313,-2.3091,-2.3091,-2.3101,-2.3101,-2.3091,-2.3101,-2.3013,-2.2803,-2.2759,-2.2618,-2.2353,-2.2176,-2.1919,-2.1696,-2.1696,-2.1696,-1.3834,0.0,-1.5349,-1.5139,-1.4992,-1.4708,0.0,-1.3799,-1.348,-1.2964,-1.2881,-1.3076,-1.3669,-1.3285,-1.3564,-1.5615,-1.5771,-1.625,-1.8052,-2.0186,-2.2314,-2.4238,-2.4951,-2.5274,-2.5372,-2.5567,-2.5693,-2.5693,-2.6045,-2.624,-2.624,-2.624,-2.624,-2.624,-2.5908,-2.5693,-2.5693,-2.5693,-2.5693,-2.5693,-2.5693,-2.5693,-2.5693,-2.5693,-2.5693,-2.5693,-2.5693,-2.5693,-2.5693,-2.5693,-2.5693,-2.5693,-2.5693,-2.5693,-2.5693,-2.5693,-2.5693,-2.5693,-2.5693,-2.5693,-2.5693,-2.5693,-2.5967,-2.624,-2.624,-2.6006,-2.5693,-2.5693,-2.5693,-2.5693,-2.5693,-2.5693,-2.5693,-2.5693,-2.5693,-2.5693,-2.5693,-2.5693,-2.5693,-2.5693,-2.5606,-2.5586,-2.5586,-2.5586,-2.543,-2.498,-2.4959,-2.4756,-2.4326,-2.418,-2.4066,-2.4066,-2.3828,-2.3769,-2.4092,-2.3471,-2.3091,-2.3091,-2.2969,-2.2925,-2.3091,-2.2969,-2.2847,-2.2803,-2.2451,-2.2141,-2.1865,-2.183,-2.1785,-2.1696,-2.1696,-2.1696,-1.3013,-1.3852,-1.4587,-1.4465,-1.425,-1.4046,-1.3821,0.0,0.0,0.0,0.0,0.0,-1.3704,-1.3633,-1.3984,-1.5576,-1.6143,-1.7178,-1.9465,-2.1719,-2.3584,-2.4959,-2.5469,-2.5693,-2.5693,-2.5693,-2.5693,-2.5693,-2.6143,-2.6387,-2.6387,-2.6572,-2.6592,-2.6396,-2.6162,-2.5937,-2.5693,-2.5693,-2.5693,-2.5693,-2.5693,-2.5693,-2.5693,-2.5693,-2.5693,-2.5693,-2.5693,-2.5693,-2.5693,-2.5693,-2.5693,-2.5693,-2.5693,-2.5693,-2.5693,-2.5693,-2.5693,-2.5693,-2.5693,-2.582,-2.6064,-2.626,-2.6484,-2.668,-2.668,-2.6514,-2.6289,-2.6094,-2.5889,-2.5693,-2.5693,-2.5693,-2.5693,-2.5693,-2.5693,-2.5693,-2.5693,-2.5693,-2.5693,-2.5693,-2.5693,-2.5693,-2.5693,-2.5693,-2.5606,-2.541,-2.5205,-2.5028,-2.4746,-2.4541,-2.4414,-2.4414,-2.4209,-2.417,-2.4394,-2.3949,-2.3598,-2.3447,-2.3032,-2.2847,-2.2969,-2.2838,-2.2759,-2.2618,-2.2353,-2.2043,-2.1696,-2.1696,-2.1696,-2.1696,-2.1696,-2.1696,-1.3012,-1.3916,-1.4736,-1.4568,-1.4268,-1.3997,-1.3929,0.0,0.0,0.0,0.0,0.0,0.0,-1.4065,0.0,-1.5264,-1.6523,-1.8344,-2.1103,-2.2891,-2.4209,-2.5068,-2.5508,-2.5693,-2.5693,-2.5693,-2.5693,-2.5693,-2.6201,-2.6484,-2.6484,-2.6816,-2.6846,-2.6494,-2.6357,-2.6113,-2.5693,-2.5693,-2.5693,-2.5693,-2.5693,-2.5693,-2.5693,-2.5693,-2.5693,-2.5693,-2.5693,-2.5693,-2.5693,-2.5693,-2.5693,-2.5693,-2.5693,-2.5693,-2.5693,-2.5693,-2.5693,-2.5703,-2.5762,-2.6162,-2.6631,-2.6914,-2.706,-2.7119,-2.7119,-2.707,-2.6953,-2.666,-2.6269,-2.5869,-2.5801,-2.5791,-2.5771,-2.5703,-2.5693,-2.5693,-2.5693,-2.5693,-2.5693,-2.5693,-2.5693,-2.5693,-2.5693,-2.5693,-2.5693,-2.5693,-2.541,-2.5166,-2.5166,-2.4844,-2.4619,-2.4619,-2.4551,-2.4541,-2.4609,-2.4492,-2.4297,-2.4004,-2.3361,-2.2996,-2.2951,-2.2996,-2.2824,-2.2447,-2.2492,-2.2232,-2.1696,-2.1696,-2.1696,-2.1696,-2.1751,-2.1751,-1.3584,-1.4355,-1.4549,-1.3463,-1.3389,-1.3516,-1.3154,0.0,0.0,0.0,0.0,0.0,0.0,-1.5176,-1.581,-1.7701,-1.9416,-2.1094,-2.2646,-2.3711,-2.4648,-2.5479,-2.5645,-2.5693,-2.5693,-2.5693,-2.5693,-2.5693,-2.6475,-2.6914,-2.6914,-2.6982,-2.6982,-2.6914,-2.6161,-2.5752,-2.5693,-2.5693,-2.5693,-2.5693,-2.5693,-2.5693,-2.5693,-2.5693,-2.5693,-2.5693,-2.5693,-2.5693,-2.5693,-2.5693,-2.5693,-2.5693,-2.5693,-2.5693,-2.5693,-2.5693,-2.5693,-2.5742,-2.6162,-2.6807,-2.7474,-2.7119,-2.7266,-2.7568,-2.7568,-2.7314,-2.708,-2.7383,-2.7158,-2.6738,-2.6377,-2.6289,-2.6191,-2.5771,-2.5693,-2.5693,-2.5693,-2.5693,-2.5693,-2.5693,-2.5693,-2.5693,-2.5693,-2.5693,-2.5693,-2.5693,-2.5625,-2.5586,-2.5586,-2.5528,-2.5489,-2.5489,-2.5195,-2.5127,-2.545,-2.4797,-2.4551,-2.49,-2.4287,-2.3815,-2.3585,-2.3714,-2.345,-2.2654,-2.2881,-2.2576,-2.1696,-2.1696,-2.1696,-2.1705,-2.2034,-2.2016,-1.3112,-1.3561,-1.3649,-1.3565,-1.4228,-1.4803,-1.4346,-1.4248,0.0,0.0,0.0,0.0,0.0,0.0,-1.7598,-2.0,-2.125,-2.2373,-2.3662,-2.417,-2.4746,-2.5586,-2.5693,-2.5693,-2.5693,-2.5693,-2.5693,-2.5693,-2.6318,-2.668,-2.668,-2.6894,-2.6914,-2.668,-2.6299,-2.5977,-2.5693,-2.5693,-2.5693,-2.5693,-2.5693,-2.5693,-2.5693,-2.5693,-2.5693,-2.5693,-2.5693,-2.5693,-2.5693,-2.5693,-2.5693,-2.5693,-2.5693,-2.5693,-2.5664,-2.5267,-2.5164,-2.5317,-2.5909,-2.6806,-2.7718,-2.7695,-2.7842,-2.7998,-2.7998,-2.7861,-2.7744,-2.7791,-2.7415,-2.6973,-2.6777,-2.6728,-2.668,-2.6475,-2.625,-2.6084,-2.6084,-2.5908,-2.5693,-2.5693,-2.5693,-2.5693,-2.5693,-2.5693,-2.5693,-2.5693,-2.5693,-2.5693,-2.5693,-2.5693,-2.5693,-2.5693,-2.5557,-2.5518,-2.5674,-2.5313,-2.4962,-2.4596,-2.373,-2.3102,-2.2867,-2.233,-2.2147,-2.236,-2.236,-2.2418,-2.2557,-2.2437,-2.2346,-2.2355,-2.1953,-2.1655,-1.2925,-1.3093,-1.3078,-1.4134,0.0,-1.5635,-1.5566,-1.5566,0.0,0.0,0.0,0.0,0.0,-1.79,-1.96,-2.1689,-2.2559,-2.333,-2.4414,-2.457,-2.4863,-2.5596,-2.5693,-2.5693,-2.5693,-2.5693,-2.5693,-2.5693,-2.6143,-2.6387,-2.6387,-2.6699,-2.6719,-2.6396,-2.6289,-2.6074,-2.5693,-2.5693,-2.5693,-2.5693,-2.5791,-2.584,-2.584,-2.584,-2.584,-2.584,-2.5732,-2.5693,-2.5693,-2.5693,-2.5693,-2.5684,-2.543,-2.5177,-2.4871,-2.4404,-2.4359,-2.4609,-2.5252,-2.6155,-2.704,-2.7353,-2.7457,-2.7511,-2.7789,-2.7906,-2.7906,-2.7906,-2.7549,-2.7182,-2.7085,-2.7117,-2.7139,-2.7041,-2.6768,-2.6533,-2.6483,-2.622,-2.5986,-2.5937,-2.5937,-2.5957,-2.5859,-2.584,-2.581,-2.5703,-2.5693,-2.5693,-2.5693,-2.5693,-2.5693,-2.5693,-2.5479,-2.5323,-2.5323,-2.5323,-2.4996,-2.4145,-2.3046,-2.2272,-2.2031,-2.1159,-2.102,-2.1756,-2.1564,-2.1944,-2.2914,-2.2404,-2.2271,-2.2517,-2.153,-2.1032,-1.3967,-1.3984,-1.3588,-1.4964,-1.4767,-1.4552,-1.5772,-1.6046,0.0,-1.7103,0.0,0.0,0.0,-2.0176,-2.1797,-2.2373,-2.3486,-2.4453,-2.4998,-2.5067,-2.5195,-2.5635,-2.5693,-2.5693,-2.5693,-2.5693,-2.5693,-2.5693,-2.6143,-2.6387,-2.6387,-2.6416,-2.6416,-2.6387,-2.5996,-2.5713,-2.5693,-2.5693,-2.5693,-2.5693,-2.6143,-2.6338,-2.6338,-2.6338,-2.6338,-2.6318,-2.5869,-2.5693,-2.5693,-2.5693,-2.5693,-2.5586,-2.4599,-2.3592,-2.2736,-2.3014,-2.3375,-2.3737,-2.4087,-2.4511,-2.4913,-2.4939,-2.4948,-2.5168,-2.63,-2.6636,-2.6808,-2.7682,-2.7868,-2.7723,-2.7319,-2.7441,-2.7519,-2.7109,-2.6992,-2.6912,-2.6657,-2.6739,-2.6822,-2.6608,-2.672,-2.6797,-2.6406,-2.6338,-2.6201,-2.5752,-2.5693,-2.5693,-2.5693,-2.5693,-2.5693,-2.5693,-2.4815,-2.4245,-2.4245,-2.4245,-2.4168,-2.4104,-2.2856,-2.2005,-2.1761,-2.166,-2.1352,-2.0834,-2.0801,-2.1128,-2.1817,-2.0563,-2.0418,-2.1405,-2.0696,-2.018,-1.2842,-1.3104,-1.3221,-1.4955,-1.5371,0.0,0.0,-1.7686,-1.8398,-1.9541,-1.9687,0.0,0.0,-2.1143,-2.2197,-2.3154,-2.3711,-2.4365,-2.5352,-2.501,-2.4932,-2.5606,-2.5693,-2.5693,-2.5693,-2.5693,-2.5693,-2.5693,-2.584,-2.5986,-2.5986,-2.5986,-2.5986,-2.5986,-2.5771,-2.5693,-2.5693,-2.5693,-2.5693,-2.5693,-2.5908,-2.6133,-2.6377,-2.6113,-2.6133,-2.6367,-2.5879,-2.5693,-2.5635,-2.4962,-2.4707,-2.4609,-2.3543,-2.2579,-2.1865,-2.2172,-2.2531,-2.2944,-2.3304,-2.3953,-2.4727,-2.4727,-2.4727,-2.4782,-2.5232,-2.5397,-2.5516,-2.6318,-2.6091,-2.5918,-2.7053,-2.7569,-2.7796,-2.7578,-2.7503,-2.736,-2.7039,-2.6879,-2.6695,-2.6644,-2.6695,-2.6672,-2.6455,-2.6387,-2.624,-2.5752,-2.5693,-2.5479,-2.4805,-2.4707,-2.4452,-2.3759,-2.3343,-2.3094,-2.3094,-2.2484,-2.2089,-2.2089,-2.1633,-2.1234,-2.0987,-2.0107,-1.984,-2.0265,-1.9951,-2.0304,-2.1437,-2.0788,-2.0638,-2.1038,-2.005,-1.9534,-1.2307,-1.2502,-1.2766,-1.4869,0.0,0.0,-1.8223,-1.917,-2.0098,-2.1492,-2.1484,-2.1269,-2.1582,-2.1992,-2.2617,-2.3633,-2.3906,-2.4394,-2.5528,-2.4923,-2.4746,-2.5586,-2.5693,-2.5693,-2.5693,-2.5693,-2.5693,-2.5693,-2.5693,-2.5693,-2.5693,-2.5693,-2.5693,-2.5693,-2.5693,-2.5693,-2.5693,-2.5382,-2.5167,-2.5167,-2.4873,-2.5364,-2.6582,-2.5852,-2.5808,-2.6231,-2.5616,-2.517,-2.4805,-2.4301,-2.3692,-2.3035,-2.2291,-2.1556,-2.0938,-2.1225,-2.1557,-2.1961,-2.2309,-2.2918,-2.3575,-2.3575,-2.3575,-2.3679,-2.4069,-2.4172,-2.43,-2.4944,-2.465,-2.4467,-2.5698,-2.6581,-2.7178,-2.7286,-2.7239,-2.7155,-2.6924,-2.6318,-2.586,-2.5869,-2.586,-2.594,-2.6184,-2.6158,-2.6066,-2.6102,-2.5727,-2.5161,-2.4523,-2.3953,-2.3175,-2.2005,-2.224,-2.2341,-2.2038,-2.1336,-2.0885,-2.0885,-2.0585,-2.0285,-2.0034,-1.8997,-1.8722,-1.948,-1.8968,-1.9383,-2.0783,-2.0158,-2.0012,-2.0313,-1.9228,-1.8715,-1.2804,-1.2511,-1.2287,-1.4773,0.0,0.0,-1.9336,-2.0264,-2.1104,-2.275,-2.2822,-2.2529,-2.2519,-2.2881,-2.3355,-2.373,-2.4141,-2.4717,-2.5567,-2.4923,-2.4736,-2.5577,-2.5674,-2.5674,-2.5674,-2.5674,-2.5684,-2.5684,-2.5693,-2.5693,-2.5693,-2.5693,-2.5693,-2.5693,-2.5693,-2.5693,-2.5693,-2.4658,-2.4088,-2.4088,-2.2985,-2.4065,-2.69,-2.5712,-2.5414,-2.5832,-2.4948,-2.3981,-2.3083,-2.3754,-2.2785,-2.0885,-2.0885,-2.0441,-1.9852,-2.012,-2.0387,-2.0772,-2.1094,-2.1211,-2.1211,-2.1211,-2.1211,-2.1432,-2.2652,-2.2982,-2.3087,-2.3712,-2.388,-2.3712,-2.3151,-2.4245,-2.568,-2.5991,-2.6063,-2.6082,-2.6082,-2.5131,-2.4292,-2.4317,-2.43,-2.4616,-2.5675,-2.5602,-2.5784,-2.6814,-2.575,-2.49,-2.5133,-2.3644,-2.2045,-2.0624,-2.1692,-2.2038,-2.0987,-2.0885,-2.0885,-2.0885,-1.9879,-1.9175,-1.8921,-1.8586,-1.8422,-1.8422,-1.7898,-1.8265,-1.968,-1.8265,-1.8146,-1.9176,-1.8094,-1.7582,-1.1442,-1.1837,-1.2587,-1.4773,0.0,0.0,0.0,-2.1182,0.0,0.0,-2.3935,-2.376,-2.3467,-2.3516,-2.374,-2.416,-2.4082,-2.4394,-2.5528,-2.4727,-2.4297,-2.5166,-2.5,-2.4805,-2.4805,-2.5088,-2.5273,-2.5273,-2.5557,-2.5693,-2.5693,-2.5693,-2.5693,-2.5693,-2.5693,-2.5693,-2.5693,-2.4658,-2.4088,-2.4088,-2.2985,-2.3096,-2.4253,-2.3841,-2.3896,-2.4228,-2.3739,-2.3315,-2.292,-2.2189,-2.1038,-1.9776,-1.9776,-1.9777,-1.9852,-2.012,-2.0387,-2.0708,-2.0794,-2.1024,-2.1153,-2.0902,-2.1024,-2.1268,-2.1653,-2.1702,-2.1873,-2.2474,-2.2021,-2.1402,-2.168,-2.2127,-2.2789,-2.3941,-2.4505,-2.4727,-2.4283,-2.4069,-2.3975,-2.3735,-2.3855,-2.408,-2.4239,-2.4879,-2.5192,-2.464,-2.4691,-2.4263,-2.2712,-2.1199,-2.0128,-1.9721,-1.9866,-1.9931,-1.9783,-1.9576,-1.9576,-1.9783,-1.9279,-1.9078,-1.9175,-1.8914,-1.8646,-1.8422,-1.8062,-1.801,-1.8213,-1.7793,-1.7733,-1.8048,-1.774,-1.7582,-1.1506,-1.2049,-1.3008,-1.5517,-1.6871,-1.8424,-2.1535,0.0,0.0,0.0,-2.4658,-2.4394,-2.4316,-2.415,-2.418,-2.4609,-2.4463,-2.4639,-2.5557,-2.4756,-2.4297,-2.5037,-2.4687,-2.4414,-2.4414,-2.4658,-2.4805,-2.4805,-2.5059,-2.5167,-2.5167,-2.5167,-2.5044,-2.4822,-2.5218,-2.515,-2.4412,-2.38,-2.3235,-2.2835,-2.1735,-2.1348,-2.1601,-2.2111,-2.2659,-2.3124,-2.2238,-2.2055,-2.2256,-2.083,-1.9879,-1.9279,-1.9279,-1.9477,-1.9852,-2.012,-2.0387,-2.0708,-2.0673,-2.0902,-2.1146,-2.0673,-2.073,-2.1024,-2.1024,-2.1024,-2.1074,-2.1288,-2.0838,-2.0328,-2.0443,-2.05,-2.0888,-2.2322,-2.2934,-2.3175,-2.3063,-2.2628,-2.2297,-2.233,-2.2289,-2.2397,-2.2894,-2.3461,-2.3834,-2.3661,-2.3744,-2.3153,-2.101,-2.0143,-1.9621,-1.9309,-1.917,-1.9103,-1.9286,-1.9175,-1.913,-1.9279,-1.9026,-1.9026,-1.9279,-1.9026,-1.8817,-1.8593,-1.8174,-1.7911,-1.7747,-1.7635,-1.7582,-1.7582,-1.7582,-1.7582,-1.234,-1.2697,-1.3348,-1.6546,-1.7653,-1.8995,-2.2926,-2.4111,-2.4668,-2.5508,-2.505,-2.4658,-2.5059,-2.4805,-2.4668,-2.5116,-2.5145,-2.5225,-2.5625,-2.4941,-2.4521,-2.4998,-2.459,-2.4297,-2.4297,-2.4336,-2.4365,-2.4365,-2.4394,-2.4414,-2.4414,-2.4414,-2.4161,-2.3581,-2.4421,-2.4161,-2.2581,-2.2365,-2.1837,-2.0837,-1.982,-1.9279,-1.9338,-2.0639,-2.1614,-2.2222,-2.0756,-2.0604,-2.1131,-1.9814,-1.9279,-1.9279,-1.9279,-1.9514,-1.9808,-2.0077,-2.0343,-2.0664,-2.063,-2.0881,-2.1096,-2.045,-2.0436,-2.0716,-2.0658,-2.0658,-2.0608,-2.0328,-2.027,-2.0104,-1.954,-1.9424,-1.9758,-2.1088,-2.1437,-2.1559,-2.2127,-2.0938,-1.9924,-2.0493,-2.0155,-2.0206,-2.1559,-2.1672,-2.2063,-2.3383,-2.2894,-2.1737,-1.9991,-2.0069,-2.0009,-1.9377,-1.9263,-1.9266,-1.9293,-1.9294,-1.9272,-1.9279,-1.9018,-1.8974,-1.9279,-1.9026,-1.8921,-1.8921,-1.8338,-1.8016,-1.8016,-1.7747,-1.7582,-1.7582,-1.7582,-1.7582,-1.088,-1.1472,-1.2633,-1.6026,-1.9172,-2.1832,-2.3422,-2.4111,-2.4668,-2.5508,-2.5538,-2.543,-2.5528,-2.5469,-2.544,-2.5528,-2.5293,-2.5225,-2.5625,-2.4687,-2.4082,-2.4502,-2.3877,-2.3364,-2.3364,-2.3721,-2.3926,-2.3926,-2.4228,-2.4414,-2.4414,-2.4414,-2.4314,-2.4216,-2.3739,-2.325,-2.2906,-2.1558,-2.0764,-2.0522,-1.9707,-1.9279,-1.9338,-1.9873,-2.0336,-2.0639,-2.0104,-1.9981,-2.0098,-1.9508,-1.9279,-1.9279,-1.9279,-1.9323,-1.9478,-1.9747,-2.0069,-2.0274,-2.0082,-2.053,-2.1039,-2.0162,-2.027,-2.0658,-2.0443,-2.0385,-2.0328,-1.9989,-1.9931,-1.9815,-1.9482,-1.9424,-1.9482,-1.9815,-2.004,-2.0155,-2.0104,-1.9931,-1.9758,-1.9707,-1.9758,-1.9924,-2.0206,-2.0995,-2.1729,-2.2006,-2.1502,-2.0802,-1.9892,-1.9849,-1.9766,-1.9354,-1.9131,-1.9085,-1.9287,-1.9117,-1.9078,-1.9279,-1.8803,-1.8646,-1.8974,-1.8921,-1.8921,-1.8921,-1.8489,-1.822,-1.8016,-1.7747,-1.7582,-1.7582,-1.7582,-1.7582,-1.0966,-1.1745,-1.3093,-1.6802,-1.9683,-2.2002,-2.3456,-2.3965,-2.4307,-2.4923,-2.5391,-2.5693,-2.5693,-2.5693,-2.5693,-2.5693,-2.5537,-2.5469,-2.5654,-2.4785,-2.417,-2.4394,-2.3617,-2.3091,-2.3091,-2.3305,-2.3477,-2.3477,-2.3682,-2.3764,-2.3764,-2.3338,-2.296,-2.264,-2.2231,-2.1608,-2.0739,-2.0354,-1.9909,-1.938,-1.9182,-1.9125,-1.9286,-1.9669,-1.9857,-1.9996,-1.9835,-1.9815,-1.9793,-1.9463,-1.9279,-1.9279,-1.9279,-1.9279,-1.9316,-1.9698,-1.9967,-2.0172,-2.0102,-2.0536,-2.1039,-2.0104,-2.0097,-2.0436,-2.0155,-2.0046,-2.004,-1.9873,-1.9815,-1.9758,-1.9482,-1.9424,-1.9424,-1.9424,-1.954,-1.9591,-1.9591,-1.9591,-1.9591,-1.9591,-1.9591,-1.9591,-1.9591,-2.0155,-2.0551,-2.0551,-2.0378,-2.0155,-1.9815,-1.9958,-1.9912,-1.9597,-1.941,-1.9324,-1.9292,-1.9306,-1.9313,-1.9299,-1.9031,-1.8924,-1.9092,-1.8992,-1.8798,-1.8653,-1.8482,-1.8272,-1.8016,-1.7859,-1.7747,-1.7582,-1.7582,-1.7582,-1.1181,-1.2397,-1.4078,-1.7607,-1.96,-2.1126,-2.2726,-2.3458,-2.3842,-2.3999,-2.48,-2.5479,-2.5557,-2.5625,-2.5596,-2.5674,-2.5693,-2.5693,-2.5693,-2.4923,-2.4414,-2.4414,-2.3617,-2.3091,-2.3091,-2.3091,-2.312,-2.3198,-2.3208,-2.3164,-2.2978,-2.2251,-2.1455,-2.0648,-2.0564,-1.9825,-1.8416,-1.9136,-1.9069,-1.8218,-1.8606,-1.8935,-1.9258,-1.958,-1.9764,-1.9815,-1.9757,-1.9764,-1.9793,-1.9463,-1.9279,-1.9279,-1.9279,-1.9279,-1.9308,-1.9632,-1.9916,-2.0219,-2.0226,-2.067,-2.1039,-2.0104,-2.0046,-2.0213,-1.9873,-1.9758,-1.9758,-1.9758,-1.9758,-1.9707,-1.9482,-1.9424,-1.9424,-1.9424,-1.9424,-1.9482,-1.9707,-1.9533,-1.9482,-1.9707,-1.9533,-1.9424,-1.9424,-1.9424,-1.9424,-1.9424,-1.9649,-1.9758,-1.9758,-1.9989,-2.0115,-1.9743,-1.9723,-1.9591,-1.9334,-1.9608,-1.969,-1.9401,-1.9401,-1.9408,-1.9346,-1.8975,-1.8605,-1.8355,-1.8401,-1.8275,-1.8016,-1.7964,-1.7799,-1.7582,-1.7582,-1.7582,-0.9703,-1.2243,-1.5045,-1.6717,-1.9148,-2.0957,-2.0457,-2.2108,-2.3564,-2.273,-2.3631,-2.4707,-2.5088,-2.5156,-2.5283,-2.5625,-2.5693,-2.5693,-2.5693,-2.4923,-2.4414,-2.4414,-2.3617,-2.3091,-2.3091,-2.3091,-2.3247,-2.3682,-2.3701,-2.3323,-2.2436,-2.2299,-2.1608,-2.0317,-1.9496,-1.8976,-1.8745,-1.8301,-1.8019,-1.7889,-1.8496,-1.8811,-1.8869,-1.9191,-1.9551,-1.9801,-1.9514,-1.9558,-1.9793,-1.9463,-1.9279,-1.9279,-1.9279,-1.9279,-1.9331,-1.9323,-1.9718,-2.019,-1.9912,-2.0426,-2.1039,-2.0104,-2.0046,-2.022,-1.9655,-1.9424,-1.9424,-1.9424,-1.9424,-1.9424,-1.9424,-1.9424,-1.9424,-1.9424,-1.9424,-1.9424,-1.9424,-1.9424,-1.9424,-1.9424,-1.9424,-1.9424,-1.9424,-1.9424,-1.9424,-1.9424,-1.9649,-1.97,-1.9482,-1.9707,-1.9744,-1.9486,-1.9407,-1.9343,-1.9302,-1.9632,-1.9752,-1.9752,-1.9525,-1.9408,-1.9408,-1.8557,-1.8117,-1.8037,-1.8359,-1.8337,-1.8016,-1.7747,-1.7635,-1.7582,-1.7582,-1.7582,-1.0287,-1.1977,-1.3878,-1.6309,-1.7854,-1.8956,-1.9669,-2.0695,-2.1641,-2.1906,-2.2469,-2.3252,-2.4477,-2.4697,-2.4766,-2.4961,-2.5205,-2.5361,-2.5361,-2.4325,-2.3793,-2.4322,-2.3149,-2.2511,-2.3047,-2.3091,-2.3276,-2.375,-2.3229,-2.2813,-2.2612,-2.1337,-2.0357,-1.9734,-1.8566,-1.7971,-1.7971,-1.7653,-1.7633,-1.7816,-1.8108,-1.8438,-1.8789,-1.8935,-1.9184,-1.9536,-1.9338,-1.936,-1.9529,-1.9338,-1.9279,-1.9279,-1.9279,-1.9279,-1.9279,-1.9279,-1.9681,-2.0183,-2.0081,-2.0558,-2.1089,-2.05,-2.0328,-2.022,-1.9764,-1.954,-1.9424,-1.9424,-1.9424,-1.9424,-1.9424,-1.9424,-1.9424,-1.9424,-1.9424,-1.9424,-1.9424,-1.9424,-1.9424,-1.9424,-1.9424,-1.9424,-1.9424,-1.9424,-1.9424,-1.9424,-1.9482,-1.9533,-1.9424,-1.9649,-1.97,-1.9424,-1.9527,-1.9503,-1.9395,-1.9615,-1.9765,-1.9602,-1.9595,-1.9532,-1.9426,-1.9021,-1.8631,-1.8303,-1.8232,-1.8129,-1.801,-1.7887,-1.7834,-1.7842,-1.7662,-1.7582,-1.0652,-1.1421,-1.2331,-1.5194,-1.6333,-1.7106,-1.8409,-1.926,-1.9982,-2.0713,-2.1078,-2.1734,-2.3081,-2.385,-2.4166,-2.3973,-2.447,-2.4902,-2.4902,-2.3711,-2.3066,-2.3779,-2.2352,-2.1686,-2.2643,-2.2731,-2.3094,-2.3906,-2.297,-2.2435,-2.2589,-2.0587,-1.9265,-1.8948,-1.7871,-1.7279,-1.7279,-1.7279,-1.745,-1.7691,-1.7772,-1.8072,-1.8547,-1.8708,-1.8921,-1.9162,-1.9242,-1.9279,-1.9279,-1.9279,-1.9279,-1.9279,-1.9279,-1.9279,-1.9279,-1.9279,-1.9681,-2.0183,-2.0183,-2.0662,-2.1146,-2.078,-2.0551,-2.0328,-1.9931,-1.9649,-1.9482,-1.9424,-1.9424,-1.9424,-1.9424,-1.9424,-1.9424,-1.9424,-1.9424,-1.9424,-1.9424,-1.9424,-1.9424,-1.9424,-1.9424,-1.9424,-1.9424,-1.9424,-1.9424,-1.9424,-1.9424,-1.9424,-1.9424,-1.9591,-1.9649,-1.9424,-1.9591,-1.9649,-1.9424,-1.9649,-1.97,-1.9533,-1.9707,-1.97,-1.954,-1.935,-1.9045,-1.8611,-1.8232,-1.7995,-1.7876,-1.7914,-1.7921,-1.7869,-1.7689,-1.7582,-0.9731,-1.0411,-1.1092,-1.2792,-1.4833,-1.6293,-1.5748,-1.7779,-1.9552,-1.8637,-1.9445,-2.0294,-2.0419,-2.2297,-2.3538,-2.2729,-2.3647,-2.4453,-2.4453,-2.323,-2.2364,-2.241,-2.1164,-2.0692,-2.1695,-2.1784,-2.2475,-2.4224,-2.3383,-2.2559,-2.2063,-2.067,-1.9275,-1.7919,-1.7501,-1.7279,-1.7279,-1.7279,-1.7286,-1.7308,-1.7669,-1.783,-1.7889,-1.8503,-1.8796,-1.8833,-1.914,-1.9279,-1.9279,-1.9279,-1.9279,-1.9279,-1.9279,-1.9279,-1.9279,-1.9279,-1.9681,-2.0183,-2.0183,-2.0662,-2.1146,-2.078,-2.0716,-2.0551,-1.9982,-1.9815,-1.97,-1.9482,-1.9424,-1.9424,-1.9424,-1.9424,-1.9424,-1.9424,-1.9424,-1.9424,-1.9424,-1.9424,-1.9424,-1.9424,-1.9424,-1.9424,-1.9424,-1.9424,-1.9424,-1.9424,-1.9424,-1.9424,-1.9424,-1.9424,-1.9424,-1.9424,-1.9424,-1.9424,-1.9424,-1.9649,-1.9815,-1.9758,-1.9815,-1.9815,-1.9758,-1.9206,-1.8931,-1.8905,-1.8323,-1.7883,-1.7609,-1.7641,-1.7641,-1.7609,-1.7589,-1.7582,-0.9241,0.0,-1.0616,-1.1996,-1.3292,-1.4335,-1.4719,-1.5925,-1.7149,-1.7834,-1.8511,-1.8987,-1.8987,-2.0369,-2.132,-2.0837,-2.2071,-2.2969,-2.2806,-2.198,-2.1639,-2.2236,-2.0509,-1.9695,-2.0638,-2.0737,-2.1364,-2.2924,-2.1518,-2.0842,-2.1599,-1.9685,-1.8312,-1.7816,-1.7454,-1.7279,-1.7279,-1.7279,-1.7279,-1.7279,-1.7395,-1.7611,-1.783,-1.8277,-1.8591,-1.8803,-1.9133,-1.9279,-1.9279,-1.9279,-1.9279,-1.9279,-1.9279,-1.9279,-1.9353,-1.9566,-1.9864,-2.0212,-2.0479,-2.0837,-2.1211,-2.1089,-2.0902,-2.0658,-2.0436,-2.0097,-1.9758,-1.9707,-1.9533,-1.9424,-1.9424,-1.9424,-1.9424,-1.9424,-1.9424,-1.9424,-1.9424,-1.9424,-1.9424,-1.9424,-1.9424,-1.9424,-1.9424,-1.9424,-1.9424,-1.9424,-1.9424,-1.9424,-1.9424,-1.9424,-1.9424,-1.9424,-1.9424,-1.9424,-1.9424,-1.9482,-1.9533,-1.9533,-1.9533,-1.9533,-1.9533,-1.9323,-1.9118,-1.8925,-1.8718,-1.8464,-1.8163,-1.7976,-1.7976,-1.8163,-1.7969,-1.7883,-0.8752,0.0,0.0,0.0,-1.2036,-1.2701,-1.4042,-1.4721,-1.5449,-1.6711,-1.7334,-1.7683,-1.7807,-1.8499,-1.9118,-1.9109,-2.0456,-2.1383,-2.1074,-2.0615,-2.0464,-2.0904,-1.9571,-1.8889,-1.9679,-1.9733,-2.0303,-2.1741,-2.0245,-1.9757,-2.0818,-1.8935,-1.7816,-1.7816,-1.7604,-1.7494,-1.7494,-1.7494,-1.7388,-1.7279,-1.7279,-1.7443,-1.7662,-1.7991,-1.8321,-1.8642,-1.8972,-1.9177,-1.9279,-1.9279,-1.9279,-1.9279,-1.9279,-1.9279,-1.9316,-1.9698,-1.9967,-2.0227,-2.0555,-2.0876,-2.1024,-2.1153,-2.0967,-2.0716,-2.0716,-2.0378,-1.9924,-1.9815,-1.9591,-1.9424,-1.9424,-1.9424,-1.9424,-1.9424,-1.9424,-1.9424,-1.9424,-1.9424,-1.9424,-1.9424,-1.9424,-1.9424,-1.9424,-1.9424,-1.9424,-1.9424,-1.9424,-1.9424,-1.9424,-1.9424,-1.9424,-1.9424,-1.9424,-1.9424,-1.9424,-1.9424,-1.9424,-1.9424,-1.9424,-1.9424,-1.9424,-1.9424,-1.9279,-1.9078,-1.8978,-1.8831,-1.8637,-1.8182,-1.8096,-1.8183,-1.7983,-1.7889,0.0,0.0,0.0,0.0,-1.107,-1.1584,-1.3484,-1.4181,-1.4575,-1.5248,-1.587,-1.6455,-1.6822,-1.6888,-1.7086,-1.7664,-1.886,-1.9634,-1.929,-1.9162,-1.8859,-1.8342,-1.8211,-1.8308,-1.8678,-1.8726,-1.9331,-2.0737,-1.9854,-1.9399,-1.9829,-1.8535,-1.7801,-1.7801,-1.7801,-1.7801,-1.7801,-1.7801,-1.764,-1.7279,-1.7279,-1.7279,-1.7293,-1.7662,-1.7991,-1.8321,-1.865,-1.8979,-1.9279,-1.9279,-1.9279,-1.9279,-1.9279,-1.9279,-1.9316,-1.9705,-1.9974,-2.0227,-2.0625,-2.0706,-2.078,-2.1089,-2.0967,-2.0658,-2.0658,-2.0493,-2.0213,-1.9866,-1.9591,-1.9424,-1.9424,-1.9424,-1.9424,-1.9424,-1.9424,-1.9424,-1.9424,-1.9424,-1.9424,-1.9424,-1.9424,-1.9424,-1.9424,-1.9424,-1.9424,-1.9424,-1.9424,-1.9424,-1.9424,-1.9424,-1.9424,-1.9424,-1.9424,-1.9424,-1.9424,-1.9424,-1.9424,-1.9424,-1.9424,-1.9424,-1.9424,-1.9424,-1.9424,-1.9424,-1.9085,-1.8931,-1.8925,-1.8288,-1.7903,-1.7609,-1.7602,-1.7595,-0.8553,0.0,0.0,0.0,0.0,0.0,-1.1437,-1.1995,-1.278,-1.4099,-1.4523,-1.5061,-1.6316,-1.6551,-1.6603,-1.6771,-1.7864,-1.858,-1.8257,-1.8164,-1.8118,-1.7954,-1.7326,-1.6929,-1.7063,-1.7296,-1.7872,-1.8949,-1.8288,-1.8239,-1.9074,-1.8067,-1.7465,-1.7465,-1.7465,-1.7465,-1.7465,-1.7465,-1.7374,-1.7279,-1.7279,-1.7279,-1.7293,-1.7662,-1.7991,-1.8321,-1.865,-1.8979,-1.9279,-1.9279,-1.9279,-1.9279,-1.9279,-1.9279,-1.9345,-1.9901,-2.0164,-2.0263,-2.0881,-2.0894,-2.0723,-2.078,-2.0666,-2.0378,-2.0378,-2.0213,-1.9931,-1.9815,-1.9591,-1.9424,-1.9424,-1.9424,-1.9424,-1.9424,-1.9424,-1.9424,-1.9424,-1.9424,-1.9424,-1.9424,-1.9424,-1.9424,-1.9424,-1.9424,-1.9424,-1.9424,-1.9424,-1.9424,-1.9424,-1.9424,-1.9424,-1.9424,-1.9424,-1.9424,-1.9424,-1.9424,-1.9424,-1.9424,-1.9424,-1.9424,-1.9424,-1.9424,-1.9424,-1.9424,-1.9285,-1.9138,-1.8925,-1.8551,-1.8323,-1.8237,-1.8016,-1.7862,-0.8987,0.0,0.0,0.0,0.0,0.0,-1.1011,-1.1415,-1.2017,-1.347,-1.3887,-1.4348,-1.5548,-1.5884,-1.6023,-1.6162,-1.6807,-1.7211,-1.7011,-1.731,-1.7396,-1.7066,-1.685,-1.665,-1.6441,-1.6587,-1.6914,-1.748,-1.7257,-1.7465,-1.8141,-1.7598,-1.7344,-1.7476,-1.753,-1.753,-1.753,-1.753,-1.7465,-1.7279,-1.7279,-1.7279,-1.7286,-1.7476,-1.7867,-1.8313,-1.8503,-1.8847,-1.9279,-1.9279,-1.9279,-1.9279,-1.9279,-1.9279,-1.9352,-2.0003,-2.0183,-2.0278,-2.0984,-2.091,-2.0551,-2.0658,-2.0436,-2.0097,-2.027,-2.004,-1.9815,-1.9815,-1.9591,-1.9424,-1.9424,-1.9424,-1.9424,-1.9424,-1.9424,-1.9424,-1.9424,-1.9424,-1.9424,-1.9424,-1.9424,-1.9424,-1.9424,-1.9424,-1.9424,-1.9424,-1.9424,-1.9424,-1.9424,-1.9424,-1.9424,-1.9424,-1.9424,-1.9424,-1.9424,-1.9424,-1.9424,-1.9424,-1.9424,-1.9424,-1.9424,-1.9424,-1.9424,-1.9424,-1.9424,-1.9219,-1.8925,-1.8751,-1.8611,-1.849,-1.831,-1.823,-0.95,-0.9526,0.0,0.0,-0.9985,0.0,-1.1368,-1.1604,-1.1833,-1.3031,-1.3514,-1.3931,-1.4608,-1.498,-1.5279,-1.565,-1.576,-1.579,-1.5906,-1.6568,-1.6773,-1.5999,-1.6598,-1.6927,-1.6382,-1.6389,-1.6397,-1.6367,-1.6668,-1.6938,-1.726,-1.7274,-1.7428,-1.775,-1.7765,-1.7765,-1.7765,-1.7765,-1.7571,-1.7279,-1.7279,-1.7279,-1.7279,-1.7279,-1.7684,-1.8299,-1.8299,-1.8672,-1.9279,-1.9279,-1.9279,-1.9279,-1.9279,-1.9279,-1.9352,-2.0003,-2.0183,-2.0278,-2.0984,-2.0795,-2.0385,-2.0608,-2.0263,-1.9873,-2.0104,-1.9989,-1.9758,-1.9758,-1.9591,-1.9424,-1.9424,-1.9424,-1.9424,-1.9424,-1.9424,-1.9424,-1.9424,-1.9424,-1.9424,-1.9424,-1.9424,-1.9424,-1.9424,-1.9424,-1.9424,-1.9424,-1.9424,-1.9424,-1.9424,-1.9424,-1.9424,-1.9424,-1.9424,-1.9424,-1.9424,-1.9424,-1.9424,-1.9424,-1.9424,-1.9424,-1.9424,-1.9424,-1.9424,-1.9424,-1.9424,-1.9239,-1.8971,-1.8938,-1.8778,-1.849,-1.849,-1.851,-1.03,-1.0381,-1.0368,-1.0228,-1.0476,0.0,-1.0177,-1.0448,-1.1026,-1.1811,-1.2024,-1.2428,-1.3565,-1.3828,-1.3982,-1.4311,-1.4794,-1.5272,-1.5797,-1.6035,-1.6078,-1.5913,-1.63,-1.6417,-1.6023,-1.6221,-1.6309,-1.6023,-1.6287,-1.6653,-1.6976,-1.6991,-1.7091,-1.7366,-1.7421,-1.7421,-1.7421,-1.7421,-1.7344,-1.7279,-1.7279,-1.7279,-1.7279,-1.7279,-1.7684,-1.8299,-1.8299,-1.8672,-1.9279,-1.9279,-1.9279,-1.9279,-1.9279,-1.9279,-1.9352,-2.0003,-2.0183,-2.0278,-2.0984,-2.0967,-2.0608,-2.0436,-2.0097,-1.9758,-1.9591,-1.954,-1.9482,-1.9482,-1.9424,-1.9424,-1.9424,-1.9424,-1.9424,-1.9424,-1.9424,-1.9424,-1.9424,-1.9424,-1.9424,-1.9424,-1.9424,-1.9424,-1.9424,-1.9424,-1.9424,-1.9424,-1.9424,-1.9424,-1.9424,-1.9424,-1.9424,-1.9424,-1.9424,-1.9424,-1.9424,-1.9424,-1.9424,-1.9424,-1.9424,-1.9424,-1.9424,-1.9424,-1.9424,-1.9424,-1.9424,-1.9397,-1.9279,-1.9038,-1.8778,-1.849,-1.849,-1.8617,-1.0902,-1.0858,-1.0858,-1.0858,-1.0858,0.0,0.0,-1.047,-1.0806,-1.1459,-1.1459,-1.165,-1.2592,-1.2767,-1.2877,-1.3199,-1.3799,-1.4333,-1.4662,-1.5401,-1.5855,-1.5652,-1.5811,-1.584,-1.5687,-1.5957,-1.6213,-1.6374,-1.6573,-1.6727,-1.6895,-1.7049,-1.7091,-1.7091,-1.7245,-1.7279,-1.7279,-1.7279,-1.7279,-1.7279,-1.7279,-1.7279,-1.7279,-1.7279,-1.7684,-1.8299,-1.8299,-1.8672,-1.9279,-1.9279,-1.9279,-1.9279,-1.9279,-1.9279,-1.9352,-2.0003,-2.0183,-2.0278,-2.0984,-2.0967,-2.0658,-2.0551,-2.0155,-1.9758,-1.9649,-1.954,-1.9424,-1.9424,-1.9424,-1.9424,-1.9424,-1.9424,-1.9424,-1.9424,-1.9424,-1.9424,-1.9424,-1.9424,-1.9424,-1.9424,-1.9424,-1.9424,-1.9424,-1.9424,-1.9424,-1.9424,-1.9424,-1.9424,-1.9424,-1.9424,-1.9424,-1.9424,-1.9424,-1.9424,-1.9424,-1.9424,-1.9424,-1.9424,-1.9424,-1.9424,-1.9424,-1.9424,-1.9424,-1.9424,-1.9424,-1.9424,-1.9424,-1.9219,-1.9072,-1.8931,-1.8931,-1.9005,-1.1494,-1.143,-1.1511,-1.165,-1.1386,-1.1055,0.0,0.0,0.0,-1.1335,-1.1239,-1.1246,-1.1638,-1.1726,-1.1828,-1.2189,-1.2789,-1.3236,-1.3301,-1.4494,-1.5328,-1.5255,-1.5309,-1.5389,-1.5389,-1.5496,-1.5833,-1.6573,-1.6507,-1.6551,-1.6793,-1.7004,-1.7084,-1.6998,-1.7135,-1.7267,-1.7279,-1.7279,-1.7279,-1.7279,-1.7279,-1.7279,-1.7286,-1.7344,-1.7743,-1.8306,-1.8364,-1.873,-1.9279,-1.9279,-1.9279,-1.9279,-1.9279,-1.9279,-1.9352,-2.0003,-2.0183,-2.0278,-2.0984,-2.1024,-2.078,-2.0723,-2.0263,-1.9815,-1.9758,-1.9591,-1.9424,-1.9424,-1.9424,-1.9424,-1.9424,-1.9424,-1.9424,-1.9424,-1.9424,-1.9424,-1.9424,-1.9424,-1.9424,-1.9424,-1.9424,-1.9424,-1.9424,-1.9424,-1.9424,-1.9424,-1.9424,-1.9424,-1.9424,-1.9424,-1.9424,-1.9424,-1.9424,-1.9424,-1.9424,-1.9424,-1.9424,-1.9424,-1.9424,-1.9424,-1.9424,-1.9424,-1.9424,-1.9424,-1.9424,-1.9424,-1.9424,-1.9424,-1.9424,-1.9424,-1.9424,-1.9424,-1.238,-1.257,-1.2658,-1.2083,-1.2324,-1.2445,-1.1357,0.0,-1.1616,-1.0865,0.0,-1.1041,-1.0792,0.0,0.0,-1.1187,-1.178,-1.2266,-1.2558,-1.3038,-1.3645,-1.4518,-1.5079,-1.5389,-1.5389,-1.4684,-1.4589,-1.5518,-1.5065,-1.5274,-1.6411,-1.6499,-1.6718,-1.726,-1.7033,-1.7047,-1.7279,-1.7279,-1.7279,-1.7279,-1.7279,-1.7279,-1.7286,-1.7625,-1.7955,-1.8321,-1.8606,-1.8942,-1.9279,-1.9279,-1.9279,-1.9279,-1.9279,-1.9279,-1.9352,-2.0003,-2.0183,-2.0278,-2.0984,-2.1211,-2.1089,-2.078,-2.0263,-1.9758,-1.954,-1.9424,-1.9424,-1.9424,-1.9424,-1.9424,-1.9424,-1.9424,-1.9424,-1.9424,-1.9424,-1.9424,-1.9424,-1.9424,-1.9424,-1.9424,-1.9424,-1.9424,-1.9424,-1.9424,-1.9424,-1.9424,-1.9424,-1.9424,-1.9424,-1.9424,-1.9424,-1.9424,-1.9424,-1.9424,-1.9424,-1.9424,-1.9424,-1.9424,-1.9424,-1.9424,-1.9424,-1.9424,-1.9424,-1.9424,-1.9424,-1.9424,-1.9424,-1.9424,-1.9424,-1.9424,-1.9424,-1.9424,-1.2543,-1.2726,-1.2899,-1.2397,-1.2485,-1.2489,-1.1599,-1.1275,-1.1077,-1.0675,0.0,0.0,0.0,0.0,0.0,0.0,-1.1055,-1.1458,-1.1406,-1.1999,-1.2804,-1.3784,-1.3806,-1.3967,-1.4538,-1.4392,-1.4589,-1.533,-1.4831,-1.4988,-1.6045,-1.6104,-1.6396,-1.7033,-1.6969,-1.7011,-1.7279,-1.7279,-1.7279,-1.7279,-1.7279,-1.7279,-1.7293,-1.7662,-1.7991,-1.8321,-1.865,-1.8979,-1.9279,-1.9279,-1.9279,-1.9279,-1.9279,-1.9279,-1.9352,-2.0003,-2.0183,-2.0278,-2.0984,-2.1211,-2.1146,-2.0615,-2.0328,-1.9989,-1.954,-1.9424,-1.9424,-1.9424,-1.9424,-1.9424,-1.9424,-1.9424,-1.9424,-1.9424,-1.9499,-1.9619,-1.9619,-1.9746,-1.9867,-1.9867,-1.9867,-1.9813,-1.9646,-1.9479,-1.9424,-1.9424,-1.9424,-1.9424,-1.9424,-1.9424,-1.9424,-1.9424,-1.9424,-1.9424,-1.9424,-1.9424,-1.9424,-1.9424,-1.9424,-1.9424,-1.9424,-1.9424,-1.9424,-1.9424,-1.9424,-1.9424,-1.9424,-1.9424,-1.9424,-1.9424,-1.9424,-1.9424,-1.3009,-1.3162,-1.3265,-1.2638,-1.2558,-1.2438,-1.165,-1.1298,-1.1041,-1.0777,-1.0558,0.0,0.0,0.0,0.0,0.0,0.0,-1.099,-1.066,-1.1121,-1.1838,-1.2723,-1.265,-1.2833,-1.3638,-1.3726,-1.4048,-1.4962,-1.4355,-1.4479,-1.5716,-1.5739,-1.6111,-1.6873,-1.6815,-1.6961,-1.7279,-1.7279,-1.7279,-1.7279,-1.7279,-1.7279,-1.7293,-1.7757,-1.8079,-1.8328,-1.8738,-1.906,-1.9279,-1.9279,-1.9279,-1.9279,-1.9279,-1.9279,-1.9352,-2.0003,-2.0183,-2.0278,-2.0984,-2.1211,-2.1096,-2.0558,-2.0385,-2.027,-1.9707,-1.954,-1.9475,-1.9424,-1.9426,-1.9486,-1.9486,-1.9546,-1.9606,-1.9606,-1.9766,-1.992,-1.992,-2.0087,-2.0173,-2.0173,-2.0173,-2.0167,-1.9953,-1.9679,-1.9459,-1.9437,-1.9424,-1.9424,-1.9424,-1.9424,-1.9424,-1.9424,-1.9424,-1.9424,-1.9424,-1.9424,-1.9424,-1.9424,-1.9424,-1.9424,-1.9424,-1.9424,-1.9424,-1.9424,-1.9424,-1.9424,-1.9424,-1.9424,-1.9424,-1.9424,-1.9424,-1.9424,-1.4026,-1.421,-1.4152,-1.284,-1.2726,-1.2658,-1.1408,-1.1802,-1.2189,-1.1283,-1.1787,-1.2241,-1.1657,0.0,0.0,0.0,0.0,0.0,0.0,-1.0346,-1.0411,-1.1107,-1.1963,-1.2623,-1.3001,-1.2237,-1.2347,-1.3946,-1.3133,-1.3382,-1.5301,-1.5403,-1.5877,-1.6873,-1.6595,-1.6689,-1.7271,-1.7279,-1.7279,-1.7279,-1.7279,-1.7279,-1.7301,-1.7991,-1.8291,-1.8343,-1.8979,-1.9264,-1.9279,-1.9279,-1.9279,-1.9279,-1.9279,-1.9279,-1.9352,-2.0003,-2.0183,-2.0278,-2.0984,-2.1211,-2.1146,-2.078,-2.0658,-2.0551,-1.9982,-1.9815,-1.9758,-1.9482,-1.9573,-1.9786,-1.9786,-1.9993,-2.014,-2.014,-2.0153,-2.0221,-2.0221,-2.0167,-2.0173,-2.0173,-2.0173,-2.0227,-2.016,-1.9973,-1.9693,-1.947,-1.9424,-1.9424,-1.9424,-1.9424,-1.9424,-1.9424,-1.9424,-1.9424,-1.9424,-1.9424,-1.9424,-1.9424,-1.9424,-1.9424,-1.9424,-1.9424,-1.9424,-1.9424,-1.9424,-1.9424,-1.9424,-1.9424,-1.9424,-1.9424,-1.9424,-1.9424,-1.443,-1.4853,-1.5065,-1.3543,-1.325,-1.2994,-1.1723,-1.1816,-1.1984,-1.1261,-1.1518,-1.1713,-1.1132,0.0,0.0,0.0,0.0,0.0,0.0,-0.9906,-0.9836,-1.0375,-1.1441,-1.1959,-1.1458,-1.1692,-1.2189,-1.2958,-1.2477,-1.3017,-1.4966,-1.4904,-1.5369,-1.6536,-1.647,-1.6624,-1.7011,-1.7223,-1.7279,-1.7279,-1.7279,-1.7279,-1.7301,-1.8006,-1.8299,-1.8343,-1.8994,-1.9279,-1.9279,-1.9279,-1.9279,-1.9279,-1.9279,-1.9463,-1.9705,-2.0077,-2.0183,-2.0278,-2.0984,-2.1211,-2.1146,-2.078,-2.0716,-2.0601,-2.027,-2.0162,-2.0088,-2.0003,-2.0074,-2.0137,-2.0094,-2.016,-2.0173,-2.0173,-2.0381,-2.0528,-2.0528,-2.0675,-2.0815,-2.0815,-2.0815,-2.0755,-2.0561,-2.0448,-2.0281,-1.9987,-1.978,-1.9653,-1.9653,-1.9486,-1.9424,-1.9424,-1.9424,-1.9424,-1.9424,-1.9424,-1.9424,-1.9424,-1.9424,-1.9424,-1.9424,-1.9424,-1.9424,-1.9424,-1.9424,-1.9424,-1.9424,-1.9424,-1.9424,-1.9424,-1.9424,-1.9424,-1.4867,-1.527,-1.5418,-1.4304,-1.3815,-1.3335,-1.2339,-1.2294,-1.2296,-1.1666,-1.1867,-1.2006,-1.162,0.0,0.0,0.0,0.0,0.0,0.0,-0.9647,-0.9633,-1.006,-1.0879,0.0,0.0,-1.1121,-1.1595,-1.2266,-1.1908,-1.2497,-1.4294,-1.445,-1.5039,-1.617,-1.6353,-1.6624,-1.7018,-1.7223,-1.7279,-1.7279,-1.7279,-1.7344,-1.7523,-1.8057,-1.8364,-1.8503,-1.9045,-1.9279,-1.9279,-1.9279,-1.9279,-1.9279,-1.9279,-1.9477,-1.9852,-2.012,-2.0329,-2.064,-2.1064,-2.1211,-2.1153,-2.096,-2.0902,-2.0845,-2.0558,-2.052,-2.0589,-2.0389,-2.0424,-2.0569,-2.0402,-2.0468,-2.0541,-2.0541,-2.0688,-2.0802,-2.0702,-2.0822,-2.0955,-2.0955,-2.0955,-2.0929,-2.0848,-2.0742,-2.0541,-2.014,-1.992,-1.9766,-1.9659,-1.9486,-1.9424,-1.9424,-1.9424,-1.9424,-1.9424,-1.9424,-1.9424,-1.9424,-1.9424,-1.9424,-1.9424,-1.9424,-1.9424,-1.9424,-1.9424,-1.9424,-1.9424,-1.9424,-1.9424,-1.9424,-1.9424,-1.9424]},{"header":{"parameterUnit":"m.s-1","parameterCategory":1,"la1":30.6,"la2":29.2853,"lo1":-89.7004,"lo2":-87.6739,"dy":0.0162,"dx":0.0183,"nx":112,"ny":82,"refTime":"2026-02-26T12:00:00:Z","depth":0,"parameterNumber":3,"parameterNumberName":"V-component_of_WINDS"},"data":[0.0,0.0,0.0,0.0,0.0,0.0,0.0,0.0,0.0,0.0,0.0,0.0,0.0,0.0,0.0,0.0,0.0,0.0,0.0,0.0,0.0,0.0,0.0,0.0,0.0,0.0,0.0,0.0,0.0,0.0,0.0,0.0,0.0,0.0,0.0,0.0,0.0,0.0,0.0,0.0,0.0,0.0,0.0,0.0,0.0,0.0,0.0,0.0,0.0,0.0,0.0,0.0,0.0,0.0,0.0,0.0,0.0,0.0,0.0,0.0,0.0,0.0,0.0,0.0,0.0,0.0,0.0,0.0,0.0,0.0,0.0,0.0,0.0,0.0,0.0,0.0,0.0,0.0,0.0,0.0,0.0,0.0,0.0,0.0,0.0,0.0,0.0,0.0,0.0,0.0,1.5604,1.7219,1.9961,2.1491,2.1046,2.0451,1.9275,1.733,0.0,0.0,0.0,0.0,0.0,0.0,0.0,0.0,0.0,0.0,0.0,0.0,0.0,0.0,0.0,0.0,0.0,0.0,0.0,0.0,0.0,0.0,0.0,0.0,0.0,0.0,0.0,0.0,0.0,0.0,0.0,0.0,0.0,0.0,0.0,0.0,0.0,0.0,0.0,0.0,0.0,0.0,0.0,0.0,0.0,0.0,0.0,0.0,0.0,0.0,0.0,0.0,0.0,0.0,0.0,0.0,0.0,0.0,0.0,0.0,0.0,0.0,0.0,0.0,0.0,0.0,0.0,0.0,0.0,0.0,0.0,0.0,0.0,0.0,0.0,0.0,0.0,0.0,0.0,0.0,0.0,0.0,0.0,0.0,0.0,0.0,0.0,0.0,0.0,0.0,0.0,0.0,0.0,0.0,0.0,0.0,0.0,0.0,0.0,0.0,0.0,0.0,0.0,0.0,1.576,1.9233,2.0512,2.1083,2.1003,2.0451,1.9275,1.733,0.0,0.0,0.0,0.0,0.0,0.0,0.0,0.0,0.0,0.0,0.0,0.0,0.0,0.0,0.0,0.0,0.0,0.0,0.0,0.0,0.0,0.0,0.0,0.0,0.0,0.0,0.0,0.0,0.0,0.0,0.0,0.0,0.0,0.0,0.0,0.0,0.0,0.0,0.0,0.0,0.0,0.0,0.0,0.0,0.0,0.0,0.0,0.0,0.0,0.0,0.0,0.0,0.0,0.0,0.0,0.0,0.0,0.0,0.0,0.0,0.0,0.0,0.0,0.0,0.0,0.0,0.0,0.0,0.0,0.0,0.0,0.0,0.0,0.0,0.0,0.0,0.0,0.0,0.0,0.0,0.0,0.0,0.0,0.0,0.0,0.0,0.0,0.0,0.0,0.0,0.0,0.0,0.0,0.0,0.0,0.0,0.0,0.0,0.0,0.0,0.0,0.0,0.0,1.5792,1.7493,2.0291,2.1162,2.1394,2.1032,2.0117,1.8883,1.7301,1.5476,0.0,0.0,0.0,0.0,0.0,0.0,0.0,0.0,0.0,0.0,0.0,0.0,0.0,0.0,0.0,0.0,0.0,0.0,0.0,0.0,0.0,0.0,0.0,0.0,0.0,0.0,0.0,0.0,0.0,0.0,0.0,0.0,0.0,0.0,0.0,0.0,0.0,0.0,0.0,0.0,0.0,0.0,0.0,0.0,0.0,0.0,0.0,0.0,0.0,0.0,0.0,0.0,0.0,0.0,0.0,0.0,0.0,0.0,0.0,0.0,0.0,0.0,0.0,0.0,0.0,0.0,0.0,0.0,0.0,0.0,0.0,0.0,0.0,0.0,0.0,0.0,0.0,0.0,0.0,0.0,0.0,0.0,0.0,0.0,0.0,0.0,0.0,0.0,0.0,0.0,0.0,0.0,0.0,0.0,0.0,0.0,0.0,0.0,0.0,0.0,0.0,0.0,1.7289,1.8858,2.0561,2.1235,2.1336,2.0828,1.9624,1.8404,1.7272,1.5565,0.0,0.0,0.0,0.0,0.0,0.0,0.0,0.0,0.0,0.0,0.0,0.0,0.0,0.0,0.0,0.0,0.0,0.0,0.0,0.0,0.0,0.0,0.0,0.0,0.0,0.0,0.0,0.0,0.0,0.0,0.0,0.0,0.0,0.0,0.0,0.0,0.0,0.0,0.0,0.0,0.0,0.0,0.0,0.0,0.0,0.0,0.0,0.0,0.0,0.0,0.0,0.0,0.0,0.0,0.0,0.0,0.0,0.0,0.0,0.0,0.0,0.0,0.0,0.0,0.0,0.0,0.0,0.0,0.0,0.0,0.0,0.0,0.0,0.0,0.0,0.0,0.0,0.0,0.0,0.0,0.0,0.0,0.0,0.0,0.0,0.0,0.0,0.0,0.0,0.0,0.0,0.0,0.0,0.0,0.0,0.0,0.0,0.0,0.0,0.0,0.0,0.0,1.7061,1.8658,1.9854,2.0116,2.0204,2.0175,1.8999,1.7969,1.7258,1.5565,0.0,0.0,0.0,0.0,0.0,0.0,0.0,0.0,0.0,0.0,0.0,0.0,0.0,0.0,0.0,0.0,0.0,0.0,0.0,0.0,0.0,0.0,0.0,0.0,0.0,0.0,0.0,0.0,0.0,0.0,0.0,0.0,0.0,0.0,0.0,0.0,0.0,0.0,0.0,0.0,0.0,0.0,0.0,0.0,0.0,0.0,0.0,0.0,0.0,0.0,0.0,0.0,0.0,0.0,0.0,0.0,0.0,0.0,0.0,0.0,0.0,0.0,0.0,0.0,0.0,0.0,0.0,0.0,0.0,0.0,0.0,0.0,0.0,0.0,0.0,0.0,0.0,0.0,0.0,0.0,0.0,0.0,0.0,0.0,0.0,0.0,0.0,0.0,0.0,0.0,0.0,0.0,0.0,0.0,0.0,0.0,0.0,0.0,0.0,0.0,0.0,0.0,1.6617,1.818,1.9719,2.0014,2.0068,1.998,1.889,1.7803,1.6825,0.0,0.0,0.0,0.0,0.0,0.0,0.0,0.0,0.0,0.0,0.0,0.0,0.0,0.0,0.0,0.0,0.0,0.0,0.0,0.0,0.0,0.0,0.0,0.0,0.0,0.0,0.0,0.0,0.0,0.0,0.0,0.0,0.0,0.0,0.0,0.0,0.0,0.0,0.0,0.0,0.0,0.0,0.0,0.0,0.0,0.0,0.0,0.0,0.0,0.0,0.0,0.0,0.0,0.0,0.0,0.0,0.0,0.0,0.0,0.0,0.0,0.0,0.0,0.0,0.0,0.0,0.0,0.0,0.0,0.0,0.0,0.0,0.0,0.0,0.0,0.0,0.0,0.0,0.0,0.0,0.0,0.0,0.0,0.0,0.0,0.0,0.0,0.0,0.0,0.0,0.0,0.0,0.0,0.0,0.0,0.0,0.0,0.0,0.0,0.0,0.0,0.0,1.4992,1.6715,1.8176,1.9162,1.9653,1.9705,1.9178,1.8036,1.7062,1.6337,0.0,0.0,0.0,0.0,0.0,0.0,0.0,0.0,0.0,0.0,0.0,0.0,0.0,0.0,0.0,0.0,0.0,0.0,0.0,0.0,0.0,0.0,0.0,0.0,0.0,0.0,0.0,0.0,0.0,0.0,0.0,0.0,0.0,0.0,0.0,0.0,0.0,0.0,0.0,0.0,0.0,0.0,0.0,0.0,0.0,0.0,0.0,0.0,0.0,0.0,0.0,0.0,0.0,0.0,0.0,0.0,0.0,0.0,0.0,0.0,0.0,0.0,0.0,0.0,0.0,0.0,0.0,0.0,0.0,0.0,0.0,0.0,0.0,0.0,0.0,0.0,0.0,0.0,0.0,0.0,0.0,0.0,0.0,0.0,0.0,0.0,0.0,0.0,0.0,0.0,0.0,0.0,0.0,0.0,0.0,0.0,0.0,0.0,0.0,0.0,0.0,0.0,1.4976,1.7438,1.878,1.7992,1.8848,1.8954,1.762,1.632,1.5668,0.0,0.0,0.0,0.0,0.0,0.0,0.0,0.0,0.0,0.0,0.0,0.0,0.0,0.0,0.0,0.0,0.0,0.0,0.0,0.0,0.0,0.0,0.0,0.0,0.0,0.0,0.0,0.0,0.0,0.0,0.0,0.0,0.0,0.0,0.0,0.0,0.0,0.0,0.0,0.0,0.0,0.0,0.0,0.0,0.0,0.0,0.0,0.0,0.0,0.0,0.0,0.0,0.0,0.0,0.0,0.0,0.0,0.0,0.0,0.0,0.0,0.0,0.0,0.0,0.0,0.0,0.0,0.0,0.0,0.0,0.0,0.0,0.0,0.0,0.0,0.0,0.0,0.0,0.0,0.0,0.0,0.0,0.0,0.0,0.0,0.0,0.0,0.0,0.0,0.0,0.0,0.0,0.0,0.0,0.0,0.0,0.0,0.0,0.0,0.0,0.0,0.0,0.0,1.4679,1.6749,1.8199,1.8446,1.862,1.8561,1.8163,1.646,1.5315,1.5135,0.0,0.0,0.0,0.0,0.0,0.0,0.0,0.0,0.0,0.0,0.0,0.0,0.0,0.0,0.0,0.0,0.0,0.0,0.0,0.0,0.0,0.0,0.0,0.0,0.0,0.0,0.0,0.0,0.0,0.0,0.0,0.0,0.0,0.0,0.0,0.0,0.0,0.0,0.0,0.0,0.0,0.0,0.0,0.0,0.0,0.0,0.0,0.0,0.0,0.0,0.0,0.0,0.0,0.0,0.0,0.0,0.0,0.0,0.0,0.0,0.0,0.0,0.0,0.0,0.0,0.0,0.0,0.0,0.0,0.0,0.0,0.0,0.0,0.0,0.0,0.0,0.0,0.0,0.0,0.0,0.0,0.0,0.0,0.0,0.0,0.0,0.0,0.0,0.0,0.0,0.0,0.0,0.0,0.0,0.0,0.0,0.0,0.0,0.0,0.0,0.0,0.0,1.4767,1.6975,1.8346,1.8128,1.8386,1.8344,1.7805,1.592,1.4743,1.4717,0.0,0.0,0.0,0.0,0.0,0.0,0.0,0.0,0.0,0.0,0.0,0.0,0.0,0.0,0.0,0.0,0.0,0.0,0.0,0.0,0.0,0.0,0.0,0.0,0.0,0.0,0.0,0.0,0.0,0.0,0.0,0.0,0.0,0.0,0.0,0.0,0.0,0.0,0.0,0.0,0.0,0.0,0.0,0.0,0.0,0.0,0.0,0.0,0.0,0.0,0.0,0.0,0.0,0.0,0.0,0.0,0.0,0.0,0.0,0.0,0.0,0.0,0.0,0.0,0.0,0.0,0.0,0.0,0.0,0.0,0.0,0.0,0.0,0.0,0.0,0.0,0.0,0.0,0.0,0.0,0.0,0.0,0.0,0.0,0.0,0.0,0.0,0.0,0.0,0.0,0.0,0.0,0.0,0.0,0.0,0.0,0.0,0.0,0.0,0.0,0.0,0.0,1.5067,1.768,1.8841,1.7472,1.8235,1.8327,1.706,1.5204,1.424,1.4538,0.0,0.0,0.0,0.0,0.0,0.0,0.0,0.0,0.0,0.0,0.0,0.0,0.0,0.0,0.0,0.0,0.0,0.0,0.0,0.0,0.0,0.0,0.0,0.0,0.0,0.0,0.0,0.0,0.0,0.0,0.0,0.0,0.0,0.0,0.0,0.0,0.0,0.0,0.0,0.0,0.0,0.0,0.0,0.0,0.0,0.0,0.0,0.0,0.0,0.0,0.0,0.0,0.0,0.0,0.0,0.0,0.0,0.0,0.0,0.0,1.9451,1.8567,0.0,0.0,0.0,0.0,0.0,0.0,0.0,0.0,0.0,0.0,0.0,0.0,0.0,0.0,0.0,0.0,0.0,0.0,0.0,0.0,0.0,0.0,0.0,0.0,0.0,0.0,0.0,0.0,0.0,0.0,0.0,0.0,0.0,0.0,0.0,0.0,0.0,0.0,0.0,0.0,1.5038,1.7136,1.8419,1.8238,1.8759,1.8835,1.813,1.6566,1.5248,1.4345,1.2695,0.0,0.0,0.0,0.0,0.0,0.0,0.0,0.0,0.0,0.0,0.0,0.0,0.0,0.0,0.0,0.0,0.0,0.0,0.0,0.0,0.0,0.0,0.0,0.0,0.0,0.0,0.0,0.0,0.0,0.0,0.0,0.0,0.0,0.0,0.0,0.0,0.0,0.0,0.0,0.0,0.0,0.0,0.0,0.0,0.0,0.0,0.0,0.0,0.0,0.0,0.0,0.0,0.0,0.0,0.0,0.0,0.0,0.0,0.0,2.13,2.0605,0.0,0.0,0.0,0.0,0.0,0.0,0.0,0.0,0.0,0.0,0.0,0.0,0.0,0.0,0.0,0.0,0.0,0.0,0.0,0.0,0.0,0.0,0.0,0.0,0.0,0.0,0.0,0.0,0.0,0.0,0.0,0.0,0.0,0.0,0.0,0.0,0.0,0.0,0.0,0.0,1.5819,1.7287,1.8283,1.8653,1.8942,1.8864,1.8253,1.6903,1.5747,1.4909,1.328,0.0,0.0,0.0,0.0,0.0,0.0,0.0,0.0,0.0,0.0,0.0,0.0,0.0,0.0,0.0,0.0,0.0,0.0,0.0,0.0,0.0,0.0,0.0,0.0,0.0,0.0,0.0,0.0,0.0,0.0,0.0,0.0,0.0,0.0,0.0,0.0,0.0,0.0,0.0,0.0,0.0,0.0,0.0,0.0,0.0,0.0,0.0,0.0,0.0,0.0,0.0,0.0,0.0,2.5333,2.56,2.6514,2.5341,2.5219,2.5792,2.3954,2.3449,2.3778,2.2185,0.0,0.0,0.0,0.0,0.0,0.0,0.0,0.0,0.0,0.0,0.0,0.0,0.0,0.0,0.0,0.0,0.0,0.0,0.0,0.0,0.0,0.0,1.8378,1.893,1.9072,1.8408,1.6022,0.0,0.0,0.0,0.0,0.0,0.0,0.0,0.0,0.0,0.0,0.0,1.671,1.767,1.8343,1.8915,1.9131,1.8983,1.8327,1.7195,1.6318,1.5779,1.4052,1.2657,0.0,0.0,0.0,0.0,0.0,0.0,0.0,0.0,0.0,0.0,0.0,0.0,0.0,0.0,0.0,0.0,0.0,0.0,0.0,0.0,0.0,0.0,0.0,0.0,0.0,0.0,0.0,0.0,0.0,0.0,0.0,0.0,2.0303,2.1182,0.0,0.0,0.0,0.0,0.0,0.0,0.0,0.0,0.0,0.0,0.0,0.0,0.0,2.4878,2.5655,2.6575,2.7106,2.7255,2.8195,2.8649,2.8688,2.8498,2.8837,2.9461,2.8553,0.0,2.392,2.4305,0.0,0.0,0.0,0.0,0.0,0.0,0.0,0.0,0.0,0.0,0.0,0.0,0.0,0.0,0.0,0.0,0.0,0.0,0.0,0.0,0.0,0.0,2.0415,2.0494,2.051,2.0257,1.9325,1.8191,1.653,1.381,1.37,1.3601,0.0,0.0,0.0,0.0,0.0,0.0,1.6994,1.7777,1.8484,1.9258,1.986,1.9971,1.9356,1.8671,1.7731,1.6459,1.5637,1.4596,1.3273,1.2583,0.0,0.0,0.0,0.0,0.0,0.0,0.0,0.0,0.0,0.0,0.0,0.0,0.0,0.0,0.0,0.0,0.0,0.0,0.0,0.0,0.0,0.0,0.0,0.0,0.0,0.0,0.0,0.0,0.0,2.067,2.2285,2.2233,2.2578,2.2371,0.0,0.0,0.0,0.0,0.0,0.0,0.0,0.0,0.0,2.6745,2.6613,2.7183,2.8551,2.9033,2.9586,3.0249,3.0417,3.0632,3.0875,3.048,3.0456,3.0749,3.0409,2.9193,2.7399,2.6946,2.5523,2.3641,0.0,0.0,0.0,0.0,2.2754,2.3038,2.3135,2.3085,2.2878,2.2293,0.0,0.0,0.0,0.0,0.0,0.0,0.0,2.0573,2.0841,2.1458,2.1981,2.1981,2.1913,2.1672,2.1009,2.0266,1.8952,1.6286,1.5962,1.5679,1.4197,1.4189,0.0,0.0,0.0,1.6671,1.7638,1.8376,1.9101,1.9829,2.0169,2.0111,1.9544,1.9264,1.856,1.7251,1.6549,1.5548,1.4174,1.3842,1.2957,0.0,0.0,0.0,0.0,0.0,0.0,0.0,0.0,0.0,0.0,0.0,0.0,0.0,0.0,0.0,0.0,0.0,0.0,0.0,0.0,0.0,0.0,0.0,0.0,0.0,0.0,0.0,0.0,2.2836,2.4112,2.3371,2.4456,2.4525,0.0,0.0,0.0,0.0,0.0,0.0,2.632,2.6746,2.7685,2.9312,2.8904,2.9325,3.0711,3.0704,3.1253,3.2377,3.1879,3.1956,3.2544,3.1981,3.1744,3.1744,3.1744,3.1365,3.0631,2.9224,2.7516,2.5792,2.5792,2.5049,2.4052,2.4539,2.4839,2.5045,2.5412,2.5282,2.4946,2.4772,2.3433,2.187,2.187,0.0,0.0,0.0,0.0,2.2232,2.253,2.2896,2.3199,2.3388,2.322,2.2881,2.2375,2.2142,2.1225,1.8576,1.8045,1.761,1.626,1.6032,0.0,1.5977,1.6809,1.77,1.8392,1.8962,1.9564,2.0227,2.0304,2.0138,1.9728,1.9575,1.903,1.7974,1.7261,1.6278,1.4912,1.4865,1.3937,1.1977,0.0,0.0,0.0,0.0,0.0,0.0,0.0,0.0,0.0,0.0,0.0,0.0,0.0,0.0,0.0,0.0,0.0,0.0,0.0,0.0,0.0,0.0,0.0,0.0,0.0,0.0,0.0,0.0,0.0,2.4971,2.7454,0.0,0.0,0.0,0.0,2.5921,2.6664,2.752,2.841,2.8954,2.9666,3.0583,3.1007,3.1269,3.134,3.1234,3.1564,3.2291,3.2285,3.2592,3.3245,3.3214,3.3198,3.3198,3.3198,3.2803,3.2086,3.0678,2.9232,2.7936,2.7936,2.751,2.6893,2.6925,2.7336,2.7794,2.7209,2.7383,2.7778,2.7146,2.5945,2.478,2.478,2.3831,0.0,0.0,2.3307,2.3151,2.4479,2.4349,2.4033,2.4732,2.4349,2.3841,2.3809,2.3733,2.282,1.9883,1.9275,1.8963,1.8176,0.0,1.8053,1.8053,1.8099,1.8422,1.9148,1.9271,1.9564,2.0227,2.0304,2.0289,2.0258,1.9789,1.9202,1.85,1.796,1.7004,1.5608,1.5545,1.4865,1.3415,1.2767,0.0,0.0,0.0,0.0,0.0,0.0,0.0,0.0,0.0,0.0,0.0,0.0,0.0,0.0,0.0,0.0,0.0,0.0,0.0,0.0,0.0,0.0,0.0,0.0,0.0,0.0,0.0,0.0,2.8575,2.9161,0.0,2.8713,2.8545,2.8528,2.8663,2.949,3.0319,3.1004,3.0914,3.1322,3.2467,3.2174,3.2364,3.313,3.3172,3.3561,3.43,3.43,3.4399,3.4636,3.4162,3.3941,3.3909,3.3482,3.3166,3.2898,3.2392,3.1097,2.9508,2.9927,2.9406,2.8435,2.8916,2.9255,2.9429,2.9192,2.8948,2.8467,2.6909,2.6372,2.6261,2.5787,2.5282,2.5045,2.5772,2.5787,2.5688,2.6115,2.6031,2.5774,2.5503,2.517,2.4797,2.438,2.3864,2.3161,2.2111,2.1608,2.0976,1.9763,1.9546,1.9237,1.8345,1.8961,1.9486,1.9317,1.9672,2.0042,2.0273,2.0304,2.0321,2.0371,1.9787,1.9169,1.8546,1.7962,1.7202,1.621,1.5804,1.5165,1.4221,1.3073,1.2015,0.0,0.0,0.0,0.0,0.0,0.0,0.0,0.0,0.0,0.0,0.0,0.0,0.0,0.0,0.0,0.0,0.0,0.0,0.0,0.0,0.0,0.0,0.0,0.0,0.0,2.8178,3.011,3.0645,3.1351,3.161,3.111,3.0913,3.0972,3.143,3.2026,3.2543,3.2943,3.2954,3.3356,3.4179,3.377,3.3932,3.4745,3.4597,3.475,3.5238,3.5238,3.5266,3.5279,3.4774,3.4624,3.4636,3.4194,3.3862,3.364,3.364,3.2692,3.1279,3.1492,3.086,2.9872,3.0354,3.0528,3.0528,3.0528,3.0069,2.9225,2.7857,2.7431,2.7352,2.6862,2.6562,2.6467,2.6972,2.7099,2.7077,2.6997,2.6932,2.6763,2.6223,2.6006,2.5734,2.5035,2.4441,2.3978,2.3747,2.303,2.2118,2.1137,2.0965,2.0716,2.0037,2.0516,2.0811,2.0381,2.0505,2.0551,2.0335,2.0304,2.0321,2.0371,1.9971,1.937,1.8516,1.8107,1.7476,1.6532,1.6349,1.5962,1.5295,1.4142,1.3194,1.2483,0.0,0.0,0.0,0.0,0.0,0.0,0.0,0.0,0.0,0.0,0.0,0.0,0.0,0.0,0.0,0.0,0.0,0.0,0.0,0.0,0.0,0.0,0.0,2.7453,3.0593,3.2403,3.1058,3.4059,3.5111,3.2248,3.33,3.4162,3.4197,3.4214,3.422,3.422,3.5133,3.5656,3.5637,3.5886,3.6045,3.6034,3.5335,3.4998,3.4985,3.4985,3.5042,3.5156,3.5125,3.5225,3.541,3.5394,3.4984,3.432,3.432,3.3941,3.3261,3.2592,3.1887,3.1261,3.1261,3.1246,3.1214,3.1214,3.0796,3.0236,3.0236,2.9318,2.8189,2.8158,2.7715,2.7194,2.7156,2.7141,2.7141,2.7156,2.7038,2.6957,2.692,2.6811,2.6536,2.5872,2.5616,2.5298,2.4653,2.335,2.2366,2.2317,2.2336,2.2532,2.3163,2.2736,0.0,2.2305,2.1735,2.1088,2.0474,2.0397,2.0397,2.0366,2.0385,1.9864,1.8532,1.8469,1.7904,1.658,1.7206,1.7249,1.6581,1.594,1.5276,1.4632,0.0,0.0,0.0,0.0,0.0,0.0,0.0,0.0,0.0,0.0,0.0,0.0,0.0,0.0,0.0,0.0,0.0,0.0,0.0,0.0,0.0,2.8334,3.0558,3.0558,3.1903,3.3576,3.5425,3.5076,3.5045,3.5856,3.5783,3.5838,3.6095,3.6671,3.6859,3.6578,3.6738,3.6728,3.6554,3.6624,3.6787,3.707,3.6988,3.6989,3.708,3.708,3.6864,3.6466,3.5935,3.5701,3.5743,3.5243,3.4914,3.4754,3.4823,3.4486,3.3826,3.324,3.2898,3.2724,3.2724,3.2408,3.2007,3.2007,3.1523,3.0939,3.0939,3.067,3.0275,2.9753,2.9438,2.9092,2.8558,2.8363,2.8302,2.8217,2.8155,2.8,2.7388,2.7234,2.7025,2.6346,2.5753,2.5293,2.513,2.4369,2.3594,2.3102,2.3025,2.2917,2.2609,2.2428,2.2305,2.2305,2.2151,2.2151,2.2443,2.249,2.2289,2.1797,2.1322,2.0493,1.9214,1.8687,1.808,1.7261,1.6946,1.6514,1.5893,1.5687,1.5513,0.0,0.0,0.0,0.0,0.0,0.0,0.0,0.0,0.0,0.0,0.0,0.0,0.0,0.0,0.0,0.0,0.0,0.0,0.0,0.0,0.0,0.0,3.0886,3.33,3.4887,3.4938,3.5473,3.7288,3.6615,3.6512,3.784,3.7525,3.7352,3.7586,3.7997,3.8044,3.7687,3.798,3.8026,3.7711,3.7867,3.806,3.8288,3.7817,3.7608,3.7682,3.7447,3.7164,3.6862,3.6426,3.627,3.636,3.5998,3.5683,3.5462,3.559,3.5197,3.4478,0.0,0.0,0.0,0.0,3.304,3.2734,3.2734,3.2234,3.165,3.165,3.146,3.1144,3.0733,3.0574,3.0343,2.9635,2.9423,2.9281,2.8826,2.8692,2.8567,2.8022,2.7859,2.7642,2.6949,2.6488,2.6103,2.5826,2.5441,0.0,2.4256,2.3902,2.3686,2.3579,2.3317,2.3132,2.3132,2.2886,2.2748,2.2871,2.2871,2.2717,2.2317,2.1689,0.0,0.0,0.0,1.8532,1.7936,1.7307,0.0,0.0,0.0,0.0,0.0,0.0,0.0,0.0,1.536,1.4989,0.0,0.0,0.0,0.0,0.0,0.0,0.0,0.0,0.0,0.0,0.0,0.0,0.0,0.0,0.0,0.0,3.349,3.5852,3.9112,3.8594,3.7892,3.7892,3.8323,3.8594,3.8594,3.8663,3.8693,3.8693,3.8665,3.851,3.8204,3.9041,0.0,0.0,0.0,3.9489,3.9463,3.8294,3.7666,3.7608,3.7058,3.6831,3.6892,3.68,3.6877,3.706,3.7119,3.6775,3.6227,3.6373,3.5933,3.5125,3.4494,3.3887,3.3366,3.3287,3.324,3.3282,3.3282,0.0,0.0,3.2402,3.1966,3.1419,3.1324,3.1284,3.1117,3.0432,3.0243,3.0053,2.9265,2.8959,2.8832,2.8721,2.8539,2.8242,2.7642,2.7442,2.7211,2.6633,2.6464,2.618,2.5527,2.485,2.4594,2.5096,2.4687,2.4302,2.4302,2.3779,2.3209,2.2686,2.2624,0.0,2.2517,2.1981,2.1288,2.0491,1.972,1.9121,1.8624,1.8027,1.8399,1.9878,1.983,1.9894,2.0052,2.0557,2.021,1.9075,1.72,1.6398,0.0,0.0,0.0,0.0,0.0,0.0,0.0,0.0,0.0,0.0,0.0,0.0,0.0,0.0,0.0,3.2527,3.6025,3.8646,3.8784,3.9652,4.0239,4.0239,3.9272,3.8594,3.8594,3.9038,3.933,3.933,3.9795,4.0065,3.9993,4.0178,4.019,4.0009,4.0078,4.007,3.9969,3.9705,3.9322,3.8838,3.8728,0.0,3.7982,3.749,3.7298,3.7314,3.6846,3.6569,3.6446,3.6583,3.63,3.5625,3.4435,3.3888,3.3716,3.3181,3.3058,3.3123,3.3123,3.3108,3.3103,3.3103,3.293,3.2646,3.2209,3.1814,0.0,3.0842,3.0544,3.0325,3.0145,2.9703,2.9277,2.9237,2.8796,2.8365,2.8242,2.778,2.7349,2.7226,2.6765,2.6334,2.6142,2.5542,2.4979,2.4564,2.4374,2.4302,2.4302,2.4194,2.4271,2.4687,2.4712,2.4502,2.3963,2.3794,2.3002,2.1288,2.0101,1.9387,1.923,1.8702,1.9076,2.0506,2.0051,2.0368,2.1489,2.1031,2.0701,2.048,1.9026,1.8432,0.0,0.0,0.0,0.0,0.0,0.0,0.0,0.0,0.0,0.0,0.0,2.9542,3.0108,0.0,3.4701,3.608,3.8215,4.0095,4.1291,4.1392,4.123,4.0922,3.9807,3.921,3.9606,3.9849,4.0001,4.0001,4.0239,4.0387,4.0387,4.0337,4.0288,4.0188,4.0188,4.0163,4.0096,3.9799,3.9513,3.9206,3.8876,3.8601,3.8294,3.7982,3.7854,3.7854,3.7621,3.7504,3.7474,3.7237,3.6809,3.6194,3.5126,3.4607,3.4448,3.4131,3.4089,3.4195,3.3817,3.3745,3.3735,3.334,3.315,3.3033,3.2688,3.2435,3.212,3.1483,3.1218,3.1011,3.0593,3.0243,2.9981,2.992,2.9371,2.8904,2.8904,2.8381,2.7904,2.7904,2.7626,2.7288,2.6896,2.658,2.6134,2.5441,2.5349,2.5226,2.4856,2.4789,2.4789,2.4789,2.4789,2.465,2.4333,2.3994,2.3244,2.1929,2.0947,2.0424,2.0506,1.9888,2.0111,2.1279,2.0999,2.1363,2.2408,2.2028,2.1872,2.1889,2.1243,2.0863,0.0,0.0,0.0,0.0,0.0,0.0,0.0,0.0,2.817,2.8865,3.1115,3.3149,3.3701,3.5525,3.756,3.9388,4.0198,4.1405,4.3759,4.3055,4.2041,4.1423,4.0487,4.0117,4.0597,4.0534,4.0461,4.0461,4.0337,4.0263,4.0263,4.0299,4.0316,4.0316,4.0451,4.0536,4.0536,4.0036,3.9781,3.9781,3.9155,3.8853,3.8853,3.8595,3.8474,3.8474,3.8463,3.8446,3.8418,3.7937,3.7458,3.6951,3.618,3.5753,3.5524,3.513,3.5109,3.5187,3.4589,3.4384,3.4274,3.352,3.3246,3.3177,3.2971,3.2843,3.2676,3.2126,3.1944,3.1751,3.1119,3.0846,3.0727,3.0612,3.0079,2.9587,2.9587,2.9073,2.8596,2.8596,2.8488,2.8227,2.7688,2.7596,2.7319,2.6503,2.638,2.6164,2.5558,2.5496,2.5235,2.4579,2.4481,2.4441,2.4317,2.3686,2.3071,2.2536,2.1892,2.1595,2.1771,2.1229,2.1348,2.2262,2.2153,2.2424,2.3085,2.3085,2.3085,2.3104,2.3303,2.303,2.7643,2.509,2.3992,2.5532,2.6055,2.717,0.0,0.0,3.2617,3.4049,3.5134,3.6084,3.6839,3.8249,3.9388,3.9664,4.2016,4.369,4.3362,4.3741,4.3751,4.3034,4.2011,4.1142,4.0585,4.0387,4.033,4.033,4.0188,4.0138,4.0138,4.0739,4.1085,4.1085,4.1711,4.2033,4.2033,4.198,4.1953,4.1953,4.1216,4.0886,4.0826,3.9638,3.9098,3.9055,3.8546,3.8306,3.8306,3.825,3.8165,3.8051,3.7424,3.7227,3.7107,3.5245,3.4665,3.4765,3.4672,3.4727,3.4732,3.402,3.3746,3.3538,3.3057,3.2676,3.2465,3.2485,3.2427,3.2314,3.221,3.1763,3.1301,3.1274,3.0782,3.0279,3.0279,2.9756,2.9279,2.9279,2.8827,2.8381,2.8304,2.8288,2.7857,2.6603,2.6349,2.628,2.6204,2.6241,2.5995,2.5266,2.5189,2.4943,2.4364,2.3686,2.3271,2.3179,2.2609,2.2313,2.2397,2.242,2.2813,2.3569,2.3065,2.3117,2.3778,2.3778,2.3778,2.3793,2.4464,2.4112,3.0712,2.8966,2.8017,0.0,2.9902,3.1357,3.3183,3.4266,3.5197,3.6322,3.7456,3.837,3.8715,4.0008,4.1181,4.1671,4.3189,4.4345,4.4458,4.4242,4.3777,4.304,4.2014,4.1146,4.0554,4.0696,4.0637,4.0222,4.0121,4.0299,4.0713,4.1035,4.1407,4.183,4.2134,4.2286,4.2286,4.2286,4.2286,4.2286,4.1542,4.1204,4.1161,4.0178,3.9722,3.9722,3.947,3.9162,3.8821,3.8821,3.8629,3.8278,3.801,3.7953,3.7844,3.6327,3.5887,3.599,3.557,3.5443,3.5363,3.4607,3.4333,3.4213,3.3906,3.3434,3.2982,3.3054,3.2733,3.2398,3.2398,3.2182,3.1967,3.1967,3.1474,3.0982,3.0982,3.0474,2.9863,2.9464,2.9156,2.8956,2.8834,2.8803,2.8708,2.8405,2.789,2.7372,2.6995,2.6965,2.6703,2.601,2.5949,2.5826,2.5549,2.5256,2.5102,2.5102,2.4467,2.4138,2.4234,2.397,2.4198,2.5015,2.4441,2.4669,2.5751,2.5325,2.5345,2.5772,2.6072,2.5918,3.1897,3.1305,3.1046,3.1251,3.3007,3.4749,3.4993,3.618,3.7404,3.7996,3.9112,4.0026,4.0026,4.1095,4.2275,4.3069,4.3828,4.4544,4.5267,4.4532,4.3664,4.286,4.2056,4.1265,4.0521,4.073,4.0747,4.0434,4.0417,4.0629,4.117,4.1593,4.2049,4.2591,4.2811,4.2912,4.2912,4.2912,4.2912,4.2939,4.2168,4.1813,4.1779,4.0832,4.0299,4.0096,4.0096,3.985,3.9444,3.9444,3.9189,3.8794,3.8629,3.8546,3.8418,3.7474,3.7238,3.7251,3.6554,3.6322,3.6154,3.5219,3.4914,3.4883,3.4596,3.4135,3.369,3.369,3.3336,3.2921,3.2721,3.2675,3.2684,3.2648,3.2241,3.1938,3.2096,3.1592,3.0967,3.0482,3.0232,3.0082,2.9925,2.974,2.971,3.0063,2.9354,2.8623,2.8123,2.779,2.7357,2.6741,2.6503,2.638,2.6364,2.6521,2.6588,2.6588,2.6091,2.5854,2.5961,2.5456,2.5483,2.6162,2.5778,2.6092,2.7099,2.6562,2.6577,2.7099,2.7099,2.7099,2.9799,3.0145,3.1042,3.2472,3.4542,3.6439,3.7236,3.8525,3.9595,3.9629,4.0308,4.086,4.086,4.1498,4.2275,4.3069,4.3828,4.4518,4.5127,4.4568,4.3734,4.2808,4.2542,4.1886,4.0441,4.0205,4.0434,4.1119,4.117,4.1187,4.1204,4.2574,4.3341,4.3358,4.4113,4.453,4.453,4.453,4.453,4.453,4.3724,4.3325,4.3274,4.1847,4.0781,4.0096,4.0096,4.007,4.007,4.007,4.0045,3.9995,3.9391,3.9179,3.9098,3.849,3.8266,3.8165,3.7592,3.7356,3.7156,3.5902,3.5491,3.5352,3.4705,3.4489,3.4474,3.4474,3.4459,3.4274,3.3552,3.3367,3.3339,3.3197,3.314,3.3297,3.3811,3.3387,3.291,3.2894,3.2376,3.1929,3.1897,3.1313,3.0843,3.0865,3.0231,2.975,2.9733,2.877,2.7906,2.7435,2.678,2.6364,2.6311,2.6767,2.7068,2.7068,2.7052,2.7079,2.7148,2.6822,2.6707,2.6863,2.6971,2.7067,2.7099,2.7083,2.7083,2.7099,2.7099,2.7099,3.1696,3.2697,3.4162,3.618,3.7629,3.8767,3.9583,4.0152,4.0359,3.9802,3.9905,3.9939,3.9462,4.0411,4.1533,4.2292,4.3407,4.4414,4.51,4.4399,4.3515,4.2661,4.2021,4.1451,4.0959,4.0857,4.073,4.0476,4.0916,4.1407,4.1897,4.2878,4.3656,4.4181,4.4479,4.4615,4.4615,4.4615,4.4615,4.4598,4.3792,4.3122,4.2658,4.2151,4.1525,4.0832,4.0832,4.0544,4.0096,4.0096,4.0096,4.007,3.9893,3.9799,3.9773,3.9575,3.948,3.9348,3.8351,3.7982,3.7863,3.7014,3.6759,3.6652,3.6028,3.5537,3.5167,3.5167,3.4844,3.4443,3.4197,3.4135,3.4094,3.3904,3.3851,3.3884,3.3982,3.3817,3.3534,3.3089,3.2821,3.2631,3.2504,3.2253,3.2199,3.2517,3.0975,2.9793,2.9793,2.9468,2.9153,2.9013,2.8783,2.8662,2.8624,2.88,2.8887,2.8887,2.8474,2.811,2.7815,2.7306,2.7295,2.788,2.7322,2.7651,2.8897,2.8226,2.8082,2.8435,2.8435,2.8435,3.3438,3.4852,3.6512,3.8491,3.956,4.025,4.0791,4.0687,4.0256,3.9457,3.9094,3.8681,3.7922,3.8599,3.9767,4.136,4.2373,4.346,4.4917,4.4124,4.3248,4.287,4.1865,4.1305,4.1576,4.1593,4.1288,4.057,4.1424,4.2083,4.2286,4.3267,4.4062,4.4581,4.4615,4.4615,4.4615,4.4615,4.4615,4.4598,4.4079,4.3436,4.2692,4.2692,4.2286,4.1593,4.1593,4.1305,4.0874,4.062,4.0476,4.0485,4.0214,4.0096,4.0096,4.0096,4.0096,3.9969,3.8974,3.8629,3.8518,3.7911,3.7709,3.765,3.7252,3.6849,3.6503,3.6503,3.6189,3.5768,3.5317,3.5196,3.5138,3.4959,3.4712,3.4563,3.4923,3.4758,3.4429,3.4008,3.3933,3.3879,3.3773,3.3517,3.3359,3.3398,3.2079,3.0936,3.05,3.0446,3.0283,2.9848,2.9793,2.9793,2.9793,2.9946,3.0054,3.0054,2.965,2.9284,2.8968,2.8469,2.8437,2.8952,2.8453,2.8769,2.9989,2.9264,2.9076,2.9357,2.9236,2.9144,3.4956,3.6529,3.8082,3.9457,4.0388,4.0946,4.086,4.0215,3.9405,3.8577,3.7858,3.7081,0.0,0.0,3.7232,4.0239,4.0836,4.1877,4.457,4.3765,4.3002,0.0,0.0,0.0,0.0,0.0,4.1948,4.1255,4.2564,4.3071,4.2388,4.3785,4.4615,4.4615,4.4615,4.4615,4.4615,4.4615,4.4615,4.4615,4.4615,4.4198,4.3443,4.3443,4.3064,4.2354,4.2354,4.232,4.2236,4.1542,4.1271,4.1187,4.0502,4.0214,4.0214,4.0214,4.0197,4.0071,3.9511,3.9292,3.9152,3.8546,3.8351,3.8334,3.8322,3.8306,3.8306,3.8306,3.8306,3.802,3.681,3.6479,3.6476,3.6335,3.5714,3.546,3.6619,3.6265,3.5701,3.5667,3.5616,3.56,3.56,3.503,3.432,3.3626,3.3525,3.3073,3.1843,3.1701,3.1264,3.012,2.9973,2.9973,2.9973,3.0403,3.0655,3.0655,3.0605,3.0584,3.0597,3.0236,3.0044,3.0147,3.0269,3.0396,3.045,3.0254,3.0082,2.9951,2.9611,2.94,3.7301,3.925,4.0922,4.1326,4.1585,4.1429,4.0267,3.9405,3.8336,3.6456,3.5494,3.4562,0.0,0.0,0.0,3.8047,4.0085,0.0,4.3928,4.4167,0.0,4.347,0.0,4.188,4.1525,4.1474,4.1407,4.1221,4.2564,4.3308,4.3149,4.4045,4.4615,4.4615,4.4615,4.4615,4.4615,4.4615,4.4615,4.4615,4.4615,4.4496,4.4282,4.4282,4.3859,4.3132,4.3132,4.2811,4.2286,4.21,4.2016,4.1999,4.1796,4.1728,4.1728,4.1728,4.139,4.089,4.0744,4.0321,3.9773,3.9162,3.8974,3.8892,3.8435,3.8306,3.8306,3.8306,3.8306,3.8218,3.7899,3.7822,3.7785,3.764,3.7458,3.7358,3.7576,3.7466,3.7161,3.6586,3.6011,3.56,3.56,3.543,3.5245,3.5059,3.5042,3.4547,3.3123,3.2934,3.2824,3.2517,3.2479,3.2479,3.2479,3.2584,3.2648,3.2648,3.2147,3.1918,3.2132,3.1014,3.0927,3.2144,3.1435,3.151,3.245,3.2149,3.1979,3.1962,3.1874,3.1808,3.9267,4.105,4.2447,4.2102,4.2016,4.1423,3.9215,3.8129,3.6749,3.3818,3.261,0.0,3.0524,3.1903,3.4022,0.0,0.0,0.0,4.3515,4.3739,4.3739,0.0,4.2946,0.0,4.2658,4.2675,4.2675,4.2675,4.3132,4.3392,4.3392,4.4147,4.4615,4.4615,4.4615,4.4615,4.4615,4.4615,4.4615,4.4615,4.4615,4.4615,4.4615,4.4615,4.4333,4.3927,4.3927,4.369,4.3267,4.2929,4.2777,4.276,4.2422,4.2286,4.2286,4.2286,4.2033,4.1677,4.1677,4.1407,4.0907,3.9914,3.9575,3.9523,3.9189,3.9092,3.9092,3.9092,3.9092,3.9038,3.8767,3.8684,3.8668,3.8596,3.8344,3.8151,3.8325,3.8125,3.7787,3.7347,3.6924,3.6495,3.618,3.6129,3.6011,3.565,3.56,3.5295,3.4467,3.4083,3.3761,3.344,3.3406,3.3406,3.3406,3.3406,3.3406,3.3406,3.3,3.2845,3.2998,3.2206,3.2236,3.3198,3.2625,3.2698,3.3518,3.3186,3.3019,3.3002,3.2872,3.2768,4.0998,4.2327,4.3276,4.2396,4.2085,4.1188,3.8065,3.6559,3.4818,3.1163,0.0,2.8851,2.8213,2.9437,3.1693,3.5235,0.0,4.0295,4.3136,4.2923,4.3005,4.4429,4.3244,4.2844,4.431,4.4361,4.4344,4.4418,4.3792,4.3443,4.3544,4.4215,4.4615,4.4615,4.4615,4.4615,4.4615,4.4615,4.4615,4.4615,4.4615,4.4615,4.4615,4.4615,4.4615,4.4615,4.4615,4.4615,4.4564,4.3859,4.3572,4.3504,4.2861,4.2591,4.2591,4.2591,4.2523,4.2439,4.2439,4.2371,4.2083,4.0823,4.04,4.0367,4.0282,4.0248,4.0231,4.013,4.0096,3.9969,3.9444,3.9379,3.9428,3.9329,3.8897,3.8637,3.9041,3.8565,3.8058,3.8058,3.7973,3.7702,3.7066,3.6948,3.6694,3.5893,3.5752,3.5718,3.5616,3.5047,3.4404,3.3761,3.3694,3.3694,3.3694,3.3694,3.3694,3.3694,3.3609,3.3592,3.3694,3.3508,3.355,3.3858,3.3794,3.3881,3.4171,3.3908,3.3765,3.3786,3.3494,3.3304,4.2585,4.3889,4.4699,4.3327,4.2499,4.105,3.7353,3.4938,0.0,0.0,2.7678,2.6645,2.6507,2.8216,3.0656,3.3774,3.6517,3.9299,4.2294,4.2494,4.2915,0.0,4.3244,4.2642,4.3538,4.3047,4.2946,4.3572,4.3477,4.3707,4.435,4.453,4.4615,4.4615,4.4615,4.4615,4.4615,4.4615,4.4615,4.4615,4.4615,4.4615,4.4615,4.4615,4.4615,4.4615,4.4615,4.4615,4.4598,4.4462,4.4384,4.4395,4.4259,4.4209,4.4209,4.4209,4.3775,4.3189,4.3189,4.2811,4.2252,4.1982,4.1941,4.1796,4.1187,4.1018,4.0882,4.0282,4.0096,4.0087,3.9969,4.0399,4.0702,4.0095,4.0315,4.0526,4.002,3.9326,3.8802,3.8802,3.8328,3.7872,3.7736,3.7719,3.7449,3.6711,3.6586,3.6349,3.5684,3.5481,3.5346,3.5228,3.5211,3.5211,3.5211,3.5211,3.5211,3.5211,3.4658,3.459,3.5194,3.4066,3.3981,3.5238,3.4771,3.4883,3.5626,3.5685,3.5732,3.5799,3.5757,3.5698,4.3103,4.4285,4.5035,4.3569,4.2603,4.0808,3.6197,0.0,0.0,0.0,2.5697,2.4905,2.4905,2.6721,0.0,3.1606,3.4099,3.7001,4.0714,4.0544,4.1153,4.4242,4.3244,4.2743,4.391,4.369,4.3623,4.3995,4.4012,4.4181,4.4581,4.4615,4.4615,4.4615,4.4615,4.4615,4.4615,4.4615,4.4615,4.4615,4.4615,4.4615,4.4615,4.4615,4.4615,4.4615,4.4615,4.4615,4.4615,4.4615,4.4615,4.4615,4.4615,4.4615,4.4615,4.4615,4.435,4.4012,4.4012,4.3775,4.3515,4.3515,4.2946,4.2219,4.188,4.1762,4.1694,4.1322,4.0967,4.0663,4.0663,4.0646,4.0527,4.018,4.0383,4.0536,4.018,3.9825,3.9571,3.9571,3.9276,3.892,3.8531,3.8464,3.821,3.7483,3.7364,3.7229,3.6857,3.6783,3.6479,3.5684,3.56,3.56,3.56,3.56,3.56,3.56,3.5261,3.5228,3.5583,3.4906,3.4917,3.5689,3.5416,3.5547,3.6101,3.6182,3.6229,3.6301,3.6301,3.6301,4.3155,4.4285,4.5035,4.3569,4.2361,4.0146,3.5007,3.2403,0.0,0.0,2.4098,2.3598,2.3739,0.0,2.7346,0.0,3.1776,3.4614,3.902,3.864,3.9495,0.0,4.3115,0.0,4.4462,4.4615,4.4615,4.4615,4.4615,4.4615,4.4615,4.4615,4.4615,4.4615,4.4615,4.4615,4.4615,4.4615,4.4615,4.4615,4.4615,4.4615,4.4615,4.4615,4.4615,4.4615,4.4615,4.4615,4.4615,4.4615,4.4615,4.4615,4.4615,4.4615,4.4615,4.4615,4.4615,4.4615,4.4615,4.4615,4.4615,4.4615,4.3785,4.2743,4.2591,4.254,4.2489,4.2337,4.188,4.1441,4.1441,4.1119,4.0773,4.062,4.0451,4.0299,4.013,4.0096,4.0096,4.0096,4.0096,3.9926,3.9351,3.9225,3.8988,3.8261,3.8142,3.8091,3.7922,3.7905,3.7449,3.6208,3.5938,3.5785,3.5616,3.56,3.56,3.56,3.56,3.56,3.56,3.56,3.5644,3.5751,3.5795,3.5927,3.6144,3.6204,3.6229,3.6301,3.6301,3.6301,4.3,4.4285,4.5035,4.3569,4.155,3.8675,3.3997,0.0,0.0,2.4491,2.3278,2.2995,2.3598,2.4372,0.0,0.0,0.0,3.3008,3.7549,3.8021,3.9309,4.3054,0.0,0.0,4.4462,4.4615,4.4615,4.4615,4.4615,4.4615,4.4615,4.4615,4.4615,4.4615,4.4615,4.4615,4.4615,4.4615,4.4615,4.4615,4.4615,4.4615,4.4615,4.4615,4.4615,4.4615,4.4615,4.4615,4.4615,4.4615,4.4615,4.4615,4.4615,4.4615,4.4615,4.4615,4.4615,4.4615,4.4615,4.4615,4.4615,4.4615,4.4513,4.4259,4.3538,4.3291,4.3139,4.2489,4.2236,4.2185,4.2185,4.2658,4.2946,4.2252,4.1593,4.0916,4.0248,4.0096,4.0096,4.0096,4.0096,4.0079,4.0011,3.9994,3.9757,3.9005,3.8886,3.865,3.799,3.7905,3.7855,3.7702,3.7077,3.6383,3.565,3.56,3.56,3.56,3.56,3.56,3.56,3.56,3.56,3.5622,3.5751,3.5883,3.6019,3.6144,3.6229,3.6301,3.6301,3.6301,4.1578,4.293,4.3802,4.2634,4.0655,3.7863,3.3634,0.0,2.7362,2.4325,2.3134,2.2722,2.2987,2.3585,2.4737,0.0,0.0,0.0,3.399,3.4571,3.6231,4.0865,4.1542,4.2422,4.4412,4.4615,4.4615,4.4615,4.4615,4.4615,4.4615,4.4615,4.4615,4.4615,4.4615,4.4615,4.4615,4.4615,4.4615,4.4615,4.4615,4.4615,4.4615,4.4615,4.4615,4.4615,4.4615,4.4615,4.4615,4.4615,4.4615,4.4615,4.4615,4.4615,4.4615,4.4615,4.4615,4.4615,4.4615,4.4615,4.4615,4.4615,4.4615,4.4547,4.4215,4.4113,4.4045,4.3758,4.3335,4.2963,4.2963,4.2861,4.2658,4.2354,4.2066,4.1779,4.15,4.1068,4.0747,4.0747,4.0417,4.0096,4.0096,4.0096,4.0011,3.9723,3.9673,3.9571,3.9242,3.9208,3.9039,3.8616,3.7905,3.733,3.7003,3.6969,3.6969,3.6969,3.6969,3.6969,3.6969,3.6969,3.6969,3.6969,3.7091,3.7149,3.7195,3.7432,3.7543,3.7571,3.7637,3.768,4.0175,4.1623,4.2555,4.17,3.9787,3.7014,0.0,2.9774,2.6922,2.3956,2.2942,2.2582,2.2582,2.2942,2.3735,0.0,0.0,2.7182,3.1766,3.252,3.4303,3.8911,0.0,4.1356,4.3386,4.4209,4.4615,4.4615,4.4615,4.4615,4.4615,4.4615,4.4615,4.4615,4.4615,4.4615,4.4615,4.4615,4.4615,4.4615,4.4615,4.4615,4.4615,4.4615,4.4615,4.4615,4.4615,4.4615,4.4615,4.4615,4.4615,4.4615,4.4615,4.4615,4.4615,4.4615,4.4615,4.4615,4.4615,4.4615,4.4615,4.4615,4.4615,4.4615,4.4615,4.4615,4.4615,4.4615,4.4181,4.3758,4.3758,4.3369,4.2912,4.2675,4.2625,4.2574,4.2337,4.188,4.1525,4.1525,4.0916,4.0434,4.0434,4.0434,4.0367,4.013,4.0299,4.0367,4.013,4.0096,3.991,3.9377,3.8853,3.8379,3.7939,3.7905,3.7905,3.7905,3.7905,3.7905,3.7905,3.7905,3.7929,3.7953,3.7973,3.8003,3.8057,3.8236,3.8368,3.8391,3.855,3.8594,3.9089,4.0741,4.1641,4.0903,3.8905,3.592,3.1355,2.8612,2.6154,2.3133,2.2501,2.2501,2.2501,2.2446,2.2898,2.4375,2.5165,0.0,3.1766,3.2957,3.4523,0.0,3.8565,3.9614,4.1085,4.3267,4.4615,4.4615,4.4615,4.4615,4.4615,4.4615,4.4615,4.4615,4.4615,4.4615,4.4615,4.4615,4.4615,4.4615,4.4615,4.4615,4.4615,4.4615,4.4615,4.4615,4.4615,4.4615,4.4615,4.4615,4.4615,4.4615,4.4615,4.4615,4.4615,4.4615,4.4615,4.4615,4.4615,4.4615,4.4615,4.4615,4.4615,4.4615,4.4615,4.4615,4.4615,4.4615,4.4598,4.4598,4.4598,4.4581,4.4395,4.3589,4.3375,4.3172,4.2455,4.2286,4.2286,4.2286,4.1694,4.1187,4.1187,4.1187,4.0933,4.0214,4.0713,4.0916,4.0197,4.0096,4.0096,4.0096,4.0079,3.9503,3.8024,3.7905,3.7905,3.7905,3.7905,3.7905,3.7905,3.7905,3.7953,3.8101,3.7977,3.8007,3.8213,3.8213,3.8259,3.8391,3.855,3.8594,3.4613,3.6092,3.7002,3.6083,3.4512,3.2389,2.9285,2.7284,2.5349,2.2929,2.2432,2.2432,2.2432,2.2405,2.3223,2.5754,2.6283,0.0,0.0,0.0,0.0,3.6907,4.0519,4.3024,4.3498,4.4192,4.4615,4.4615,4.4615,4.4615,4.4615,4.4615,4.4615,4.4615,4.4615,4.4615,4.4615,4.4615,4.4615,4.4615,4.4615,4.4615,4.4615,4.4615,4.4615,4.4615,4.4615,4.4615,4.4615,4.4615,4.4615,4.4615,4.4615,4.4615,4.4615,4.4615,4.4615,4.4615,4.4615,4.4615,4.4615,4.4615,4.4615,4.4615,4.4615,4.4615,4.4615,4.4615,4.4615,4.4615,4.4615,4.4615,4.4547,4.4265,4.4215,4.4147,4.3938,4.3436,4.3064,4.3064,4.2455,4.1948,4.1948,4.1948,4.1694,4.095,4.1052,4.0933,4.0197,4.0096,4.0096,4.0096,4.0096,3.991,3.9453,3.9394,3.9394,3.9394,3.9394,3.9394,3.9394,3.9394,3.9468,3.9591,3.9542,3.9615,3.9768,3.9864,3.9976,4.0117,4.0146,4.017,0.0,3.3005,3.3967,3.3349,3.2043,3.0287,2.7909,2.6251,2.466,2.2785,2.2394,2.238,2.2408,2.2394,2.3061,2.5229,2.5742,2.6877,0.0,0.0,0.0,3.732,4.101,4.3447,4.3718,4.4276,4.4615,4.4615,4.4615,4.4615,4.4615,4.4615,4.4615,4.4615,4.4615,4.4615,4.4615,4.4615,4.4615,4.4615,4.4615,4.4615,4.4615,4.4615,4.4615,4.4615,4.4615,4.4615,0.0,4.4615,4.4615,4.4615,4.4615,4.4615,4.4615,4.4615,4.4615,4.4615,4.4615,4.4615,4.4615,4.4615,4.4615,4.4615,4.4615,4.4615,4.4615,4.4615,4.4615,4.4615,4.4615,4.4615,4.4615,4.4615,4.4615,4.4615,4.4615,4.4198,4.3859,4.3859,4.325,4.2726,4.2726,4.2726,4.2455,4.1728,4.1627,4.1356,4.0595,4.0282,4.0096,4.0096,4.0096,4.0096,4.0096,4.0096,4.0096,4.0096,4.0096,4.0096,4.0096,4.0096,4.0163,4.0305,4.0305,4.0379,4.051,4.0648,4.0769,4.0912,4.0912,4.0912,0.0,3.0989,3.2015,3.1944,3.0813,2.9127,2.6962,2.5405,0.0,2.2666,2.2352,2.2358,2.253,2.242,2.2632,2.363,2.4338,2.6031,2.9736,3.1698,3.4409,3.8785,4.0561,4.1711,4.2388,4.3768,4.4615,4.4615,4.4649,4.4682,4.4682,4.4682,4.4682,4.4682,4.4632,4.4615,4.4615,4.4615,4.4615,4.4615,4.4615,4.4615,4.4615,4.4615,4.4615,4.4615,4.4615,4.4615,4.4615,4.4615,4.4615,4.4615,4.4615,4.4615,4.4615,4.4615,4.4615,4.4615,4.4615,4.4615,4.4615,4.4615,4.4649,4.4682,4.4682,4.4649,4.4615,4.4615,4.4615,4.4615,4.4615,4.4615,4.4615,4.4615,4.4615,4.4615,4.4615,4.4615,4.4615,4.4615,4.3995,4.3504,4.3504,4.3504,4.325,4.2489,4.2371,4.21,4.1373,4.0663,4.0265,4.0265,4.0214,4.0197,4.0248,4.0163,4.0096,4.0096,4.0113,4.0113,4.0096,4.0113,4.0163,4.0305,4.033,4.0387,4.0534,4.0631,4.0793,4.0912,4.0912,4.0912,2.4957,0.0,2.7198,2.6554,2.6098,2.554,0.0,2.39,2.3408,2.251,2.231,2.2649,2.3795,2.3069,2.3494,2.7114,2.7317,2.8146,3.1345,3.5052,3.865,4.1982,4.3217,4.3887,4.4056,4.4395,4.4615,4.4615,4.5111,4.5449,4.5449,4.5449,4.5449,4.5449,4.4874,4.4615,4.4615,4.4615,4.4615,4.4615,4.4615,4.4615,4.4615,4.4615,4.4615,4.4615,4.4615,4.4615,4.4615,4.4615,4.4615,4.4615,4.4615,4.4615,4.4615,4.4615,4.4615,4.4615,4.4615,4.4615,4.4615,4.4615,4.4976,4.5449,4.5449,4.5043,4.4615,4.4615,4.4615,4.4615,4.4615,4.4615,4.4615,4.4615,4.4615,4.4615,4.4615,4.4615,4.4615,4.4615,4.4462,4.4316,4.4316,4.4316,4.4045,4.3267,4.3122,4.2878,4.2134,4.188,4.1788,4.1788,4.1271,4.117,4.1728,4.0756,4.0096,4.0096,4.0188,4.0213,4.0096,4.0188,4.028,4.0305,4.0502,4.0673,4.0799,4.084,4.0864,4.0912,4.0912,4.0912,2.3,2.4298,2.5587,2.5117,2.4745,2.4389,2.4,0.0,0.0,0.0,0.0,0.0,2.3797,2.3613,2.4222,2.6979,2.796,2.9753,3.38,3.7618,4.0849,4.3122,4.4113,4.4615,4.4615,4.4615,4.4615,4.4615,4.528,4.5703,4.5703,4.6024,4.6058,4.572,4.5314,4.4925,4.4615,4.4615,4.4615,4.4615,4.4615,4.4615,4.4615,4.4615,4.4615,4.4615,4.4615,4.4615,4.4615,4.4615,4.4615,4.4615,4.4615,4.4615,4.4615,4.4615,4.4615,4.4615,4.4615,4.4835,4.5145,4.5483,4.5872,4.621,4.621,4.5923,4.5534,4.5196,4.484,4.4615,4.4615,4.4615,4.4615,4.4615,4.4615,4.4615,4.4615,4.4615,4.4615,4.4615,4.4615,4.4615,4.4615,4.4615,4.4462,4.4012,4.3656,4.324,4.2861,4.2506,4.2286,4.2286,4.1931,4.1863,4.2252,4.1585,4.0976,4.0612,4.04,4.028,4.0188,4.0263,4.033,4.0387,4.0534,4.0704,4.0912,4.0912,4.0912,4.0912,4.0912,4.0912,2.2595,2.4103,2.5524,2.517,2.4712,2.4305,2.4186,0.0,0.0,0.0,0.0,0.0,0.0,2.4423,0.0,2.6437,2.8619,3.1853,3.6643,3.9648,4.1931,4.342,4.4181,4.4615,4.4615,4.4615,4.4615,4.4615,4.5382,4.5872,4.5872,4.6447,4.6498,4.5889,4.5652,4.5229,4.4615,4.4615,4.4615,4.4615,4.4615,4.4615,4.4615,4.4615,4.4615,4.4615,4.4615,4.4615,4.4615,4.4615,4.4615,4.4615,4.4615,4.4615,4.4615,4.4615,4.4615,4.4632,4.4733,4.5314,4.6126,4.6616,4.687,4.6972,4.6972,4.6887,4.6684,4.6177,4.55,4.4919,4.4801,4.4784,4.475,4.4632,4.4615,4.4615,4.4615,4.4615,4.4615,4.4615,4.4615,4.4615,4.4615,4.4615,4.4615,4.4615,4.4012,4.3589,4.3589,4.3031,4.2642,4.2642,4.2523,4.2506,4.2625,4.2422,4.2083,4.1576,4.0977,4.0645,4.067,4.0645,4.0652,4.0705,4.0681,4.0734,4.0912,4.0912,4.0912,4.0912,4.1015,4.1015,2.3888,2.4864,2.5136,2.326,2.319,2.341,2.2784,0.0,0.0,0.0,0.0,0.0,0.0,2.6285,2.7453,3.0736,3.3715,3.6535,3.9225,4.1068,4.2692,4.4242,4.453,4.4615,4.4615,4.4615,4.4615,4.4615,4.5855,4.6616,4.6616,4.6735,4.6735,4.6616,4.5427,4.4716,4.4615,4.4615,4.4615,4.4615,4.4615,4.4615,4.4615,4.4615,4.4615,4.4615,4.4615,4.4615,4.4615,4.4615,4.4615,4.4615,4.4615,4.4615,4.4615,4.4615,4.4615,4.4699,4.5314,4.643,4.7466,4.6972,4.7225,4.775,4.775,4.731,4.6904,4.7428,4.7039,4.6312,4.5686,4.5534,4.5365,4.475,4.4615,4.4615,4.4615,4.4615,4.4615,4.4615,4.4615,4.4615,4.4615,4.4615,4.4615,4.4615,4.4496,4.4429,4.4429,4.4327,4.4259,4.4259,4.3639,4.3521,4.4192,4.3058,4.2523,4.302,4.2494,4.2201,4.233,4.2236,4.198,4.1616,4.1492,4.1258,4.0912,4.0912,4.0912,4.0929,4.155,4.1516,2.3235,2.3969,2.4435,2.3674,2.4644,2.5576,2.4847,2.4678,0.0,0.0,0.0,0.0,0.0,0.0,3.048,3.4641,3.6806,3.8751,4.0984,4.1863,4.2861,4.4429,4.4615,4.4615,4.4615,4.4615,4.4615,4.4615,4.5585,4.621,4.621,4.6583,4.6616,4.621,4.5551,4.4993,4.4615,4.4615,4.4615,4.4615,4.4615,4.4615,4.4615,4.4615,4.4615,4.4615,4.4615,4.4615,4.4615,4.4615,4.4615,4.4615,4.4615,4.4615,4.4677,4.535,4.5631,4.5791,4.6982,4.7622,4.7889,4.797,4.8223,4.8494,4.8494,4.8257,4.8054,4.8501,4.7725,4.6718,4.638,4.6295,4.621,4.5855,4.5466,4.5179,4.5179,4.4874,4.4615,4.4615,4.4615,4.4615,4.4615,4.4615,4.4615,4.4615,4.4615,4.4615,4.4615,4.4615,4.4615,4.4615,4.4265,4.4198,4.4581,4.3955,4.3345,4.2925,4.292,4.2995,4.312,4.3357,4.3232,4.2725,4.2725,4.2496,4.198,4.2088,4.2137,4.2154,4.2738,4.2846,2.3139,2.3559,2.4213,2.4856,0.0,2.7012,2.6962,2.6962,0.0,0.0,0.0,0.0,0.0,3.1004,3.3947,3.7567,3.9073,4.0409,4.2286,4.2557,4.3064,4.4445,4.4615,4.4615,4.4615,4.4615,4.4615,4.4615,4.528,4.5703,4.5703,4.6244,4.6278,4.572,4.5534,4.5162,4.4615,4.4615,4.4615,4.4615,4.4784,4.4869,4.4869,4.4869,4.4869,4.4869,4.4682,4.4615,4.4615,4.4615,4.4615,4.4598,4.472,4.4841,4.5101,4.6262,4.6793,4.7147,4.8508,4.8804,4.8655,4.9219,4.9406,4.9376,4.9243,4.9199,4.9199,4.9199,4.8324,4.7319,4.7149,4.7086,4.7005,4.6836,4.6363,4.5957,4.5986,4.5529,4.5122,4.5151,4.5151,4.5072,4.4902,4.4869,4.4818,4.4632,4.4615,4.4615,4.4615,4.4615,4.4615,4.4615,4.4692,4.4759,4.4759,4.4759,4.4293,4.3225,4.3688,4.4066,4.4187,4.4611,4.4569,4.3997,4.4091,4.3772,4.3095,4.3385,4.3475,4.337,4.4021,4.4218,2.5197,2.5098,2.5092,2.6249,2.5642,2.5269,2.7249,2.7722,0.0,2.9548,0.0,0.0,0.0,3.4945,3.7753,3.8751,4.0679,4.2354,4.3189,4.3308,4.3639,4.4513,4.4615,4.4615,4.4615,4.4615,4.4615,4.4615,4.528,4.5703,4.5703,4.5754,4.5754,4.5703,4.5026,4.4649,4.4615,4.4615,4.4615,4.4615,4.528,4.5618,4.5618,4.5618,4.5618,4.5585,4.4919,4.4615,4.4615,4.4615,4.4615,4.4654,4.5072,4.5563,4.6105,4.6926,4.7662,4.8399,4.9249,4.9977,5.0519,5.0572,5.0589,5.048,4.9988,4.9832,4.9762,4.9303,4.9131,4.8876,4.8163,4.789,4.7665,4.6955,4.6752,4.673,4.6876,4.6784,4.6692,4.6792,4.675,4.6413,4.5737,4.5618,4.5382,4.4716,4.4615,4.4615,4.4615,4.4615,4.4615,4.4615,4.4998,4.5241,4.5241,4.5241,4.5216,4.5095,4.5718,4.6134,4.6271,4.6318,4.6052,4.5453,4.5382,4.4799,4.3639,4.4223,4.429,4.3886,4.5022,4.5191,2.4604,2.4841,2.5398,2.6434,2.6623,0.0,0.0,3.0632,3.1867,3.3846,3.41,0.0,0.0,3.662,3.8447,4.0104,4.1068,4.2202,4.391,4.3318,4.3183,4.4462,4.4615,4.4615,4.4615,4.4615,4.4615,4.4615,4.4869,4.501,4.501,4.501,4.501,4.501,4.475,4.4615,4.4615,4.4615,4.4615,4.4615,4.4874,4.5263,4.5686,4.5229,4.5263,4.5669,4.4936,4.4615,4.4626,4.4917,4.5035,4.5089,4.5588,4.6421,4.7429,4.8234,4.9015,4.977,5.0551,5.0787,5.0697,5.0697,5.0697,5.067,5.047,5.0387,5.0349,5.0022,5.0119,5.0055,4.9184,4.8852,4.8633,4.8374,4.7877,4.7509,4.767,4.7267,4.6944,4.6973,4.6944,4.6666,4.5821,4.5703,4.5449,4.4716,4.4615,4.4692,4.4981,4.5035,4.5152,4.552,4.5691,4.5817,4.5817,4.6098,4.631,4.631,4.6525,4.673,4.6863,4.7226,4.7169,4.6605,4.6719,4.6418,4.5582,4.5881,4.5949,4.5767,4.6528,4.6726,2.4417,2.4603,2.5258,2.6415,0.0,0.0,3.1562,3.3203,3.481,3.732,3.7212,3.684,3.7381,3.8091,3.9174,4.0933,4.1407,4.2252,4.4327,4.3278,4.2861,4.4429,4.4615,4.4615,4.4615,4.4615,4.4615,4.4615,4.4615,4.4615,4.4615,4.4615,4.4615,4.4615,4.4615,4.4615,4.4615,4.4748,4.4824,4.4824,4.4988,4.5408,4.6041,4.5694,4.5965,4.6601,4.5625,4.5292,4.5449,4.5344,4.5511,4.5825,4.6213,4.7163,4.8442,4.9254,5.0025,5.0809,5.1615,5.1626,5.1286,5.1286,5.1286,5.1217,5.1034,5.0964,5.0947,5.0721,5.0822,5.0867,5.03,4.9861,4.9538,4.9479,4.9014,4.8613,4.8697,4.8472,4.8253,4.8271,4.8253,4.79,4.6874,4.6709,4.6425,4.5439,4.5473,4.5744,4.6,4.6014,4.6104,4.6394,4.6238,4.6189,4.6334,4.6683,4.6908,4.6908,4.7062,4.7214,4.7341,4.7767,4.7834,4.7467,4.7695,4.7527,4.6954,4.7204,4.7288,4.7138,4.7591,4.7816,2.5129,2.4621,2.4711,2.6312,0.0,0.0,3.3491,3.5098,3.6462,3.9503,3.9529,3.9022,3.9005,3.9631,4.035,4.1102,4.1813,4.2811,4.4395,4.3278,4.2844,4.4412,4.4581,4.4581,4.4581,4.4581,4.4598,4.4598,4.4615,4.4615,4.4615,4.4615,4.4615,4.4615,4.4615,4.4615,4.4615,4.5062,4.5303,4.5303,4.585,4.6352,4.6827,4.7356,4.8048,4.8711,4.7168,4.6813,4.7197,4.5875,4.595,4.6908,4.6908,4.772,4.8981,4.98,5.0619,5.1411,5.2208,5.2498,5.2498,5.2498,5.2498,5.2387,5.1786,5.1619,5.1551,5.1288,5.121,5.1288,5.1543,5.0973,5.0265,5.0061,5.0067,5.0102,5.0102,5.0542,5.0929,5.0982,5.0947,5.0469,4.9059,4.892,4.8493,4.7034,4.7425,4.7833,4.7644,4.7552,4.741,4.7151,4.6519,4.6334,4.6863,4.6908,4.6908,4.6908,4.7407,4.7759,4.7881,4.7949,4.7992,4.7992,4.819,4.8052,4.7511,4.8052,4.8055,4.7611,4.8075,4.8306,2.4963,2.5384,2.639,2.7493,0.0,0.0,0.0,3.6688,0.0,0.0,4.1457,4.1153,4.0646,4.073,4.1119,4.1847,4.1711,4.2252,4.4327,4.2828,4.2083,4.3589,4.3301,4.2963,4.2963,4.3453,4.3775,4.3775,4.4265,4.4615,4.4615,4.4615,4.4615,4.4615,4.4615,4.4615,4.4615,4.5062,4.5303,4.5303,4.585,4.645,4.709,4.73,4.7797,4.8461,4.7482,4.7148,4.7254,4.6652,4.684,4.745,4.745,4.8042,4.8981,4.98,5.0619,5.1416,5.2286,5.2531,5.2521,5.2559,5.2531,5.2475,5.2275,5.2233,5.2162,5.1842,5.2036,5.2315,5.2179,5.197,5.164,5.1051,5.0805,5.0697,5.0911,5.1034,5.1122,5.1191,5.1157,5.077,4.9697,4.9226,4.8782,4.8099,4.7941,4.8137,4.8845,4.8755,4.8594,4.8507,4.7814,4.7385,4.7468,4.7554,4.7554,4.7468,4.7717,4.7819,4.7759,4.7863,4.7947,4.7992,4.8149,4.8169,4.8072,4.8229,4.823,4.8113,4.8248,4.8306,2.5321,2.606,2.712,2.8579,3.0911,3.3845,3.7678,0.0,0.0,0.0,4.2709,4.2252,4.2117,4.183,4.188,4.2625,4.2371,4.2675,4.4378,4.2878,4.2083,4.3257,4.276,4.2286,4.2286,4.2709,4.2963,4.2963,4.3403,4.3701,4.3701,4.3701,4.3929,4.4436,4.4234,4.4453,4.5196,4.5477,4.5724,4.5925,4.6478,4.6979,4.74,4.7552,4.818,4.917,4.8655,4.8116,4.7592,4.7339,4.7407,4.7717,4.7717,4.8206,4.8981,4.98,5.0619,5.1416,5.2313,5.2559,5.2503,5.2649,5.2627,5.2531,5.2531,5.2531,5.249,5.2361,5.2563,5.2783,5.2739,5.2717,5.2522,5.1801,5.1512,5.1447,5.1497,5.1732,5.1897,5.1819,5.1879,5.1663,5.0823,5.0457,5.0109,4.9607,4.9502,4.9652,5.0258,5.017,4.981,4.9177,4.8665,4.8187,4.7735,4.7759,4.7798,4.7717,4.784,4.784,4.7717,4.784,4.7922,4.7968,4.8128,4.8226,4.8267,4.8287,4.8306,4.8306,4.8306,4.8306,2.5945,2.6619,2.7368,2.9774,3.1929,3.4802,4.001,4.1762,4.2726,4.4293,4.3498,4.2709,4.3403,4.2963,4.2726,4.3392,4.3443,4.369,4.4496,4.32,4.2472,4.3189,4.2591,4.2083,4.2083,4.2151,4.2202,4.2202,4.2252,4.2286,4.2286,4.2286,4.2813,4.4001,4.3608,4.4154,4.5789,4.5982,4.63,4.6801,4.741,4.7717,4.7714,4.8039,4.8978,5.0354,5.011,4.9284,4.8166,4.7836,4.7717,4.7717,4.7717,4.8149,4.8873,4.9691,5.051,5.1307,5.2204,5.2504,5.2544,5.2757,5.2721,5.259,5.2613,5.2613,5.2654,5.2783,5.2806,5.289,5.3143,5.3185,5.302,5.2358,5.2237,5.2208,5.197,5.2481,5.2937,5.2698,5.285,5.2809,5.2208,5.2161,5.1976,5.131,5.1572,5.1838,5.1741,5.1606,5.0958,4.9507,4.9216,4.8753,4.7901,4.7753,4.7699,4.7717,4.7822,4.7861,4.7717,4.784,4.7881,4.7881,4.8087,4.8187,4.8187,4.8267,4.8306,4.8306,4.8306,4.8306,2.5787,2.7191,2.8881,3.1795,3.5128,3.8296,4.0671,4.1762,4.2726,4.4293,4.4344,4.4158,4.4327,4.4225,4.4175,4.4327,4.3809,4.369,4.4496,4.276,4.1711,4.2439,4.1356,4.057,4.057,4.1085,4.1441,4.1441,4.1965,4.2286,4.2286,4.2286,4.2434,4.2692,4.2937,4.327,4.3652,4.507,4.5828,4.5958,4.714,4.7717,4.7714,4.8424,4.9248,5.0137,4.9448,4.8992,4.867,4.7983,4.7717,4.7717,4.7717,4.7826,4.8058,4.8876,4.9673,5.0496,5.1475,5.2118,5.2567,5.2868,5.2806,5.2613,5.2739,5.2761,5.2783,5.2934,5.2955,5.2999,5.3164,5.3185,5.3164,5.2999,5.2893,5.285,5.289,5.2955,5.302,5.306,5.302,5.2937,5.2809,5.2458,5.2137,5.2,5.2232,5.2472,5.2678,5.2047,5.1493,5.1253,5.0,4.9076,4.8808,4.8224,4.7819,4.7717,4.7886,4.7947,4.7861,4.7881,4.7881,4.7881,4.8008,4.809,4.8187,4.8267,4.8306,4.8306,4.8306,4.8306,2.5835,2.7754,3.0023,3.4353,3.7116,3.9187,4.0832,4.1508,4.21,4.3278,4.409,4.4615,4.4615,4.4615,4.4615,4.4615,4.4231,4.4113,4.4547,4.2929,4.1863,4.2252,4.101,4.0096,4.0096,4.0468,4.0663,4.0663,4.1018,4.1264,4.1264,4.1461,4.185,4.2467,4.2705,4.322,4.4097,4.4792,4.5247,4.5519,4.6597,4.7337,4.7735,4.8529,4.9148,4.9492,4.9094,4.8891,4.8837,4.8022,4.7717,4.7717,4.7717,4.7717,4.7808,4.8601,4.942,5.0242,5.1195,5.1968,5.2567,5.289,5.2872,5.2721,5.285,5.2912,5.2893,5.2977,5.2999,5.302,5.3164,5.3185,5.3185,5.3185,5.3143,5.3103,5.3103,5.3103,5.3103,5.3103,5.3103,5.3103,5.3103,5.285,5.2676,5.2676,5.2743,5.285,5.2999,5.2506,5.2043,5.1725,5.0897,5.0177,4.9771,4.9325,4.9029,4.8992,4.9097,4.9138,4.9094,4.9154,4.881,4.7966,4.799,4.807,4.8187,4.8246,4.8267,4.8306,4.8306,4.8306,2.5487,2.8174,3.1253,3.6503,3.826,3.9112,4.0684,4.1146,4.1399,4.2096,4.3281,4.4242,4.4378,4.4384,4.4445,4.4581,4.4615,4.4615,4.4615,4.3278,4.2286,4.2286,4.101,4.0096,4.0096,4.0096,4.0146,4.0282,4.0299,4.0324,4.0408,4.0768,4.1435,4.2452,4.2514,4.3251,4.4736,4.454,4.4653,4.5091,4.6051,4.6866,4.7515,4.8312,4.8764,4.8891,4.8746,4.8764,4.8837,4.8022,4.7717,4.7717,4.7717,4.7717,4.779,4.8438,4.9293,5.0202,5.102,5.181,5.2567,5.289,5.2912,5.2828,5.2977,5.302,5.302,5.302,5.302,5.306,5.3164,5.3185,5.3185,5.3185,5.3185,5.3164,5.306,5.3124,5.3164,5.306,5.3124,5.3185,5.3185,5.3185,5.3185,5.3185,5.3082,5.302,5.302,5.2934,5.2572,5.194,5.1718,5.1371,5.0696,5.0423,5.0307,5.0378,5.0378,5.0396,5.0399,5.0415,4.9761,4.8289,4.8251,4.8236,4.8187,4.8207,4.8247,4.8306,4.8306,4.8306,2.3717,2.8157,3.3109,3.6683,3.851,3.9623,4.0257,4.0824,4.1333,4.1864,4.2304,4.2794,4.3453,4.3572,4.3792,4.4496,4.4615,4.4615,4.4615,4.3278,4.2286,4.2286,4.101,4.0096,4.0096,4.0096,4.0367,4.1018,4.1052,4.1223,4.1646,4.1719,4.173,4.1657,4.2048,4.2371,4.2601,4.3642,4.4182,4.4277,4.578,4.6558,4.6703,4.75,4.8239,4.8855,4.8149,4.8257,4.8837,4.8022,4.7717,4.7717,4.7717,4.7717,4.7696,4.7826,4.8804,5.013,5.0388,5.1361,5.2567,5.289,5.2912,5.2846,5.31,5.3185,5.3185,5.3185,5.3185,5.3185,5.3185,5.3185,5.3185,5.3185,5.3185,5.3185,5.3185,5.3185,5.3185,5.3185,5.3185,5.3185,5.3185,5.3185,5.3185,5.3185,5.3082,5.3042,5.3164,5.306,5.2984,5.2996,5.2254,5.1736,5.1627,5.0812,5.0304,5.0304,5.0371,5.0396,5.0396,4.9966,4.9608,4.9388,4.9268,4.8881,4.8187,4.8267,4.8287,4.8306,4.8306,4.8306,2.5461,2.8737,3.2109,3.6417,3.7964,3.8757,3.9995,4.0508,4.0808,4.1198,4.1383,4.1733,4.261,4.2777,4.2895,4.3234,4.3656,4.3927,4.3927,4.3214,4.2594,4.2339,4.1231,4.0402,4.0121,4.0096,4.0417,4.1136,4.1478,4.1908,4.2526,4.2678,4.2679,4.2562,4.2573,4.2595,4.2595,4.315,4.3643,4.4095,4.482,4.5635,4.6504,4.6866,4.7482,4.8203,4.7862,4.7916,4.8185,4.7862,4.7717,4.7717,4.7717,4.7717,4.7717,4.7717,4.8713,5.0112,5.0174,5.1203,5.2526,5.2717,5.2783,5.2846,5.3039,5.3143,5.3185,5.3185,5.3185,5.3185,5.3185,5.3185,5.3185,5.3185,5.3185,5.3185,5.3185,5.3185,5.3185,5.3185,5.3185,5.3185,5.3185,5.3185,5.3185,5.3185,5.3164,5.3124,5.3185,5.3082,5.3042,5.3185,5.2752,5.2511,5.2572,5.2114,5.1828,5.191,5.1892,5.1895,5.1956,5.1731,5.1187,5.0288,4.9253,4.8812,4.8981,4.8485,4.8505,4.9022,4.8526,4.8306,2.6283,2.8268,3.0048,3.4945,3.6684,3.7643,3.9365,4.0042,4.0407,4.0762,4.0926,4.1201,4.1962,4.2047,4.2068,4.2157,4.2705,4.3132,4.3132,4.2886,4.2593,4.2244,4.1491,4.0784,4.0328,4.0279,4.0612,4.1407,4.1978,4.2642,4.3509,4.365,4.3653,4.3578,4.3144,4.2901,4.2901,4.2901,4.319,4.3788,4.3987,4.4729,4.5906,4.6305,4.683,4.7428,4.7627,4.7717,4.7717,4.7717,4.7717,4.7717,4.7717,4.7717,4.7717,4.7717,4.8713,5.0112,5.0112,5.114,5.2503,5.2586,5.2676,5.2783,5.2955,5.3082,5.3164,5.3185,5.3185,5.3185,5.3185,5.3185,5.3185,5.3185,5.3185,5.3185,5.3185,5.3185,5.3185,5.3185,5.3185,5.3185,5.3185,5.3185,5.3185,5.3185,5.3185,5.3185,5.3185,5.3103,5.3082,5.3185,5.3103,5.3082,5.3185,5.3082,5.3042,5.3124,5.306,5.3042,5.3143,5.2983,5.2325,5.1132,4.942,4.8779,4.928,4.8559,4.8577,4.9262,4.86,4.8306,2.4085,2.5769,2.7369,3.1464,3.442,3.6702,3.802,3.9354,4.0422,4.0895,4.123,4.1494,4.152,4.1388,4.1393,4.1753,4.2116,4.2354,4.2354,4.2125,4.195,4.1926,4.165,4.1276,4.0802,4.0754,4.118,4.217,4.2732,4.3568,4.4738,4.4582,4.433,4.4075,4.3317,4.2901,4.2901,4.2901,4.2919,4.2973,4.3733,4.4132,4.4277,4.5798,4.6522,4.6613,4.7373,4.7717,4.7717,4.7717,4.7717,4.7717,4.7717,4.7717,4.7717,4.7717,4.8713,5.0112,5.0112,5.114,5.2503,5.2586,5.259,5.2676,5.2915,5.2999,5.3042,5.3164,5.3185,5.3185,5.3185,5.3185,5.3185,5.3185,5.3185,5.3185,5.3185,5.3185,5.3185,5.3185,5.3185,5.3185,5.3185,5.3185,5.3185,5.3185,5.3185,5.3185,5.3185,5.3185,5.3185,5.3185,5.3185,5.3185,5.3185,5.3082,5.2999,5.302,5.2999,5.2999,5.302,5.2412,5.2013,5.194,5.0343,4.9132,4.8379,4.8305,4.8305,4.8379,4.8324,4.8306,2.2872,0.0,2.6276,2.9784,3.2188,3.4186,3.6204,3.7861,3.9206,4.0057,4.0737,4.1186,4.1186,4.1305,4.1285,4.0896,4.1509,4.1867,4.1355,4.1888,4.2241,4.193,4.1933,4.176,4.1281,4.1253,4.1482,4.2003,4.2806,4.3573,4.4161,4.4214,4.4209,4.4095,4.3336,4.2901,4.2901,4.2901,4.2901,4.2901,4.3191,4.3588,4.4132,4.5236,4.6015,4.654,4.7355,4.7717,4.7717,4.7717,4.7717,4.7717,4.7717,4.7717,4.7751,4.8275,4.9166,5.0184,5.0687,5.1574,5.2498,5.2526,5.2559,5.2613,5.2721,5.2872,5.302,5.306,5.3124,5.3185,5.3185,5.3185,5.3185,5.3185,5.3185,5.3185,5.3185,5.3185,5.3185,5.3185,5.3185,5.3185,5.3185,5.3185,5.3185,5.3185,5.3185,5.3185,5.3185,5.3185,5.3185,5.3185,5.3185,5.3185,5.3185,5.3164,5.3124,5.3124,5.3124,5.3124,5.3124,5.291,5.2527,5.1995,5.1426,5.0729,4.9903,4.9389,4.9389,4.9903,4.937,4.9132,2.1595,0.0,0.0,0.0,2.9789,3.1437,3.4645,3.6435,3.7763,3.9013,4.0105,4.0912,4.1199,4.1428,4.1233,4.0288,4.0804,4.1076,4.0268,4.0899,4.1498,4.1585,4.1732,4.181,4.1725,4.1721,4.1859,4.21,4.2926,4.3604,4.4016,4.4073,4.4095,4.4095,4.357,4.3299,4.3299,4.3299,4.3173,4.2901,4.2901,4.3172,4.3715,4.453,4.5345,4.6142,4.6957,4.7464,4.7717,4.7717,4.7717,4.7717,4.7717,4.7717,4.7808,4.8601,4.942,5.022,5.1036,5.1833,5.2531,5.2521,5.2554,5.259,5.259,5.2743,5.2937,5.2999,5.3103,5.3185,5.3185,5.3185,5.3185,5.3185,5.3185,5.3185,5.3185,5.3185,5.3185,5.3185,5.3185,5.3185,5.3185,5.3185,5.3185,5.3185,5.3185,5.3185,5.3185,5.3185,5.3185,5.3185,5.3185,5.3185,5.3185,5.3185,5.3185,5.3185,5.3185,5.3185,5.3185,5.3185,5.2968,5.2417,5.2142,5.1738,5.1206,5.0124,4.9719,4.9958,4.9407,4.915,0.0,0.0,0.0,0.0,2.7314,2.8582,3.327,3.4989,3.6073,3.7739,3.9278,4.0601,4.1506,4.1669,4.125,4.0026,4.0103,4.0034,3.9224,3.9178,3.965,4.0836,4.1022,4.1364,4.2076,4.2183,4.2296,4.2517,4.3066,4.37,4.4407,4.4201,4.4059,4.4059,4.4059,4.4059,4.4059,4.4059,4.3661,4.2901,4.2901,4.2901,4.2937,4.3715,4.453,4.5345,4.616,4.6975,4.7717,4.7717,4.7717,4.7717,4.7717,4.7717,4.7808,4.8619,4.9438,5.022,5.1049,5.1901,5.2586,5.2526,5.2554,5.2613,5.2613,5.2698,5.2828,5.2959,5.3103,5.3185,5.3185,5.3185,5.3185,5.3185,5.3185,5.3185,5.3185,5.3185,5.3185,5.3185,5.3185,5.3185,5.3185,5.3185,5.3185,5.3185,5.3185,5.3185,5.3185,5.3185,5.3185,5.3185,5.3185,5.3185,5.3185,5.3185,5.3185,5.3185,5.3185,5.3185,5.3185,5.3185,5.3185,5.3185,5.2435,5.2013,5.1995,5.0418,4.9187,4.8379,4.8361,4.8343,2.1169,0.0,0.0,0.0,0.0,0.0,2.8219,2.9595,3.1532,3.4896,3.5946,3.7161,4.0257,4.0836,4.0709,4.0365,4.0599,4.0534,3.9716,3.9629,3.9757,4.0089,4.0449,4.0744,4.0942,4.1501,4.1724,4.1461,4.2438,4.2969,4.284,4.3084,4.3226,4.3226,4.3226,4.3226,4.3226,4.3226,4.3137,4.2901,4.2901,4.2901,4.2937,4.3715,4.453,4.5345,4.616,4.6975,4.7717,4.7717,4.7717,4.7717,4.7717,4.7717,4.788,4.9257,4.9908,5.0311,5.1683,5.2372,5.2608,5.2586,5.2631,5.2743,5.2743,5.2828,5.2955,5.2999,5.3103,5.3185,5.3185,5.3185,5.3185,5.3185,5.3185,5.3185,5.3185,5.3185,5.3185,5.3185,5.3185,5.3185,5.3185,5.3185,5.3185,5.3185,5.3185,5.3185,5.3185,5.3185,5.3185,5.3185,5.3185,5.3185,5.3185,5.3185,5.3185,5.3185,5.3185,5.3185,5.3185,5.3185,5.3185,5.3185,5.2986,5.2582,5.1995,5.0967,5.0343,5.0105,4.9499,4.9243,2.2174,0.0,0.0,0.0,0.0,0.0,2.7254,2.8165,2.9649,3.3339,3.4371,3.5512,3.8482,3.9315,3.9659,4.0003,4.0202,4.018,3.9713,3.9456,3.9418,3.9604,3.9697,3.995,4.0438,4.0926,4.1088,4.0808,4.1792,4.2425,4.248,4.275,4.3064,4.339,4.3389,4.3389,4.3389,4.3389,4.3226,4.2901,4.2901,4.2901,4.2919,4.339,4.4222,4.5327,4.5798,4.6649,4.7717,4.7717,4.7717,4.7717,4.7717,4.7717,4.7898,4.951,5.0112,5.0347,5.1937,5.2577,5.2676,5.2613,5.2721,5.2872,5.2806,5.2893,5.2999,5.2999,5.3103,5.3185,5.3185,5.3185,5.3185,5.3185,5.3185,5.3185,5.3185,5.3185,5.3185,5.3185,5.3185,5.3185,5.3185,5.3185,5.3185,5.3185,5.3185,5.3185,5.3185,5.3185,5.3185,5.3185,5.3185,5.3185,5.3185,5.3185,5.3185,5.3185,5.3185,5.3185,5.3185,5.3185,5.3185,5.3185,5.3185,5.2803,5.1995,5.1518,5.1132,5.0802,5.0306,5.0086,2.3441,2.3578,0.0,0.0,2.4635,0.0,2.8226,2.8721,2.9197,3.2252,3.3447,3.448,3.627,3.7194,3.7937,3.8735,3.9007,3.9205,3.9369,3.9031,3.8923,3.9352,3.9103,3.9281,4.0293,4.0438,4.0456,4.0383,4.1126,4.1922,4.2719,4.2755,4.3136,4.3932,4.3969,4.3969,4.3969,4.3969,4.3626,4.2901,4.2901,4.2901,4.2901,4.2901,4.3769,4.5291,4.5291,4.6214,4.7717,4.7717,4.7717,4.7717,4.7717,4.7717,4.7898,4.951,5.0112,5.0347,5.1937,5.2622,5.2761,5.2654,5.2787,5.2977,5.289,5.2934,5.302,5.302,5.3103,5.3185,5.3185,5.3185,5.3185,5.3185,5.3185,5.3185,5.3185,5.3185,5.3185,5.3185,5.3185,5.3185,5.3185,5.3185,5.3185,5.3185,5.3185,5.3185,5.3185,5.3185,5.3185,5.3185,5.3185,5.3185,5.3185,5.3185,5.3185,5.3185,5.3185,5.3185,5.3185,5.3185,5.3185,5.3185,5.3185,5.2858,5.2123,5.2032,5.1591,5.0802,5.0802,5.0857,2.5414,2.5613,2.566,2.5316,2.5848,0.0,2.519,2.586,2.7206,2.9143,2.9668,3.0663,3.3574,3.4226,3.4606,3.5421,3.6616,3.7919,3.9223,3.9317,3.9299,3.9387,3.9842,4.0004,3.9659,4.0148,4.0239,3.9659,4.0311,4.1089,4.1886,4.1922,4.2303,4.3118,4.3118,4.3118,4.3118,4.3118,4.3064,4.2901,4.2901,4.2901,4.2901,4.2901,4.3769,4.5291,4.5291,4.6214,4.7717,4.7717,4.7717,4.7717,4.7717,4.7717,4.7898,4.951,5.0112,5.0347,5.1937,5.2554,5.2654,5.2721,5.2872,5.302,5.3103,5.3143,5.3164,5.3164,5.3185,5.3185,5.3185,5.3185,5.3185,5.3185,5.3185,5.3185,5.3185,5.3185,5.3185,5.3185,5.3185,5.3185,5.3185,5.3185,5.3185,5.3185,5.3185,5.3185,5.3185,5.3185,5.3185,5.3185,5.3185,5.3185,5.3185,5.3185,5.3185,5.3185,5.3185,5.3185,5.3185,5.3185,5.3185,5.3185,5.3185,5.3112,5.2968,5.2307,5.1591,5.0802,5.0802,5.1151,2.6898,2.679,2.679,2.679,2.679,0.0,0.0,2.5914,2.6663,2.8274,2.8274,2.8744,3.1166,3.16,3.1872,3.2669,3.4154,3.5476,3.629,3.8119,3.9242,3.8861,3.9134,3.9206,3.8826,3.9496,4.013,4.0528,4.089,4.127,4.1687,4.2067,4.2303,4.2303,4.2683,4.2901,4.2901,4.2901,4.2901,4.2901,4.2901,4.2901,4.2901,4.2901,4.3769,4.5291,4.5291,4.6214,4.7717,4.7717,4.7717,4.7717,4.7717,4.7717,4.7898,4.951,5.0112,5.0347,5.1937,5.2554,5.2613,5.2676,5.285,5.302,5.3082,5.3143,5.3185,5.3185,5.3185,5.3185,5.3185,5.3185,5.3185,5.3185,5.3185,5.3185,5.3185,5.3185,5.3185,5.3185,5.3185,5.3185,5.3185,5.3185,5.3185,5.3185,5.3185,5.3185,5.3185,5.3185,5.3185,5.3185,5.3185,5.3185,5.3185,5.3185,5.3185,5.3185,5.3185,5.3185,5.3185,5.3185,5.3185,5.3185,5.3185,5.3185,5.3185,5.2803,5.2399,5.2013,5.2013,5.2215,2.8449,2.8201,2.8401,2.8744,2.8093,2.7363,0.0,0.0,0.0,2.7966,2.7731,2.7749,2.8897,2.9114,2.9368,3.017,3.1655,3.2759,3.2922,3.5874,3.7938,3.7757,3.8009,3.8209,3.8209,3.8355,3.9188,4.089,4.0727,4.0836,4.1433,4.2085,4.2285,4.194,4.2411,4.2737,4.2901,4.2901,4.2901,4.2901,4.2901,4.2901,4.2919,4.3064,4.3914,4.5309,4.5454,4.6359,4.7717,4.7717,4.7717,4.7717,4.7717,4.7717,4.7898,4.951,5.0112,5.0347,5.1937,5.2531,5.2586,5.2608,5.2787,5.2999,5.302,5.3103,5.3185,5.3185,5.3185,5.3185,5.3185,5.3185,5.3185,5.3185,5.3185,5.3185,5.3185,5.3185,5.3185,5.3185,5.3185,5.3185,5.3185,5.3185,5.3185,5.3185,5.3185,5.3185,5.3185,5.3185,5.3185,5.3185,5.3185,5.3185,5.3185,5.3185,5.3185,5.3185,5.3185,5.3185,5.3185,5.3185,5.3185,5.3185,5.3185,5.3185,5.3185,5.3185,5.3185,5.3185,5.3185,5.3185,3.064,3.1111,3.1329,3.0002,3.06,3.0803,2.802,0.0,2.8842,2.6892,0.0,2.7242,2.6711,0.0,0.0,2.7689,2.9156,3.0455,3.1179,3.227,3.3773,3.5822,3.7323,3.8209,3.8209,3.6345,3.6109,3.8409,3.7286,3.7686,4.0492,4.0709,4.1379,4.2719,4.2158,4.2194,4.2901,4.2901,4.2901,4.2901,4.2901,4.2901,4.2919,4.3625,4.444,4.5345,4.6051,4.6884,4.7717,4.7717,4.7717,4.7717,4.7717,4.7717,4.7898,4.951,5.0112,5.0347,5.1937,5.2498,5.2526,5.2586,5.2787,5.302,5.3143,5.3185,5.3185,5.3185,5.3185,5.3185,5.3185,5.3185,5.3185,5.3185,5.3185,5.3185,5.3185,5.3185,5.3185,5.3185,5.3185,5.3185,5.3185,5.3185,5.3185,5.3185,5.3185,5.3185,5.3185,5.3185,5.3185,5.3185,5.3185,5.3185,5.3185,5.3185,5.3185,5.3185,5.3185,5.3185,5.3185,5.3185,5.3185,5.3185,5.3185,5.3185,5.3185,5.3185,5.3185,5.3185,5.3185,5.3185,3.1143,3.1596,3.1926,3.0781,3.0998,3.0912,2.8618,2.7906,2.7417,2.6421,0.0,0.0,0.0,0.0,0.0,0.0,2.7363,2.8359,2.8232,2.9699,3.1691,3.4117,3.4172,3.457,3.5983,3.562,3.6109,3.8064,3.6707,3.698,3.9713,3.9858,4.0582,4.2158,4.1868,4.2103,4.2901,4.2901,4.2901,4.2901,4.2901,4.2901,4.2937,4.3715,4.453,4.5345,4.616,4.6975,4.7717,4.7717,4.7717,4.7717,4.7717,4.7717,4.7898,4.951,5.0112,5.0347,5.1937,5.2498,5.2503,5.2672,5.2783,5.2934,5.3143,5.3185,5.3185,5.3185,5.3185,5.3185,5.3185,5.3185,5.3185,5.3185,5.3573,5.3904,5.3904,5.4252,5.4583,5.4583,5.4583,5.4436,5.3977,5.3518,5.3185,5.3185,5.3185,5.3185,5.3185,5.3185,5.3185,5.3185,5.3185,5.3185,5.3185,5.3185,5.3185,5.3185,5.3185,5.3185,5.3185,5.3185,5.3185,5.3185,5.3185,5.3185,5.3185,5.3185,5.3185,5.3185,5.3185,5.3185,3.2198,3.2578,3.2832,3.1379,3.1179,3.0785,2.8744,2.7876,2.7327,2.6675,2.6131,0.0,0.0,0.0,0.0,0.0,0.0,2.7115,2.6301,2.7526,2.93,3.1492,3.131,3.1763,3.3755,3.3867,3.4769,3.7033,3.553,3.5838,3.8898,3.9078,3.9876,4.1632,4.1488,4.185,4.2901,4.2901,4.2901,4.2901,4.2901,4.2901,4.2937,4.3951,4.4747,4.5363,4.6377,4.7174,4.7717,4.7717,4.7717,4.7717,4.7717,4.7717,4.7898,4.951,5.0112,5.0347,5.1937,5.2498,5.2544,5.2694,5.2761,5.2806,5.306,5.3143,5.3146,5.3185,5.3371,5.3537,5.3537,5.3702,5.3867,5.3867,5.4308,5.473,5.473,5.5188,5.5614,5.5614,5.5614,5.5409,5.4821,5.4069,5.3463,5.3222,5.3185,5.3185,5.3185,5.3185,5.3185,5.3185,5.3185,5.3185,5.3185,5.3185,5.3185,5.3185,5.3185,5.3185,5.3185,5.3185,5.3185,5.3185,5.3185,5.3185,5.3185,5.3185,5.3185,5.3185,5.3185,5.3185,3.4715,3.5062,3.4917,3.1781,3.1596,3.1329,2.8147,2.921,3.017,2.7839,2.9174,3.0296,2.8763,0.0,0.0,0.0,0.0,0.0,0.0,2.5606,2.5769,2.7405,2.9608,3.1342,3.218,3.0193,3.0464,3.441,3.2506,3.3227,3.7991,3.8245,3.9297,4.1632,4.0945,4.1307,4.2883,4.2901,4.2901,4.2901,4.2901,4.2901,4.2955,4.453,4.5273,4.5399,4.6975,4.7681,4.7717,4.7717,4.7717,4.7717,4.7717,4.7717,4.7898,4.951,5.0112,5.0347,5.1937,5.2498,5.2503,5.2586,5.2613,5.2676,5.2915,5.2999,5.302,5.3164,5.3775,5.4363,5.4363,5.4932,5.5522,5.5522,5.5559,5.5556,5.5556,5.5596,5.5614,5.5614,5.5614,5.5574,5.5578,5.4876,5.4106,5.3314,5.3185,5.3185,5.3185,5.3185,5.3185,5.3185,5.3185,5.3185,5.3185,5.3185,5.3185,5.3185,5.3185,5.3185,5.3185,5.3185,5.3185,5.3185,5.3185,5.3185,5.3185,5.3185,5.3185,5.3185,5.3185,5.3185,3.5605,3.6761,3.7286,3.352,3.2795,3.2162,2.8925,2.9246,2.9663,2.7785,2.9428,3.0713,2.9095,0.0,0.0,0.0,0.0,0.0,0.0,2.4751,2.4653,2.5679,2.8407,2.9694,2.8359,2.8938,3.017,3.2071,3.098,3.2321,3.7158,3.6888,3.7922,4.08,4.0637,4.1017,4.2103,4.2629,4.2901,4.2901,4.2901,4.2901,4.2955,4.4566,4.5291,4.5399,4.7011,4.7717,4.7717,4.7717,4.7717,4.7717,4.7717,4.8022,4.8619,4.9691,5.0112,5.0347,5.1937,5.2498,5.2503,5.2586,5.259,5.2635,5.2806,5.2868,5.3021,5.3679,5.4049,5.44,5.502,5.539,5.5614,5.5614,5.5996,5.64,5.64,5.6804,5.7189,5.7189,5.7189,5.7024,5.6492,5.618,5.5721,5.4913,5.4344,5.3995,5.3995,5.3537,5.3185,5.3185,5.3185,5.3185,5.3185,5.3185,5.3185,5.3185,5.3185,5.3185,5.3185,5.3185,5.3185,5.3185,5.3185,5.3185,5.3185,5.3185,5.3185,5.3185,5.3185,5.3185,3.6798,3.7794,3.8281,3.5403,3.4737,3.396,3.0636,3.1011,3.1619,2.9999,3.1219,3.2543,3.2476,0.0,0.0,0.0,0.0,0.0,0.0,2.4182,2.4145,2.49,2.7097,0.0,0.0,2.7526,2.8788,3.0455,2.9567,3.093,3.5491,3.5765,3.7107,4.0021,4.0347,4.1017,4.2122,4.2629,4.2901,4.2901,4.2901,4.3064,4.3371,4.4693,4.5454,4.5798,4.7138,4.7717,4.7717,4.7717,4.7717,4.7717,4.7717,4.8206,4.8981,4.98,5.0474,5.1086,5.2136,5.2498,5.2521,5.2536,5.2559,5.2581,5.2694,5.2939,5.329,5.3993,5.4627,5.5198,5.5864,5.6235,5.6436,5.6436,5.684,5.7152,5.6877,5.7207,5.7574,5.7574,5.7574,5.7501,5.7281,5.6987,5.6436,5.5335,5.473,5.4308,5.4014,5.3537,5.3185,5.3185,5.3185,5.3185,5.3185,5.3185,5.3185,5.3185,5.3185,5.3185,5.3185,5.3185,5.3185,5.3185,5.3185,5.3185,5.3185,5.3185,5.3185,5.3185,5.3185,5.3185]}]]